GFSGBSN_sfc_wetblb_021.txt.gz
Wetbulb
55.81 55.90 56.06 56.30 56.28 56.43 56.64 56.51 56.46 56.48 56.50 56.50 56.53 56.78 56.81 56.95 57.20 57.57 57.61 57.90 58.30 58.14 58.11 58.66 59.01 59.39 63.19 62.43 62.15 67.56 70.95 68.96 65.67 61.17 60.31 60.19 58.32 58.88 58.24 60.67 60.93 60.61 59.99 61.08 61.68 61.78 62.11
55.66 55.65 55.76 55.99 56.06 56.05 56.13 56.13 56.17 56.14 56.01 56.01 56.03 56.13 56.20 56.46 56.97 57.42 57.54 57.41 57.46 57.71 58.22 59.34 59.11 58.62 64.14 55.97 66.81 66.02 64.12 64.26 62.23 60.48 60.77 61.07 59.44 60.40 59.44 59.24 59.86 61.17 60.72 61.38 61.87 61.60 61.85
55.25 55.10 55.08 55.42 55.51 55.48 55.60 55.67 55.67 55.59 55.46 55.50 55.37 55.51 55.65 55.90 56.21 56.63 56.98 56.71 56.77 57.69 59.59 60.17 59.09 63.28 59.75 57.57 66.98 66.65 63.68 62.62 61.32 60.66 60.37 62.47 61.93 59.17 59.99 59.08 61.09 60.59 59.01 60.84 60.99 60.98 60.01
55.14 54.72 54.92 55.05 55.12 55.02 55.12 55.16 55.11 55.06 54.90 54.77 54.87 54.95 55.11 55.35 55.60 55.68 55.98 55.74 56.63 59.14 59.50 58.84 59.82 64.41 57.91 62.87 67.00 64.44 64.18 61.93 61.80 61.02 63.10 63.57 63.01 60.50 59.31 60.69 59.35 58.73 59.02 55.42 60.41 59.60 60.48
54.84 54.88 54.80 54.44 54.39 54.22 54.50 54.62 54.57 54.46 54.27 54.17 54.33 54.51 54.69 54.95 55.09 55.39 55.17 55.19 57.88 60.67 60.06 60.62 65.22 62.43 57.41 63.57 61.26 65.31 64.18 60.49 60.10 61.05 62.79 62.78 61.94 59.45 58.43 54.81 53.82 55.60 52.52 54.99 55.35 59.38 58.22
53.69 54.40 54.07 53.87 54.02 53.91 54.00 54.01 53.93 53.82 53.80 53.98 54.19 54.41 54.56 54.72 54.96 54.74 54.59 55.46 59.72 60.24 62.53 65.64 64.36 59.51 58.77 55.84 60.49 63.91 64.37 60.67 57.87 58.89 59.02 59.72 58.68 56.15 55.52 54.26 49.24 51.34 51.82 52.63 52.53 56.91 57.57
53.59 53.17 53.12 53.55 53.49 53.61 53.46 53.30 53.30 53.23 53.25 53.64 53.92 54.02 54.10 54.08 54.18 54.02 56.23 62.16 61.92 60.50 62.68 58.04 58.58 55.79 56.44 61.95 62.47 61.22 62.69 59.54 59.54 57.27 55.41 57.83 54.36 52.00 54.13 55.19 55.33 54.72 52.61 51.84 54.03 56.46 55.77
54.42 53.82 53.50 53.04 53.48 53.26 52.98 52.80 52.75 52.82 52.96 53.02 53.16 53.73 53.78 53.71 53.43 53.39 57.03 59.14 57.61 57.72 54.19 58.31 57.58 57.76 59.20 61.90 57.20 59.48 61.93 57.33 56.44 54.08 56.78 55.48 51.87 55.35 55.27 54.55 53.73 53.21 52.34 52.70 54.51 56.75 56.02
53.10 53.11 52.74 52.92 53.13 52.53 52.45 52.40 52.15 52.31 52.50 52.58 52.83 53.20 53.12 52.84 52.69 56.92 59.81 58.77 60.18 60.07 54.60 55.69 56.83 55.86 56.84 59.83 57.51 58.01 59.44 58.41 56.52 54.73 55.12 53.24 55.07 55.78 54.03 53.29 52.51 53.03 52.32 52.70 52.81 55.75 56.59
53.62 52.26 52.75 52.86 52.37 52.07 51.94 51.81 51.93 52.18 52.29 52.50 52.83 52.77 52.52 51.36 53.72 57.15 57.68 60.44 60.44 60.25 51.67 52.63 53.08 55.21 57.06 58.58 56.17 61.74 60.78 59.52 57.90 55.18 55.40 54.58 56.18 53.60 53.36 52.83 53.96 52.08 55.50 53.77 53.15 53.04 50.78
53.24 52.13 52.15 52.39 51.76 51.54 51.33 51.35 51.51 51.76 52.21 52.39 52.23 52.13 51.85 50.97 55.57 54.70 59.40 59.83 60.02 59.55 44.34 53.61 53.38 59.16 57.69 55.46 56.94 58.03 62.13 60.11 56.86 55.90 56.26 53.92 53.93 53.55 52.51 53.12 54.65 53.62 56.71 54.43 54.56 53.34 52.91
52.60 52.38 52.18 51.74 51.13 51.20 50.90 51.45 51.81 52.04 51.96 51.86 51.88 51.59 51.19 57.19 58.09 57.46 57.81 59.38 59.34 49.31 43.34 50.63 54.11 52.80 53.16 54.51 55.74 58.13 59.50 61.50 60.46 57.08 57.05 56.13 57.35 56.21 55.23 55.99 56.14 56.76 55.08 55.14 55.11 53.39 48.54
52.06 52.72 52.32 51.88 50.90 50.51 50.59 51.66 51.68 51.75 51.64 51.44 51.16 50.66 51.75 56.84 55.17 57.76 57.94 57.22 48.71 45.40 52.22 50.40 51.11 53.16 52.72 52.15 53.50 56.26 56.24 56.01 54.67 52.43 52.77 54.55 54.97 56.40 56.74 54.22 56.47 55.57 53.58 48.68 48.24 48.48 47.26
51.34 51.15 51.36 51.52 50.80 50.25 51.07 51.30 51.24 51.50 51.11 50.78 50.11 49.95 54.46 55.99 58.53 57.57 56.93 52.22 45.51 49.19 49.69 52.80 52.22 52.85 50.87 52.79 53.44 54.74 55.15 54.18 56.55 55.56 53.33 51.45 49.59 54.90 56.98 54.99 53.85 54.65 53.97 49.00 45.17 45.65 47.83
50.56 50.51 50.40 50.23 50.16 50.61 51.12 50.99 51.20 51.00 50.52 49.91 49.03 58.19 56.61 57.93 58.27 57.56 54.05 47.07 48.33 50.62 50.74 50.30 51.05 50.28 50.89 52.33 52.84 54.19 54.48 54.43 56.07 56.62 53.10 51.63 50.68 55.54 55.46 56.21 55.64 53.78 51.61 55.11 50.91 52.00 49.17
50.24 50.02 49.46 49.86 49.84 50.55 50.75 51.20 51.00 50.68 50.13 49.47 54.15 55.40 56.69 59.44 58.90 55.34 51.10 46.90 50.74 50.81 50.63 50.96 48.85 51.45 49.67 50.79 50.40 52.85 53.34 55.75 55.30 57.29 58.04 54.85 50.77 55.03 55.12 56.01 56.19 55.04 56.87 51.24 51.35 46.45 45.16
49.83 49.30 49.23 49.37 49.76 50.21 50.61 50.74 50.43 50.00 49.57 49.32 55.50 53.13 56.37 57.42 56.86 52.04 46.56 49.95 51.87 51.46 51.31 49.71 49.12 50.56 52.00 51.00 51.64 51.55 52.30 53.79 56.07 56.36 57.33 55.75 53.95 52.60 54.39 53.20 52.57 54.06 52.66 53.78 53.07 52.42 47.33
49.64 49.42 49.00 49.33 51.09 50.67 50.44 50.38 50.01 49.28 48.47 51.11 56.11 50.13 56.69 57.59 48.72 50.36 48.48 51.19 48.33 50.60 51.86 50.70 51.65 50.36 50.82 51.72 51.18 51.58 51.71 54.22 55.58 55.93 53.58 55.92 54.52 51.16 52.30 55.70 55.70 55.06 54.76 55.06 50.46 50.48 52.23
49.46 49.18 48.92 50.31 50.08 50.25 50.18 50.23 49.60 48.90 48.57 53.01 54.93 53.83 56.94 56.21 46.30 48.36 51.13 50.02 50.32 50.43 50.40 49.97 49.85 51.86 52.38 50.70 50.37 52.06 52.40 54.26 53.94 55.07 54.89 56.73 52.91 49.45 51.05 53.31 55.35 52.81 53.58 54.91 56.12 56.06 52.82
49.09 49.14 49.20 49.48 49.41 49.97 50.31 50.31 49.70 49.02 48.91 52.09 55.61 48.62 52.08 52.15 53.20 51.14 50.24 49.48 48.49 50.60 50.43 50.88 50.66 51.76 51.61 51.34 53.79 51.75 51.45 52.47 53.30 54.63 60.81 60.52 54.71 52.68 48.42 50.35 54.44 52.55 52.75 53.95 54.42 51.70 51.88
49.17 49.32 49.47 49.04 49.17 49.00 50.03 50.21 49.79 48.96 48.93 52.94 55.74 53.25 53.43 47.26 49.58 50.87 51.23 50.22 48.21 48.55 51.54 52.59 50.70 50.46 50.41 49.92 51.05 50.80 52.52 52.44 53.07 55.48 55.89 57.02 53.21 54.23 54.17 53.21 53.23 53.10 52.70 53.38 52.71 53.89 51.90
49.11 49.20 49.24 48.74 49.06 48.94 49.35 50.01 49.61 48.84 47.87 54.45 52.31 52.82 52.90 53.41 52.95 50.85 48.30 49.89 48.95 49.57 51.55 49.67 49.56 50.58 50.74 50.01 51.30 50.72 52.86 53.51 53.11 55.13 55.09 57.65 53.58 54.91 52.87 53.75 52.70 51.45 52.54 52.91 53.72 54.12 54.79
49.07 49.52 49.02 48.46 49.28 48.70 48.91 49.39 49.48 48.40 48.41 54.05 54.22 56.63 54.21 49.05 50.38 49.83 50.42 50.53 50.10 51.36 52.78 54.42 52.97 51.93 51.60 53.10 55.62 57.57 58.11 58.78 58.34 56.70 55.58 56.45 54.90 52.77 50.13 52.70 52.27 50.28 52.78 52.84 53.88 56.17 55.86
48.97 48.40 48.22 48.37 48.79 48.40 48.91 49.15 49.57 48.78 47.70 52.46 52.82 52.85 50.51 48.02 49.90 49.38 49.71 50.87 50.55 51.96 51.86 53.05 54.63 53.54 57.37 59.47 58.12 57.16 56.03 55.73 56.56 56.98 58.26 56.03 56.19 54.81 50.61 52.59 45.60 54.01 57.38 56.97 54.73 55.56 57.06
48.14 47.81 48.05 48.20 48.18 48.24 49.30 49.00 49.17 49.30 48.25 51.91 52.99 51.65 50.74 47.55 50.44 50.03 50.47 50.66 52.23 53.22 52.35 52.72 54.34 58.08 59.14 56.45 52.23 50.75 50.65 51.59 52.34 53.79 55.76 56.85 54.62 50.95 48.57 47.94 51.75 53.46 55.81 55.71 54.38 54.73 58.30
47.95 47.64 48.05 47.76 48.33 48.61 49.11 48.77 48.92 49.31 48.33 51.11 52.64 52.93 51.11 47.76 48.04 49.84 49.36 51.01 50.33 51.01 51.57 52.48 56.02 58.69 56.80 53.06 50.89 46.74 45.74 49.00 48.88 50.26 54.62 54.91 56.54 51.40 50.15 46.23 44.95 53.80 57.96 61.26 59.31 53.55 60.86
48.07 47.63 47.75 47.46 48.27 48.57 48.65 48.38 48.79 48.65 48.38 48.91 52.13 53.18 50.63 47.01 50.88 49.76 47.54 49.23 51.60 51.54 50.85 53.43 53.96 53.56 56.03 50.51 48.35 48.18 47.38 51.99 47.92 48.86 50.25 50.35 51.42 47.98 47.83 47.58 49.96 57.01 62.54 63.45 52.10 56.45 66.56
48.29 47.68 47.45 47.34 47.82 47.85 48.00 48.28 48.55 48.44 48.40 48.88 51.21 52.55 49.17 48.22 49.80 48.99 50.10 50.63 51.25 51.29 49.08 53.07 52.09 52.26 52.84 48.71 48.34 49.06 49.07 50.58 50.07 52.67 52.60 51.63 49.08 48.27 48.81 47.07 45.04 60.62 61.19 56.98 63.96 67.00 67.70
48.90 47.71 47.22 47.19 47.98 48.02 47.54 47.98 48.40 47.91 48.35 48.63 50.93 53.75 51.80 46.55 48.52 51.04 51.02 51.94 52.68 53.41 51.91 54.39 52.16 54.45 53.38 50.44 51.37 51.95 50.44 52.02 51.55 47.40 55.12 51.30 54.09 52.92 52.74 51.30 63.35 64.17 65.27 66.84 67.55 66.75 67.58

GFSGBSN_sfc_wetblb_024.txt.gz
Wetbulb
56.34 56.02 56.54 56.64 56.58 56.51 56.76 56.57 56.65 56.52 56.54 56.65 56.59 56.54 56.67 56.87 57.16 57.45 57.47 57.83 58.05 58.01 58.48 59.35 60.12 60.18 61.76 63.61 63.53 63.95 70.31 67.89 64.44 64.36 59.99 60.08 58.38 58.37 56.99 60.89 60.90 60.18 59.60 59.87 61.12 61.21 61.09
55.89 55.87 56.17 56.11 56.14 56.09 56.15 56.17 56.30 56.20 56.03 55.92 56.00 56.05 56.30 56.54 56.97 57.32 57.40 57.36 57.43 57.74 58.69 60.33 61.18 59.52 63.58 57.22 67.90 63.58 64.51 62.35 64.43 60.62 60.63 60.74 59.79 60.65 59.25 59.33 59.28 61.41 60.92 60.44 61.20 61.38 61.56
55.22 55.42 55.35 55.61 55.58 55.61 55.67 55.71 55.79 55.58 55.45 55.28 55.58 55.91 56.08 55.87 55.97 56.57 56.96 56.76 56.78 57.84 59.82 60.81 60.68 62.43 60.29 57.85 66.79 66.45 64.14 62.77 62.07 60.72 60.17 62.08 62.38 59.40 59.51 58.41 61.40 60.52 57.47 59.36 60.52 60.70 58.64
55.00 54.97 54.84 54.85 54.97 54.96 55.22 55.28 55.19 54.95 54.97 54.85 54.96 55.10 55.68 55.60 55.77 55.91 56.11 56.00 56.37 58.57 61.32 61.26 60.81 63.64 58.95 62.81 65.80 64.97 64.53 62.27 62.15 61.16 62.23 63.43 62.85 59.89 58.56 60.84 58.81 56.68 57.71 54.47 58.81 60.65 59.77
54.38 54.44 54.31 54.49 54.56 54.56 54.51 54.32 54.29 54.37 54.27 54.24 54.48 54.56 54.96 55.08 55.41 55.49 55.10 55.25 56.54 60.65 62.53 62.44 64.56 63.03 57.04 64.46 59.14 64.33 64.01 60.84 60.68 60.51 62.44 62.84 60.84 58.42 58.39 54.44 53.00 54.90 51.79 53.83 56.55 59.30 57.97
54.04 53.86 53.86 54.12 54.43 54.07 53.83 53.71 53.69 53.81 53.89 54.21 54.37 54.53 54.53 54.69 54.83 54.71 54.24 54.83 60.13 58.87 63.16 65.06 64.33 58.82 60.06 57.82 59.36 62.86 64.27 62.15 58.76 58.57 58.83 58.75 57.82 55.31 54.89 53.05 47.74 50.74 51.21 52.25 54.15 56.24 57.77
54.81 54.04 53.53 53.96 53.71 53.50 53.36 53.27 53.25 53.41 53.52 53.94 54.10 54.14 54.16 54.22 54.30 53.89 55.07 60.17 61.16 60.86 60.03 57.03 57.87 55.16 57.45 61.12 61.97 61.40 63.16 60.08 58.94 56.55 53.85 57.50 53.44 51.11 52.79 54.74 54.99 53.71 53.00 51.81 53.94 55.85 55.15
53.64 53.23 53.44 53.60 53.12 52.89 52.69 52.71 52.87 53.02 53.16 53.10 53.48 53.71 53.85 53.65 53.44 53.38 54.49 58.26 57.93 58.04 53.69 58.91 59.01 59.03 59.04 61.42 57.13 58.74 62.46 56.65 56.09 52.79 55.13 55.38 51.17 54.81 56.18 55.21 53.39 52.50 51.38 51.47 54.31 55.74 56.00
52.98 52.80 53.58 52.87 52.54 52.23 52.08 52.16 52.33 52.53 52.76 52.80 53.17 53.21 53.19 52.93 52.64 56.40 57.47 59.39 60.85 59.86 53.22 54.64 56.94 56.30 57.38 58.67 57.02 56.69 59.97 57.24 55.62 53.20 54.16 52.63 54.00 56.49 54.41 52.45 51.41 51.94 51.31 52.07 52.48 55.40 56.33
53.10 52.71 52.62 52.54 52.10 51.92 51.64 51.70 52.01 52.09 52.55 52.84 52.78 52.95 52.48 51.51 53.55 58.71 55.53 61.31 60.17 60.47 49.88 51.73 53.97 55.93 56.79 57.29 54.80 60.97 60.63 57.63 56.56 53.66 54.63 54.24 56.18 54.42 53.53 51.53 53.30 50.84 55.55 53.55 52.54 51.94 49.28
52.95 53.00 52.74 52.38 51.82 51.40 51.05 51.47 51.65 51.93 52.47 52.37 52.51 52.41 52.01 51.16 54.16 55.41 59.55 60.38 59.81 58.94 42.57 52.95 54.34 59.73 57.28 54.87 56.29 57.70 61.57 58.19 55.31 55.39 56.18 53.57 53.82 53.25 51.76 52.67 54.34 52.35 56.78 55.51 53.51 52.16 51.92
52.14 52.06 52.53 52.23 51.81 50.88 51.07 51.76 51.93 52.34 52.30 52.20 51.89 51.83 51.19 56.84 56.47 56.86 58.22 58.68 58.12 48.11 42.04 51.06 54.04 53.04 52.80 53.95 55.12 57.65 58.52 59.51 60.01 57.25 56.84 55.94 58.24 55.93 54.75 55.34 55.22 56.04 54.71 54.03 53.73 52.06 47.52
51.49 51.34 51.21 51.10 50.77 50.71 51.25 51.90 51.80 51.82 51.87 51.51 51.07 50.66 50.67 56.25 55.41 58.63 57.56 55.05 46.64 43.69 51.61 50.54 51.18 53.03 51.92 51.46 52.77 55.37 55.68 54.60 53.86 51.63 52.31 54.48 54.49 55.92 56.68 54.07 56.27 54.71 52.70 47.33 46.59 46.88 46.96
51.06 50.89 50.44 50.54 50.31 50.92 51.53 51.44 51.68 51.47 51.18 50.90 50.06 50.09 54.28 55.31 57.63 58.48 56.19 51.02 43.93 48.27 49.07 53.24 53.00 52.34 49.89 52.07 51.87 53.57 54.29 53.09 55.88 55.26 52.46 50.48 48.73 54.30 56.36 54.32 53.10 53.86 53.19 48.18 44.06 44.53 47.18
50.67 50.09 50.17 50.37 50.37 51.26 51.07 51.40 51.26 51.01 50.62 50.23 49.15 58.11 56.44 58.32 57.75 57.27 52.28 45.76 46.99 50.44 52.00 51.44 51.79 50.10 49.96 51.69 52.05 52.18 53.43 53.43 55.34 55.93 52.39 51.24 51.51 56.32 56.67 56.74 55.26 52.66 50.61 53.87 50.25 50.93 47.18
50.29 50.10 50.04 49.99 51.65 51.34 51.13 51.15 50.97 50.99 50.28 49.51 52.10 56.15 56.32 58.65 58.48 54.85 49.39 45.59 49.86 52.82 52.22 51.42 48.58 50.52 48.84 50.32 50.34 51.58 52.71 55.18 54.72 56.79 57.55 55.28 50.77 54.63 55.52 56.07 55.76 54.26 55.40 49.97 51.62 45.70 44.44
50.40 50.06 49.77 51.13 51.21 51.00 51.11 50.88 50.70 50.43 49.51 49.47 53.83 53.34 58.27 59.31 57.55 50.94 44.09 47.22 50.44 53.46 52.16 50.20 49.61 50.50 50.93 50.91 51.40 50.55 52.09 54.89 56.23 56.26 57.66 55.78 53.96 53.01 55.18 53.16 52.25 52.73 52.43 52.52 51.43 51.31 46.12
50.14 49.89 49.77 50.75 50.68 50.96 50.71 50.80 50.32 49.41 48.67 52.37 56.07 49.96 58.00 56.74 47.95 48.63 45.84 48.70 51.13 52.45 52.83 51.35 52.12 52.17 51.64 52.80 51.93 51.15 51.37 53.73 56.71 56.86 54.32 56.32 53.79 50.80 51.95 55.66 56.37 54.57 53.36 53.92 49.83 50.37 51.66
49.73 49.84 50.15 50.00 50.43 50.62 50.60 50.52 49.96 49.21 48.85 49.58 54.38 54.10 57.46 54.97 44.06 46.03 49.28 48.97 51.02 51.47 51.18 50.62 49.94 52.25 53.06 52.16 50.38 51.65 52.83 54.82 55.85 55.01 55.18 57.11 52.79 48.36 50.48 53.49 55.23 52.80 53.56 53.44 54.27 56.57 52.56
49.60 49.98 50.00 49.68 49.98 50.75 50.47 50.54 49.97 49.54 49.00 50.17 55.10 48.81 51.16 51.37 51.57 49.61 49.86 48.91 49.35 51.99 51.03 52.19 51.39 52.57 52.17 51.08 53.09 53.13 52.09 53.46 53.98 53.84 61.19 60.25 55.70 52.21 47.58 50.56 53.59 52.43 53.52 54.12 53.12 50.50 51.12
49.43 49.81 50.22 49.38 49.66 50.30 50.58 50.58 50.33 49.79 48.96 51.18 55.10 53.26 54.03 46.36 46.44 49.00 51.20 51.58 49.32 49.10 50.82 52.40 50.58 50.93 50.81 50.19 50.91 50.89 53.04 53.60 53.20 58.66 55.91 56.25 53.12 53.46 52.71 53.12 53.53 53.14 53.22 53.26 51.92 52.70 50.44
49.55 49.94 49.55 49.02 49.62 49.75 50.51 50.71 50.24 49.35 48.22 53.49 51.24 52.17 54.50 52.24 53.30 51.01 48.83 49.79 49.28 50.65 51.16 49.75 49.85 51.27 51.62 50.38 52.14 51.21 52.25 53.53 52.14 54.15 54.53 57.07 53.36 53.80 51.50 53.64 53.33 51.39 52.33 52.80 52.43 52.87 53.52
49.19 48.80 48.89 48.89 49.34 49.02 50.24 50.54 50.26 49.03 49.02 54.18 54.23 55.14 53.43 50.77 50.74 50.26 49.58 49.35 49.71 52.17 52.35 53.78 52.92 51.62 50.97 52.70 55.53 57.38 58.01 58.80 58.77 56.55 56.79 56.96 55.00 53.31 48.95 53.01 52.63 49.71 51.70 52.40 53.26 54.24 53.51
48.71 48.74 48.63 48.67 48.89 49.02 49.88 50.24 50.32 49.34 48.34 50.47 53.73 51.72 50.15 47.89 50.81 48.96 50.04 51.34 50.70 52.29 51.81 53.29 55.15 54.62 57.45 60.35 58.92 57.43 55.84 55.87 56.58 57.14 58.40 56.83 58.04 55.53 50.44 52.79 44.74 52.81 56.41 56.27 55.33 55.70 55.55
48.76 48.65 48.33 48.50 48.74 49.41 49.62 49.24 50.19 49.61 48.89 49.96 53.80 51.32 50.94 47.69 50.36 50.66 50.79 50.73 52.48 53.59 52.49 54.20 54.64 58.41 59.30 56.98 53.08 50.54 50.05 50.96 51.66 53.20 55.27 57.27 55.40 51.38 48.83 47.94 51.09 52.84 55.23 55.22 54.99 54.65 62.09
48.67 48.68 48.24 48.43 48.41 49.23 49.08 49.36 49.30 49.73 48.73 50.35 53.29 53.39 51.18 48.13 48.30 50.78 50.30 51.78 50.34 51.39 52.09 53.46 56.48 58.85 57.15 53.18 51.05 46.83 44.99 48.14 47.64 49.67 53.86 54.04 59.66 51.77 49.98 45.67 44.05 53.47 55.81 60.28 60.42 52.56 64.23
48.61 48.64 48.22 48.18 48.17 49.21 48.24 48.95 49.43 49.30 48.93 48.99 52.16 54.00 51.04 47.40 50.77 50.25 48.43 49.25 52.81 51.82 50.75 53.31 53.55 53.90 55.68 49.90 46.33 45.94 46.00 51.02 47.36 48.48 50.28 50.54 51.68 48.59 48.11 46.37 49.10 55.90 56.88 61.48 49.81 56.71 65.92
48.65 48.88 48.31 47.97 48.05 49.11 48.49 48.28 48.91 49.12 48.98 49.16 51.81 54.55 49.49 48.06 50.42 51.05 50.62 50.05 51.75 51.83 49.38 52.84 52.97 52.92 51.91 47.18 46.99 47.97 48.14 50.66 50.45 53.54 52.43 51.14 49.20 47.85 49.75 46.86 44.03 56.65 59.67 57.53 63.92 67.15 66.89
49.09 49.43 48.26 47.99 47.79 48.61 48.82 48.21 48.41 48.73 48.98 49.23 50.93 54.43 53.68 47.39 48.21 51.88 51.46 52.07 52.08 53.98 51.82 53.46 52.89 53.02 54.32 50.33 51.01 50.04 47.97 51.16 54.33 47.83 55.98 50.11 54.71 52.03 53.18 51.92 64.52 65.31 65.27 67.07 67.36 66.82 67.37

GFSGBSN_sfc_wetblb_027.txt.gz
Wetbulb
56.33 56.28 56.71 56.57 56.34 56.44 56.44 56.62 56.67 56.54 56.12 56.17 56.25 56.30 56.55 56.58 56.82 57.21 57.40 57.50 57.83 57.81 58.45 59.47 60.86 61.28 57.96 57.78 62.09 64.28 70.06 67.83 63.84 61.86 61.16 58.65 56.20 54.62 52.87 55.90 59.65 57.14 59.36 59.50 58.31 58.97 58.43
55.57 55.55 55.98 55.83 55.82 55.83 55.91 55.95 56.01 55.90 55.77 55.73 55.67 55.83 55.90 55.93 56.36 56.82 57.11 57.39 57.09 57.35 58.30 60.18 61.35 59.64 59.19 55.58 63.61 61.70 61.33 60.26 61.05 61.13 57.63 58.32 57.73 57.85 55.45 55.83 55.69 58.73 58.15 57.84 58.50 59.16 61.37
54.91 54.83 55.47 55.45 55.44 55.50 55.40 55.38 55.50 55.45 55.38 55.29 55.23 55.29 55.61 55.58 55.75 56.19 56.62 56.84 56.67 57.14 58.65 60.99 61.75 60.92 58.04 56.20 63.82 61.61 61.77 59.63 60.97 57.97 56.02 59.72 59.86 56.23 55.64 53.49 58.61 58.02 54.10 55.94 57.09 58.05 57.51
54.37 54.73 54.75 55.10 55.25 54.93 54.79 54.96 54.91 54.93 54.84 54.79 54.85 54.85 54.95 55.10 55.52 55.75 56.04 55.76 56.21 56.94 59.37 62.58 62.42 59.75 56.88 61.98 61.05 63.97 62.19 59.97 59.48 57.95 56.99 60.43 59.93 56.73 54.16 56.12 55.61 52.57 51.44 48.45 56.39 58.46 57.83
54.38 54.00 54.28 54.49 54.21 54.29 54.13 54.04 54.16 54.14 54.26 54.23 54.13 54.27 54.43 54.67 55.26 55.46 55.03 54.82 56.24 57.51 60.64 63.19 59.73 57.45 56.31 63.15 58.10 60.99 61.72 59.67 58.63 57.39 56.91 61.48 56.72 53.30 54.37 49.80 46.73 48.44 44.94 48.61 54.68 58.16 56.67
54.19 53.93 54.38 53.95 53.90 53.85 53.48 53.46 53.64 53.74 53.90 54.02 54.06 54.26 54.55 54.65 54.75 54.69 54.14 55.35 58.39 58.00 59.96 63.11 62.77 55.24 58.96 57.55 57.46 58.66 61.52 61.23 58.05 56.00 56.10 56.55 53.31 49.39 49.38 45.93 41.52 45.10 46.54 48.94 52.58 56.38 55.64
53.49 54.22 53.58 53.64 53.39 53.28 53.04 53.02 53.26 53.39 53.51 53.55 53.87 53.93 54.16 54.30 54.26 53.95 52.11 52.59 55.84 56.16 54.60 55.12 54.79 54.69 57.23 59.93 60.07 58.48 61.43 59.71 57.55 53.91 48.88 53.46 47.64 45.48 48.56 49.77 50.74 50.14 48.52 47.98 52.05 54.29 51.46
53.45 53.26 53.63 53.09 52.68 52.80 52.46 52.54 52.72 52.93 52.95 52.91 53.19 53.56 53.75 53.83 53.38 53.36 51.26 51.46 53.93 53.44 48.79 55.41 56.86 59.24 59.64 59.56 56.00 57.73 60.96 55.00 54.01 49.75 51.50 49.12 46.65 51.40 53.80 54.27 51.11 49.05 47.30 47.14 50.68 54.88 51.89
53.54 53.16 53.14 52.78 52.43 52.15 51.93 52.09 52.14 52.33 52.53 52.92 53.09 53.21 53.24 52.99 52.66 53.02 52.37 54.34 58.07 54.80 47.90 52.46 54.39 54.08 56.16 55.88 55.69 55.68 57.16 56.23 52.99 50.80 50.61 47.34 51.63 55.23 54.76 51.06 49.42 46.28 45.43 47.51 48.91 52.01 51.09
53.12 53.19 53.52 52.79 52.05 51.72 51.80 51.97 51.99 52.03 52.40 52.86 52.93 52.84 52.54 51.51 51.40 52.56 53.97 57.43 56.34 56.16 43.68 49.04 49.79 53.08 55.26 55.01 52.06 57.93 59.09 56.75 53.45 50.55 51.39 50.07 54.23 54.22 52.46 51.50 48.94 43.49 52.91 52.68 51.04 47.36 42.82
52.12 52.16 51.88 51.82 51.73 51.58 51.53 51.84 51.84 51.92 52.41 52.39 52.47 52.33 51.91 50.89 48.93 50.25 54.62 55.17 55.28 53.87 37.51 52.07 50.75 57.02 53.79 51.71 53.49 54.49 59.49 55.81 51.51 51.84 51.60 50.64 51.73 51.22 51.09 50.48 51.42 48.97 54.27 52.98 52.35 46.64 44.12
51.77 51.50 51.23 51.35 51.16 51.20 51.65 52.03 52.14 52.30 52.14 52.05 51.94 51.78 51.35 52.98 50.68 53.09 55.04 54.61 53.53 43.39 38.94 50.02 52.28 50.27 49.08 50.60 52.27 54.93 55.99 56.06 55.91 53.07 54.46 52.60 56.57 54.04 52.22 53.31 53.00 54.12 51.41 50.60 48.73 44.33 39.16
51.17 50.77 50.87 50.97 50.90 51.61 51.88 51.76 51.93 51.76 51.70 51.70 51.17 50.66 49.44 52.91 51.90 54.23 54.79 51.30 41.42 38.55 49.96 47.28 47.98 49.24 47.70 47.78 49.46 51.54 53.09 50.18 47.75 45.07 46.74 52.72 52.59 53.62 54.99 50.76 52.43 51.55 44.48 39.38 38.79 38.96 39.78
50.68 50.57 50.55 50.42 52.14 51.49 51.53 51.86 51.74 51.47 51.33 51.00 50.16 50.01 51.23 53.05 53.17 54.00 52.54 45.38 38.11 46.57 45.86 50.49 50.29 50.09 47.72 48.81 48.81 50.03 51.54 49.19 51.75 50.97 47.76 46.16 45.07 51.30 53.96 50.50 48.97 48.73 45.99 40.27 35.42 36.95 41.42
50.88 50.70 50.39 51.13 51.70 51.40 51.38 51.51 51.45 51.28 50.91 50.30 49.41 53.55 52.63 54.49 55.01 53.56 47.69 39.50 42.60 48.15 50.52 49.57 49.26 47.82 46.84 49.20 48.91 48.23 49.47 50.45 52.32 52.23 46.26 45.90 48.33 56.34 54.62 54.35 52.04 47.76 43.73 48.69 42.14 41.92 40.57
50.61 50.48 50.39 50.90 51.17 51.44 51.28 51.49 51.32 51.05 50.31 49.77 48.30 50.82 53.92 56.33 55.81 50.98 44.49 41.67 46.08 50.95 51.11 49.97 46.07 48.76 47.85 47.57 46.44 46.54 48.13 52.16 52.65 54.54 53.32 49.63 46.62 51.50 54.35 53.95 53.80 48.23 50.90 42.79 43.00 37.68 36.86
50.37 50.16 50.49 51.13 51.11 51.26 51.17 51.09 50.95 50.62 49.89 49.71 50.79 50.72 54.65 57.02 54.91 47.67 40.43 42.84 47.94 51.41 51.86 48.91 46.64 47.25 48.80 48.48 48.39 46.48 47.67 52.73 54.18 53.86 53.76 50.17 48.28 49.80 54.61 48.53 47.80 47.97 45.13 46.74 43.86 42.51 37.69
50.07 50.52 50.75 51.02 50.85 51.34 50.88 50.95 50.55 49.84 48.87 50.39 52.47 48.42 57.01 55.14 45.16 45.65 41.75 46.43 48.11 48.85 51.10 49.86 50.18 49.11 48.72 50.19 49.19 47.91 48.37 53.01 54.71 54.81 50.19 52.03 48.08 44.15 48.59 53.40 54.37 51.54 48.53 48.16 42.98 41.66 43.85
50.01 50.35 50.70 50.30 50.68 51.03 50.77 50.90 50.45 49.60 48.93 45.23 48.32 53.12 56.07 53.15 40.10 41.94 45.57 46.33 47.61 47.20 48.23 49.92 49.00 50.34 50.02 48.93 47.50 52.29 52.00 52.73 53.78 53.87 50.09 51.65 45.73 41.08 44.08 48.40 51.41 49.27 50.15 46.94 46.38 45.72 41.40
49.75 50.13 50.60 49.57 50.47 50.58 50.92 51.07 50.57 49.88 49.29 46.90 48.77 47.65 50.25 50.21 48.46 44.99 45.11 47.10 47.48 50.47 49.94 50.88 50.02 50.70 48.77 48.92 49.12 49.13 50.69 52.62 53.17 53.34 60.48 56.27 49.73 46.89 41.82 45.99 49.18 48.30 50.94 50.80 46.89 41.75 42.59
49.88 49.83 49.38 49.40 50.20 50.37 51.27 51.03 50.69 50.09 49.39 47.53 51.56 50.63 51.39 43.83 44.76 45.26 46.21 47.90 47.08 47.18 50.50 50.82 49.27 49.06 47.53 44.92 48.62 47.25 50.93 51.48 52.49 56.00 52.65 51.79 45.78 47.43 49.73 50.72 50.35 50.17 51.26 52.02 48.42 48.33 44.32
49.38 49.38 49.29 49.38 49.57 50.41 51.13 50.90 50.77 49.78 48.80 49.59 48.76 47.14 49.30 48.09 51.38 46.91 47.46 45.30 48.08 49.23 49.39 47.50 47.92 49.88 48.99 45.67 47.68 48.94 51.88 51.51 51.32 51.93 49.59 50.37 45.74 46.72 48.02 51.81 51.13 50.07 51.49 51.99 50.80 50.09 48.36
49.27 49.30 49.14 49.21 49.16 50.17 50.89 50.94 50.58 49.37 48.57 49.42 52.33 51.06 48.82 48.27 48.47 47.60 47.46 48.84 48.69 50.06 51.78 52.11 50.52 50.63 49.41 52.88 54.72 53.62 52.60 53.13 52.07 50.08 52.02 49.50 47.65 45.33 42.90 50.94 49.97 45.38 49.87 51.17 51.24 53.29 51.66
49.25 49.08 48.87 49.08 48.80 49.68 49.70 50.68 50.39 49.71 48.42 46.16 50.06 49.81 46.67 44.42 46.75 47.68 49.51 50.29 49.71 51.25 51.10 54.26 54.38 53.13 54.81 57.04 56.78 54.03 50.77 51.58 52.64 52.28 53.47 50.77 50.18 48.55 45.18 48.00 39.57 48.82 53.92 53.88 53.75 57.27 56.73
48.99 48.95 48.89 48.93 48.62 49.57 49.13 49.55 50.43 50.06 49.19 46.42 49.90 49.02 47.05 43.08 47.13 47.22 48.21 49.63 51.89 52.99 51.66 53.78 54.90 55.41 55.81 53.98 49.59 46.28 45.57 46.13 49.19 51.27 49.82 51.84 48.68 44.16 42.08 42.10 47.53 50.53 53.33 53.06 51.97 54.01 57.97
49.19 48.91 49.09 48.76 48.50 49.23 49.55 49.23 49.44 50.08 49.07 47.60 48.74 51.84 47.69 44.45 45.12 48.18 45.97 48.73 47.48 48.59 50.61 52.99 56.79 55.89 54.11 49.35 47.25 41.39 40.58 44.44 44.41 46.14 48.45 48.28 51.35 46.57 43.10 40.07 38.91 48.07 55.97 58.67 57.13 50.83 57.45
49.32 48.96 49.33 48.57 48.41 49.02 49.77 49.32 49.51 49.60 49.05 47.30 48.06 52.39 47.53 44.27 48.78 48.55 44.59 44.85 49.68 48.45 47.07 51.63 52.64 51.71 53.50 45.89 43.09 41.46 41.95 47.97 43.14 43.96 43.61 43.98 44.94 43.81 43.14 41.31 45.18 51.79 53.87 57.84 44.45 49.49 57.40
49.25 49.00 49.52 48.71 48.59 48.46 49.17 49.45 49.23 49.21 49.36 47.56 47.60 51.72 48.24 43.72 45.69 49.43 49.34 46.37 46.56 48.35 44.80 48.45 49.93 50.37 48.86 43.73 43.35 43.55 43.17 45.52 45.36 46.90 47.39 45.15 43.07 41.51 42.60 40.79 39.84 60.73 59.69 54.73 54.33 56.50 62.14
49.00 49.18 49.24 48.49 48.65 48.48 48.32 48.76 49.25 49.06 48.91 48.84 47.53 51.20 53.13 47.61 44.85 49.54 49.79 50.47 49.13 50.77 48.32 48.63 48.73 50.44 53.46 49.53 47.79 47.81 44.58 46.30 45.86 42.90 51.70 45.57 47.94 45.20 45.37 44.98 60.40 62.82 61.76 62.61 63.01 62.14 63.03

GFSGBSN_sfc_wetblb_030.txt.gz
Wetbulb
55.57 56.30 56.40 56.06 56.15 56.12 56.12 56.01 56.09 56.02 56.04 56.00 56.11 56.13 56.20 56.30 56.51 56.82 57.22 57.28 57.62 57.57 57.86 58.43 60.43 61.25 56.24 54.67 59.89 65.16 68.51 66.86 60.51 60.00 59.85 59.12 54.68 53.75 51.09 52.98 57.96 56.31 57.58 58.38 59.32 58.23 57.35
54.98 55.60 55.83 55.92 55.80 55.55 55.60 55.62 55.72 55.68 55.57 55.63 55.59 55.44 55.55 55.70 56.12 56.53 56.85 57.24 57.09 57.14 57.65 58.56 61.04 60.60 56.54 52.87 62.34 62.53 57.47 58.22 58.29 58.97 58.64 56.29 55.44 56.29 53.41 52.77 52.85 56.30 56.53 56.25 56.24 57.58 59.72
54.79 55.19 54.97 55.17 55.11 55.20 55.07 55.11 55.19 55.16 55.12 55.05 55.03 54.99 55.03 55.48 55.74 56.10 56.67 56.65 56.61 57.02 57.51 58.35 61.94 60.73 56.72 50.41 60.67 59.03 58.18 56.25 58.35 58.52 54.26 55.45 57.79 54.90 54.03 52.11 55.29 54.42 52.90 54.14 55.35 56.03 56.98
54.07 54.21 54.52 54.28 54.64 54.52 54.39 54.62 54.59 54.62 54.58 54.66 54.43 54.58 54.68 55.10 55.27 55.61 55.89 55.92 56.29 57.18 58.25 59.13 62.62 58.08 51.31 61.91 59.72 61.05 59.14 59.46 59.26 56.76 55.21 55.72 57.49 54.58 53.23 54.20 52.36 49.92 48.67 46.36 53.32 56.52 57.04
54.17 54.27 53.80 54.15 53.89 53.84 53.76 53.72 53.90 54.08 54.00 54.04 54.04 53.95 54.18 54.42 54.90 55.29 54.98 54.88 56.64 58.37 58.93 60.80 57.52 55.63 54.39 63.76 56.94 59.53 60.17 58.64 57.37 56.21 55.24 58.21 54.67 51.01 52.33 47.96 45.03 45.18 42.65 45.47 49.70 56.87 56.07
53.88 53.84 53.55 53.59 53.67 53.54 53.35 53.24 53.52 53.61 53.58 53.56 53.72 54.00 54.25 54.43 54.57 54.64 54.21 55.18 56.41 57.81 58.95 60.78 62.18 50.14 55.73 56.70 56.21 56.82 60.09 60.28 57.41 54.27 53.92 54.60 51.11 47.45 46.50 44.35 39.94 42.88 43.86 46.38 49.63 54.28 53.97
53.72 53.76 53.72 53.40 53.28 53.02 52.87 52.94 53.11 53.04 53.11 53.19 53.68 53.80 54.06 54.13 54.17 53.86 51.29 49.10 49.83 49.99 51.76 51.80 51.76 52.30 55.34 59.15 57.72 55.29 59.11 58.58 56.20 52.55 46.22 49.74 46.61 43.82 46.41 47.48 48.74 47.80 45.91 45.59 49.10 54.46 51.51
54.07 54.02 53.78 52.91 52.76 52.55 52.59 52.67 52.69 52.71 52.85 52.91 52.89 53.20 53.57 53.68 53.19 53.29 49.26 48.08 51.57 50.49 46.22 52.60 54.88 55.76 58.27 59.06 54.24 56.06 59.25 53.69 52.99 48.08 49.87 46.49 44.16 49.18 51.63 51.57 49.34 48.15 45.78 44.69 48.29 53.12 49.98
52.79 52.74 52.42 52.44 52.33 52.17 52.23 52.44 52.02 52.37 52.41 52.46 52.62 53.22 53.08 52.72 52.53 51.12 48.16 50.06 54.10 52.22 44.27 49.70 52.06 51.41 52.63 55.52 54.47 54.10 55.84 54.36 51.47 48.79 48.37 45.88 48.44 53.79 52.70 50.23 47.77 43.71 43.26 45.14 46.01 50.03 48.27
52.22 52.06 51.77 52.06 51.99 51.88 51.88 51.63 51.75 52.04 52.02 52.39 52.83 52.88 52.41 51.31 49.59 47.46 49.12 52.63 50.66 51.62 40.51 46.02 48.22 51.09 52.41 53.48 50.46 57.42 56.27 55.34 52.09 48.68 50.42 48.45 51.56 51.48 50.77 50.38 47.98 41.26 49.13 51.97 50.09 45.39 41.32
51.62 51.42 51.56 51.27 51.63 52.02 51.41 51.58 51.72 51.73 52.29 52.54 52.50 52.40 52.00 51.43 44.70 45.48 51.58 52.50 51.22 50.57 32.59 51.17 47.93 53.79 51.61 50.65 51.56 52.79 57.19 54.85 50.82 50.34 50.31 48.87 50.85 49.63 49.81 49.86 49.59 46.09 52.03 50.47 50.02 44.12 41.93
50.95 51.16 51.28 51.17 51.59 51.25 51.28 51.90 52.10 52.06 52.21 52.13 52.05 51.76 51.22 49.41 46.32 48.80 52.26 49.95 49.48 41.10 35.34 47.83 50.00 48.19 47.21 48.13 50.82 52.87 54.52 55.43 55.46 52.06 50.70 50.67 54.89 52.99 50.86 52.01 50.77 53.10 49.21 47.20 45.25 41.44 37.72
51.15 51.05 50.94 51.30 51.14 51.12 51.29 51.92 52.02 51.88 51.74 51.70 51.12 50.76 48.92 49.92 46.23 49.55 49.24 47.17 38.66 35.11 46.92 44.38 44.68 46.80 45.48 45.39 47.86 49.17 51.45 49.18 46.51 43.48 44.38 50.06 51.60 52.71 53.93 49.58 50.54 48.67 42.20 36.77 36.94 37.48 37.46
51.05 51.11 50.91 50.99 50.65 50.95 51.52 51.83 51.79 51.42 51.36 51.20 50.26 50.28 48.25 49.31 47.70 48.79 46.87 42.29 33.65 43.10 42.89 47.00 45.94 44.91 43.99 45.29 45.64 47.46 49.47 46.72 48.70 48.28 45.08 43.54 43.91 50.63 53.10 49.15 47.15 45.42 43.04 37.83 33.92 34.63 38.92
50.96 50.81 50.74 50.69 50.48 51.38 51.61 51.67 51.63 51.24 50.97 50.37 49.54 46.42 46.40 48.42 50.17 47.99 43.48 35.43 37.61 43.86 48.56 47.08 46.04 43.40 43.55 46.20 46.19 45.51 47.23 47.53 49.41 48.58 44.17 43.44 45.82 53.80 53.63 51.99 50.29 45.61 42.66 45.67 40.53 38.73 38.04
50.66 50.78 50.97 50.86 50.89 51.46 51.27 51.55 51.49 51.15 50.43 49.70 43.52 44.41 45.44 51.71 50.31 45.33 40.10 37.60 40.81 48.19 48.66 46.97 42.56 44.91 42.12 45.21 43.17 42.50 44.65 49.83 50.64 51.54 50.11 46.78 42.99 49.16 53.15 52.32 51.28 47.21 48.14 41.23 38.89 34.98 34.66
50.44 50.74 50.88 50.82 50.65 51.25 51.21 51.44 51.16 50.79 49.93 49.80 45.97 45.23 50.17 51.58 48.21 42.20 36.08 37.47 43.31 48.17 48.63 45.22 43.35 44.12 45.77 46.10 45.34 41.13 43.60 49.72 52.44 52.27 50.15 46.84 44.44 46.99 50.78 46.53 46.20 46.22 43.85 42.19 40.73 38.79 35.49
50.23 50.48 50.99 50.18 50.68 51.04 51.16 51.36 50.74 49.97 49.08 45.67 42.71 43.39 51.16 50.18 40.10 37.26 36.70 41.40 45.59 45.25 46.59 45.06 46.46 45.46 45.90 47.65 46.26 46.92 44.08 47.49 52.39 52.35 48.04 48.09 44.21 41.95 45.64 51.33 52.28 47.37 45.40 42.24 40.17 38.26 39.17
50.16 50.44 49.91 49.91 50.44 50.93 51.18 50.96 50.44 49.56 49.03 42.85 39.44 45.37 50.67 47.74 34.95 34.58 39.00 43.52 44.25 43.58 44.19 44.09 45.44 48.00 47.15 46.37 44.19 48.52 48.96 51.04 53.63 51.50 49.76 48.39 41.88 39.12 42.81 45.38 49.19 47.08 48.14 43.99 41.80 39.70 38.68
49.93 49.78 49.78 49.78 50.01 51.12 51.25 50.98 50.48 49.91 49.46 42.59 41.82 43.19 43.65 44.03 40.37 38.80 36.64 41.63 43.63 49.91 46.30 46.34 45.83 47.04 44.98 44.35 45.85 44.93 47.10 51.81 51.88 51.84 58.96 53.69 44.02 42.12 39.24 42.26 46.50 45.74 48.18 48.40 43.73 39.49 39.46
49.65 49.71 49.63 49.73 49.46 51.08 51.22 51.06 50.88 50.09 49.75 44.01 43.65 44.28 43.08 39.26 39.78 39.71 38.65 41.93 41.97 42.85 47.98 46.53 44.33 45.65 42.95 39.83 43.12 46.19 48.88 50.18 52.19 54.12 50.05 47.54 43.52 44.42 45.30 48.72 48.37 48.45 48.99 49.40 46.12 45.41 42.72
49.65 49.71 49.50 49.54 49.28 50.59 50.90 50.84 50.84 49.87 49.12 45.05 41.30 40.06 41.98 41.01 44.03 43.39 40.60 40.18 43.04 44.40 45.70 44.74 44.50 47.19 48.60 45.14 45.27 45.04 47.99 47.47 47.08 51.30 45.46 45.57 42.92 44.28 43.20 50.73 49.92 48.63 50.13 50.34 49.89 51.24 47.32
49.52 49.65 49.65 49.35 49.22 49.73 50.50 50.76 50.66 49.46 46.68 41.19 44.29 44.96 42.27 41.75 41.10 41.29 43.56 45.48 46.46 46.52 48.66 52.35 50.84 47.64 48.21 49.84 50.89 50.25 47.44 47.93 48.44 48.10 48.04 47.82 43.46 40.92 38.21 48.05 48.68 43.25 47.99 48.97 51.07 53.52 50.84
49.37 49.50 49.53 49.33 49.17 49.56 50.25 50.54 50.51 49.78 48.09 40.74 41.73 42.23 39.75 38.99 41.03 41.66 44.06 45.92 48.30 48.69 49.19 51.68 51.29 48.31 51.56 54.14 53.43 50.76 47.67 48.37 48.72 47.06 50.23 47.86 46.16 45.32 42.27 45.25 36.89 47.14 52.55 56.79 54.64 55.30 54.99
49.56 49.31 49.42 49.52 49.16 49.17 50.22 49.95 50.59 49.99 49.37 41.48 42.15 41.65 39.14 36.06 41.70 42.74 43.57 44.73 47.95 47.16 48.33 50.55 52.25 51.83 50.84 49.92 45.87 42.10 42.28 42.66 45.75 46.88 46.19 50.05 44.20 41.12 39.86 38.55 43.97 48.18 54.09 52.43 50.77 51.64 55.98
49.69 49.40 49.27 49.91 49.20 49.00 49.73 50.04 49.95 50.07 49.18 42.30 42.24 44.17 39.70 36.92 38.53 43.78 41.27 42.53 40.91 41.18 44.69 49.30 52.30 51.55 50.40 44.87 42.94 38.08 36.48 39.98 40.96 43.51 45.42 45.79 45.89 42.37 39.26 36.88 36.81 45.71 54.34 57.17 55.92 47.37 56.72
49.48 49.38 49.22 49.83 49.05 49.12 49.07 49.20 49.80 49.80 49.04 44.19 41.82 43.98 39.83 35.72 40.00 41.57 39.51 39.43 42.84 43.48 42.95 44.43 46.61 48.71 48.01 40.96 39.13 37.48 38.24 43.34 39.33 38.90 38.41 38.73 39.15 40.01 38.70 37.77 42.28 49.64 51.85 55.85 43.20 44.66 56.67
49.96 49.45 49.17 49.60 48.82 49.17 49.03 48.98 49.13 49.72 49.49 45.79 42.26 44.69 42.55 35.78 38.01 42.94 44.30 39.76 40.63 42.19 41.35 44.99 46.15 46.94 46.84 40.26 39.05 38.55 38.15 40.51 39.63 41.19 40.68 40.87 38.12 38.05 38.56 37.30 37.14 57.82 58.67 49.56 52.31 56.49 56.76
49.78 49.11 49.28 48.75 48.78 49.28 48.93 48.77 48.66 48.95 49.07 48.14 39.59 44.61 46.32 41.54 39.98 42.90 46.24 47.28 45.15 44.38 43.45 42.55 44.05 42.78 49.00 47.37 45.98 44.61 40.50 41.67 39.95 37.96 45.42 41.18 43.24 41.49 41.53 41.22 53.74 57.33 57.29 58.15 58.09 58.75 59.40

GFSGBSN_sfc_wetblb_033.txt.gz
Wetbulb
55.25 55.38 55.69 55.82 55.81 55.74 55.61 55.69 55.79 55.72 55.78 55.87 55.83 55.71 55.84 56.17 56.48 56.73 57.03 57.19 57.21 57.58 57.58 57.90 58.62 61.20 54.74 52.22 57.53 65.19 70.17 65.71 58.63 58.60 58.16 57.02 53.46 52.91 50.27 51.13 53.54 55.03 56.39 57.02 58.16 56.83 56.13
54.78 54.82 54.73 55.06 55.12 55.19 55.23 55.29 55.37 55.32 55.27 55.27 55.21 55.17 55.30 55.61 55.88 56.14 56.44 56.79 57.02 57.20 57.50 57.66 59.00 61.20 54.26 47.67 60.77 61.75 56.14 56.43 56.23 57.28 57.18 56.57 53.75 54.97 52.52 51.81 51.31 54.24 53.97 54.69 54.85 56.47 57.74
54.19 54.56 54.21 54.44 54.70 54.59 54.73 54.77 54.87 54.85 54.80 54.80 54.80 54.72 54.87 55.13 55.28 55.58 56.21 56.44 56.54 57.03 57.48 57.76 59.15 60.38 54.89 48.18 59.67 57.74 54.32 54.27 56.77 56.98 55.00 54.46 55.80 53.63 53.50 51.27 53.42 52.34 50.85 53.01 53.33 54.30 54.82
54.27 53.89 53.96 54.17 54.01 54.11 54.03 54.11 54.48 54.47 54.35 54.39 54.30 54.47 54.43 54.67 54.89 55.23 55.34 55.70 56.02 57.09 58.23 58.64 60.99 57.66 52.31 57.90 57.49 58.32 56.54 57.93 57.96 56.28 55.08 55.15 55.16 52.70 52.24 53.36 50.93 47.86 46.85 45.22 51.90 53.78 54.20
53.51 53.74 53.75 53.96 53.81 53.66 53.63 53.60 53.79 53.64 53.74 53.72 53.84 53.92 53.98 54.10 54.65 54.86 54.65 54.77 56.04 58.08 58.58 60.61 56.24 55.75 51.81 61.84 56.75 58.30 58.78 57.32 56.99 56.35 54.29 57.13 53.71 49.50 50.84 46.45 44.34 44.35 41.34 43.57 47.07 52.66 54.22
53.69 53.60 53.62 53.60 53.70 53.18 53.25 53.29 53.27 53.31 53.43 53.39 53.57 53.73 53.90 54.14 54.43 54.18 54.08 55.06 55.86 57.50 58.09 60.11 60.64 46.35 51.92 54.42 56.83 57.09 59.08 59.02 56.62 53.62 52.20 52.28 48.73 46.03 44.79 43.85 39.33 41.62 41.99 43.52 45.73 51.91 52.56
53.73 53.99 53.00 53.13 53.08 52.88 52.92 53.08 52.83 52.91 53.03 53.16 53.18 53.61 53.85 53.86 53.88 53.83 51.31 48.29 49.20 47.62 49.59 48.56 48.25 48.57 53.08 57.18 57.67 53.62 57.87 57.04 54.62 51.25 44.82 47.56 45.31 41.86 44.02 46.20 47.25 46.34 44.38 43.70 46.59 50.78 51.09
52.65 52.47 52.48 52.58 52.59 52.50 52.69 52.37 52.35 52.62 52.68 52.78 52.60 53.16 53.34 53.45 53.04 53.08 48.71 48.24 49.07 47.04 44.58 50.43 52.15 54.01 56.07 57.15 53.88 54.32 57.94 53.11 51.62 46.40 48.33 45.35 41.79 46.91 49.77 49.70 48.25 46.47 43.29 43.21 46.32 50.49 48.44
51.89 51.83 52.08 51.92 52.23 52.38 52.02 51.97 52.08 52.26 52.37 52.41 52.45 52.89 53.08 52.76 52.29 48.92 45.61 48.08 50.38 48.36 43.42 47.93 50.36 49.83 50.46 54.27 52.39 53.72 55.59 53.56 49.70 47.20 46.55 43.80 47.04 51.58 50.98 49.14 47.61 42.84 41.71 43.44 44.93 47.64 47.44
51.52 51.61 51.76 51.69 51.90 51.60 51.68 51.72 51.97 52.10 52.06 52.04 52.37 52.56 52.53 51.22 47.89 45.13 47.60 50.34 50.18 47.33 38.89 43.65 46.57 49.66 50.96 53.00 49.76 57.20 56.42 55.03 52.11 48.39 48.24 46.69 50.17 50.13 49.01 48.88 47.26 41.76 47.11 49.37 48.24 44.63 40.81
51.51 51.61 51.50 51.65 51.44 51.47 51.55 51.39 51.64 51.80 52.06 52.27 52.11 52.05 51.77 50.95 44.67 44.98 48.35 49.58 48.26 48.01 31.15 46.51 46.00 51.91 48.14 50.77 50.12 51.51 55.63 53.09 49.68 48.84 47.31 46.61 48.72 49.65 49.20 48.91 48.59 46.07 49.73 48.52 47.93 42.46 39.82
51.19 51.36 50.96 51.46 51.11 51.28 51.38 51.32 51.64 51.70 52.11 52.09 52.15 51.59 51.22 47.98 43.90 48.07 49.87 46.96 48.12 39.35 32.95 45.15 47.83 45.84 46.09 46.70 49.23 51.31 52.12 54.03 53.58 49.88 48.59 48.18 52.44 52.19 51.30 51.58 49.75 50.67 47.38 44.90 42.50 39.70 36.68
51.13 50.83 50.91 50.82 50.62 50.77 51.18 51.70 52.02 52.04 51.88 51.67 51.29 50.87 49.02 48.61 42.92 46.91 46.68 46.12 37.13 33.39 44.03 43.45 42.33 42.97 43.23 44.27 46.46 47.91 48.71 47.21 45.59 41.33 41.60 48.15 49.40 52.60 53.07 48.16 48.97 46.58 41.00 35.41 35.75 35.91 36.65
50.91 50.68 50.71 51.15 50.52 50.67 51.16 51.73 51.92 51.68 51.57 51.12 50.27 50.52 48.45 48.30 45.67 46.52 45.56 42.22 30.99 39.59 41.03 45.60 44.88 42.36 43.03 43.54 44.19 45.91 46.68 45.28 48.08 47.55 43.99 41.93 42.60 50.58 52.24 47.94 45.71 43.38 41.74 36.64 32.40 33.12 37.12
50.71 50.43 50.72 50.82 50.33 50.93 51.37 51.86 51.65 51.26 51.04 50.43 49.67 44.62 44.95 47.13 49.01 45.39 42.91 34.05 36.10 40.89 46.84 45.28 44.66 41.24 40.44 43.88 44.34 43.95 44.06 45.07 48.00 48.30 43.22 42.20 44.66 52.07 52.62 51.36 49.64 44.96 41.33 42.84 37.88 34.86 36.24
50.39 50.63 50.63 50.24 50.22 50.97 51.42 51.81 51.46 51.24 50.55 49.93 42.88 43.99 43.64 48.99 48.13 43.79 39.29 35.99 38.89 45.31 46.54 44.90 40.49 42.45 40.06 42.39 42.14 41.60 42.49 47.39 48.03 50.06 48.70 45.70 41.73 47.06 51.79 50.62 49.37 46.44 46.66 40.04 37.28 33.96 32.60
50.27 50.46 50.14 50.12 50.14 50.69 50.86 51.50 51.20 50.83 49.91 48.86 44.77 44.08 48.41 48.63 45.23 41.04 34.74 35.83 41.02 45.89 46.19 43.29 40.99 41.43 42.57 43.56 42.41 39.90 42.03 46.59 50.21 49.56 48.38 45.00 42.94 44.94 48.72 45.37 45.24 44.81 42.17 39.97 38.84 37.12 34.20
50.27 49.99 50.01 49.94 50.16 50.91 50.95 51.07 50.83 50.03 49.08 43.91 41.94 41.20 48.16 45.91 38.46 33.32 35.12 39.29 44.47 42.79 43.89 43.12 43.59 42.89 42.71 44.43 43.16 44.23 41.87 46.09 50.92 50.23 46.71 46.44 42.27 40.08 44.54 48.85 49.87 46.18 43.04 40.95 38.34 37.84 36.41
50.03 50.03 49.88 49.96 49.71 50.78 50.72 50.91 50.58 49.76 48.96 42.97 38.79 41.43 49.51 45.62 35.15 33.29 36.53 40.94 43.23 41.63 41.95 41.49 42.46 45.54 44.79 42.73 42.18 46.25 47.23 50.02 50.71 49.31 46.99 46.65 40.94 38.30 41.74 44.42 46.81 46.50 45.51 42.71 39.47 37.63 36.24
49.81 49.96 49.90 49.75 49.60 49.92 50.89 50.77 50.53 49.86 49.67 42.19 42.18 42.37 42.42 41.86 37.90 37.12 35.29 38.26 41.12 47.91 45.12 44.45 43.34 43.73 42.85 42.95 44.90 44.36 46.28 50.24 50.81 52.43 58.42 51.74 40.24 41.39 39.90 41.84 45.17 44.30 46.82 45.60 41.26 38.06 37.73
49.69 49.81 49.71 49.67 49.52 49.69 50.95 50.85 50.82 50.00 49.68 43.88 43.43 41.41 41.64 38.59 38.98 38.93 37.91 39.15 39.55 40.21 45.48 45.39 41.50 43.77 41.91 38.61 42.74 44.38 48.28 50.33 52.09 54.86 48.00 46.07 42.53 41.78 42.88 47.12 47.40 46.92 47.67 47.59 43.53 42.61 41.08
49.73 49.82 49.84 49.58 49.32 49.62 51.05 50.89 50.83 49.68 48.94 44.02 39.60 38.60 40.95 38.63 40.70 41.09 39.96 37.79 40.27 41.42 42.22 43.66 41.38 47.47 46.42 43.79 44.59 42.77 44.96 45.62 45.74 50.06 44.29 44.11 42.26 42.10 41.84 48.76 48.66 47.29 48.34 48.99 49.21 50.53 46.66
49.64 49.52 49.69 49.86 49.43 49.37 50.54 51.09 50.64 49.51 45.75 39.90 41.83 43.69 41.29 40.57 38.79 37.43 38.79 40.50 42.44 44.18 46.31 51.28 49.71 47.32 46.55 48.42 50.01 48.37 47.95 46.23 47.24 46.79 47.95 46.63 41.78 39.67 37.36 46.67 46.08 40.89 46.84 48.54 51.53 52.43 49.99
49.64 49.54 49.50 49.73 49.62 49.26 49.60 50.46 50.74 49.72 47.91 40.28 40.15 41.01 39.58 38.26 39.27 39.49 42.68 44.59 44.63 44.70 46.48 51.02 49.58 46.00 49.89 51.94 50.68 48.15 45.22 44.54 47.44 45.80 47.54 45.94 44.73 42.05 39.97 41.22 34.61 44.34 55.19 54.17 53.57 54.28 53.58
49.56 49.69 49.29 49.76 49.90 49.37 49.45 49.56 50.35 50.15 49.55 39.91 39.87 39.85 37.62 35.22 40.26 41.25 42.08 41.96 45.74 44.96 47.24 49.62 49.68 49.00 47.89 48.24 44.37 41.51 41.93 43.21 45.43 46.03 46.65 46.24 42.67 39.14 38.71 37.14 41.73 49.00 54.11 50.46 48.67 50.57 55.46
49.58 49.59 49.14 49.63 49.95 49.50 49.62 49.32 49.39 50.16 49.38 40.73 40.15 41.75 38.00 36.10 38.52 42.87 41.05 40.88 38.82 40.81 43.09 47.37 50.05 48.11 46.89 43.09 42.20 35.37 35.70 39.54 40.43 44.20 43.70 44.41 43.08 41.72 37.73 35.87 35.70 43.94 52.13 56.70 52.43 42.72 56.44
49.74 49.46 49.23 49.40 49.42 49.35 49.52 49.52 49.34 49.65 49.00 43.12 40.50 41.02 38.23 35.13 37.94 40.21 39.34 39.39 39.39 39.69 39.77 43.10 45.40 48.00 46.34 40.73 38.65 37.06 38.06 42.96 39.86 38.67 38.67 37.03 37.39 37.86 38.02 36.64 41.08 47.44 53.75 54.13 40.05 41.79 55.87
50.39 49.31 48.98 49.25 48.72 49.34 49.42 49.41 49.24 49.26 49.14 45.04 40.56 41.98 41.31 36.12 37.72 41.01 44.06 40.32 40.46 39.45 37.85 42.12 44.61 47.21 47.34 39.71 39.15 37.82 36.95 39.06 38.00 39.30 38.55 38.72 36.22 35.53 36.36 35.03 35.37 57.27 57.98 47.50 48.20 53.90 55.23
50.25 49.23 48.92 48.81 48.48 49.10 49.16 49.09 48.83 48.75 48.82 46.91 36.68 41.58 42.84 39.58 39.37 42.33 45.19 46.84 44.93 44.05 40.66 41.30 43.43 42.79 46.92 45.15 43.21 42.10 39.35 39.48 37.35 36.22 43.83 40.41 41.47 38.82 39.80 39.72 52.63 55.70 55.52 56.51 55.22 56.73 57.09

GFSGBSN_sfc_wetblb_036.txt.gz
Wetbulb
54.90 54.89 55.02 55.44 55.35 55.23 55.33 55.37 55.51 55.46 55.48 55.65 55.70 55.54 55.70 55.81 56.18 56.50 56.76 56.94 57.56 57.50 57.71 57.86 58.53 59.73 55.56 49.74 54.88 65.45 68.81 66.06 56.34 57.33 56.46 55.31 52.26 51.80 49.34 50.24 51.55 53.30 54.58 55.20 56.01 56.90 56.09
54.54 54.27 54.67 54.78 54.98 54.84 54.74 55.02 55.10 55.06 55.14 55.10 55.14 55.28 55.22 55.45 55.66 55.95 56.38 56.82 56.90 57.21 57.27 57.85 58.57 60.21 51.88 43.77 58.16 61.72 55.01 54.34 55.23 56.09 55.91 55.13 52.59 53.45 51.06 50.96 49.99 51.88 51.93 52.32 52.95 55.61 55.85
54.13 53.88 54.12 54.35 54.45 54.54 54.45 54.53 54.82 54.56 54.68 54.74 54.68 54.78 54.86 54.97 55.26 55.41 55.97 56.45 56.37 56.72 57.22 58.08 58.80 59.90 52.20 47.06 58.01 56.96 53.19 52.61 54.97 55.58 54.29 53.53 53.60 52.43 52.24 50.44 51.96 50.28 48.79 50.92 51.76 52.98 53.41
53.65 53.83 53.79 53.83 53.98 53.89 54.07 54.17 54.31 54.10 54.20 54.14 54.20 54.36 54.32 54.32 54.68 54.95 55.42 55.44 55.62 57.01 58.37 58.57 59.63 56.92 51.44 55.68 57.34 55.88 54.56 55.48 56.37 55.33 54.87 55.93 53.27 51.44 50.68 52.50 49.38 46.84 45.76 43.64 49.56 52.33 53.27
54.01 53.83 53.47 53.50 53.80 53.62 53.67 53.65 53.54 53.64 53.70 53.76 53.78 53.82 54.01 53.99 54.37 54.76 54.61 54.63 56.21 57.78 58.85 60.90 55.32 54.78 50.00 59.47 55.66 56.46 57.58 56.14 55.75 54.73 53.71 56.28 52.44 48.35 49.54 45.89 43.26 43.48 40.48 42.26 46.12 51.14 51.64
53.12 53.00 53.38 53.54 53.44 53.26 53.30 53.17 53.15 53.37 53.52 53.39 53.43 53.61 53.88 54.16 54.47 54.14 53.82 54.99 55.32 57.29 57.91 59.82 59.10 44.89 48.85 52.56 55.59 55.53 57.04 58.12 55.51 52.99 51.00 51.35 47.51 45.38 44.44 43.08 39.36 40.98 41.08 42.31 43.56 48.71 51.13
52.25 52.50 52.80 53.08 52.98 53.01 52.88 52.63 52.87 53.00 53.10 53.16 53.16 53.34 53.69 53.92 53.96 53.61 51.17 48.35 47.79 47.13 47.21 46.65 45.76 45.12 50.37 55.75 56.85 52.52 56.86 56.33 53.42 50.22 43.85 46.21 43.51 40.67 42.45 44.86 45.60 44.96 42.94 42.68 44.90 47.99 49.02
51.86 52.18 52.11 52.41 52.41 52.22 52.52 52.33 52.52 52.70 52.72 52.77 52.77 53.03 53.16 53.41 53.21 53.17 47.63 46.73 46.31 45.62 43.21 48.71 49.19 51.70 54.02 54.74 51.45 53.38 56.38 52.65 50.05 45.65 46.57 44.10 40.07 45.20 48.20 47.88 46.74 45.31 42.81 41.79 45.31 48.37 47.54
51.96 52.03 52.04 52.06 52.03 52.11 52.21 51.95 52.14 52.33 52.39 52.35 52.46 52.89 53.15 52.70 52.39 47.38 44.08 46.99 48.35 44.54 41.70 46.55 48.68 48.60 49.56 52.82 50.60 51.55 53.82 51.66 48.20 45.46 44.68 41.95 44.49 49.78 48.81 47.16 46.36 42.21 40.26 41.90 44.28 46.40 45.87
51.58 51.58 51.46 51.93 51.60 51.79 52.10 51.83 52.10 52.23 52.20 52.29 52.33 52.59 52.64 51.46 46.39 44.71 46.15 47.60 47.14 45.79 36.99 41.70 44.32 48.21 49.72 52.08 49.08 55.99 55.03 53.86 50.38 47.46 46.80 44.85 48.68 48.96 47.85 46.40 46.69 40.69 46.08 47.42 46.91 44.18 40.88
50.94 51.09 51.27 51.21 51.31 51.43 51.62 51.70 51.93 52.04 52.44 52.32 52.27 52.09 51.86 51.22 42.68 44.56 47.13 46.74 45.59 45.05 30.19 44.04 44.45 49.88 46.69 49.11 49.25 50.47 54.98 52.38 48.97 47.63 46.16 45.07 47.03 46.82 46.87 48.03 47.54 45.87 47.91 47.81 46.08 41.24 39.10
51.20 50.98 50.98 51.43 50.95 51.12 51.22 51.50 51.90 52.13 52.28 52.22 52.10 51.48 51.38 46.88 42.64 45.63 47.74 45.28 46.40 37.34 31.54 42.75 45.94 43.75 44.43 45.76 47.79 50.32 50.82 52.41 52.19 48.51 47.98 47.13 50.69 49.62 49.55 50.69 48.72 49.17 46.06 43.60 40.94 38.76 36.38
50.94 50.71 50.83 51.12 50.67 50.90 51.05 51.94 52.19 52.07 52.05 51.83 51.45 50.85 48.90 48.33 41.33 45.17 45.06 44.59 36.80 31.96 41.32 41.70 40.47 41.71 40.68 41.83 45.26 46.66 47.24 45.74 44.16 39.81 39.43 46.05 47.68 50.60 51.74 47.03 47.47 45.36 40.48 35.15 34.87 34.76 35.27
50.76 50.73 50.72 50.40 50.52 50.57 50.93 51.88 51.96 51.78 51.56 51.20 50.29 50.34 48.93 48.24 45.38 44.90 44.50 41.38 29.38 37.80 38.43 43.59 43.77 41.28 41.58 43.42 43.30 45.30 45.18 43.36 45.37 44.48 41.43 40.44 40.52 48.22 50.46 47.85 44.68 41.98 40.55 36.00 31.46 32.18 36.42
50.63 50.57 50.36 50.29 50.39 50.97 50.72 51.44 51.63 51.25 51.13 50.41 49.25 44.14 44.13 46.27 48.90 44.71 42.59 33.60 35.03 37.63 44.85 43.60 43.05 39.66 39.06 42.09 43.27 42.51 42.67 42.62 45.67 46.50 41.74 40.53 42.76 51.06 51.58 49.64 48.91 44.31 40.67 41.33 36.17 33.76 35.51
50.67 50.33 50.35 50.20 50.18 51.02 50.50 51.44 51.45 51.29 50.67 49.84 41.97 44.58 44.87 47.84 47.63 42.84 38.38 35.15 36.60 42.59 44.39 42.68 38.54 40.29 38.38 41.29 39.85 40.27 41.31 44.67 45.42 48.28 46.71 43.90 41.06 45.89 50.25 49.14 48.71 46.59 45.87 40.06 36.92 33.81 31.89
50.27 50.25 50.12 50.22 49.86 50.57 51.25 51.15 51.14 50.86 50.04 49.13 43.69 42.26 46.21 45.73 42.83 40.41 34.23 33.61 38.96 44.32 44.12 41.49 39.37 39.59 40.61 41.10 40.19 37.95 40.84 44.94 47.91 46.75 47.05 43.54 43.22 44.64 46.42 44.87 43.58 43.58 41.08 38.38 37.78 36.04 33.57
49.93 50.10 49.95 50.03 49.84 50.44 51.10 50.97 50.79 49.94 49.14 43.17 39.60 39.49 47.87 43.39 37.67 32.09 34.17 37.26 43.33 41.05 42.18 40.53 41.79 41.19 40.71 42.05 41.12 39.35 41.35 43.79 48.83 47.99 45.62 45.49 42.20 40.23 43.97 47.92 49.05 45.70 42.66 40.80 37.92 36.12 35.04
49.93 50.07 50.05 49.91 49.80 50.57 51.12 50.94 50.52 49.44 49.22 42.59 38.07 40.27 48.06 44.15 34.38 32.57 35.13 39.13 41.12 40.16 40.27 39.29 40.71 43.18 42.92 40.17 38.95 44.26 45.26 48.09 48.78 48.18 45.77 45.68 39.87 37.44 41.14 43.35 46.39 45.78 44.17 40.98 38.18 37.37 36.37
49.80 49.97 49.93 49.78 49.61 50.33 51.21 51.07 50.62 49.76 49.69 41.59 41.96 39.98 41.61 39.91 35.96 35.01 35.32 37.11 38.57 44.97 42.74 42.61 41.19 41.89 40.69 39.49 41.55 42.34 45.56 48.80 50.45 50.07 58.52 50.99 38.78 40.09 38.33 41.86 44.63 43.97 45.75 43.94 40.82 38.61 37.43
49.90 49.93 49.82 49.82 49.65 49.80 51.01 51.33 50.81 49.95 49.43 42.64 41.12 38.39 39.43 37.39 37.31 38.19 36.40 38.56 38.26 38.38 42.58 42.90 39.79 41.36 40.34 37.54 41.10 43.28 46.96 48.61 50.78 53.32 46.46 45.15 41.19 40.07 41.86 45.17 46.24 46.46 46.71 45.79 43.44 42.30 41.88
49.90 49.84 49.65 49.65 49.76 49.67 50.52 51.08 50.95 49.78 48.51 41.69 38.35 37.05 38.80 36.95 39.12 38.58 37.99 38.71 39.65 40.60 39.53 40.71 40.47 42.91 43.43 42.43 43.65 42.88 44.14 44.61 45.52 49.23 43.49 43.57 41.01 42.21 42.00 47.93 48.15 47.18 48.09 47.58 48.35 46.26 45.58
49.80 49.82 49.74 49.28 49.71 49.69 49.61 49.99 50.67 49.51 45.57 39.21 39.89 40.70 38.65 39.52 39.19 38.08 37.76 40.82 41.31 41.33 44.77 46.47 49.36 45.33 45.04 47.53 48.71 46.76 46.68 44.69 45.86 46.18 48.12 44.95 41.84 39.89 38.33 46.71 45.47 41.38 46.30 48.53 50.80 51.99 49.62
49.67 49.63 49.54 49.52 49.75 49.74 49.82 49.65 50.43 49.74 47.11 42.17 38.16 38.78 37.30 35.90 38.99 40.35 42.23 43.03 43.68 43.65 42.12 48.66 48.26 44.23 47.29 50.61 49.56 46.30 44.43 42.71 45.22 45.11 46.71 45.24 43.61 40.44 40.25 40.79 34.11 42.92 53.72 52.79 52.33 53.66 53.17
49.96 49.46 49.50 49.39 49.93 49.65 49.86 49.76 49.99 49.97 49.15 39.36 38.55 38.57 35.71 33.70 39.72 41.50 42.02 41.72 44.19 43.83 44.16 46.76 48.40 47.27 45.94 45.68 42.61 40.56 40.31 41.32 42.98 43.90 44.82 45.14 42.50 39.81 38.57 35.76 41.09 50.02 53.21 50.13 48.18 48.70 54.32
50.30 49.44 49.45 49.22 49.65 49.55 49.73 49.67 49.61 49.87 48.95 40.14 38.86 39.35 36.40 33.80 37.22 42.65 40.82 40.88 37.96 39.16 43.05 45.11 48.22 47.41 44.79 41.63 40.76 34.69 35.33 36.93 38.41 40.36 41.46 43.70 43.57 42.21 38.07 36.68 36.33 44.61 51.18 55.65 50.13 41.31 55.18
50.75 49.73 49.23 48.95 49.08 49.25 49.69 49.60 49.48 49.37 48.92 41.16 39.63 39.12 36.66 33.09 36.38 38.81 38.98 39.01 39.38 38.88 40.29 41.42 44.12 46.65 44.47 38.53 36.76 36.36 37.21 41.27 37.75 36.61 36.82 38.06 38.07 39.19 38.90 37.90 41.34 46.96 52.47 54.75 40.88 42.02 54.15
51.06 50.21 48.81 48.63 48.69 48.86 49.44 49.37 49.28 49.27 48.91 42.73 38.88 40.13 39.69 34.98 36.98 40.58 42.75 40.19 39.85 38.07 37.22 41.41 43.28 46.03 46.04 38.10 37.51 36.51 37.30 38.94 38.35 38.84 37.42 38.00 38.32 37.76 37.89 35.64 35.70 56.17 56.83 46.31 47.75 53.86 55.75
51.19 50.37 48.75 48.75 48.52 48.78 49.17 49.08 49.08 48.86 48.68 44.83 34.90 39.57 40.90 38.42 37.74 40.81 43.65 46.58 44.49 43.11 39.30 39.56 43.78 43.31 45.81 43.08 42.01 40.65 38.53 38.71 35.72 35.41 42.95 39.60 40.49 39.56 40.57 39.25 50.34 54.72 54.83 57.94 56.00 55.95 56.30

GFSGBSN_sfc_wetblb_039.txt.gz
Wetbulb
54.47 54.80 55.02 55.11 55.12 55.11 55.10 55.45 55.38 55.44 55.48 55.59 55.57 55.76 55.88 55.97 56.14 56.30 56.67 56.85 57.60 57.48 57.53 57.95 58.79 59.53 60.57 53.44 56.88 67.05 70.03 67.23 59.42 60.30 59.46 57.96 56.82 56.48 55.20 55.36 56.13 57.37 57.55 58.05 59.44 60.06 61.55
54.25 54.37 54.59 54.59 54.79 54.64 54.92 55.08 55.18 55.10 55.05 55.13 55.11 55.26 55.28 55.51 55.74 56.09 56.52 56.88 56.98 57.23 57.19 57.90 58.83 59.51 56.30 49.17 60.59 64.51 57.48 57.56 58.42 60.43 58.97 57.68 56.19 57.18 55.79 55.26 54.94 55.23 54.93 55.58 56.96 58.44 59.83
53.81 54.10 53.96 54.27 54.26 54.37 54.51 54.78 54.67 54.60 54.68 54.74 54.78 54.76 54.88 54.99 55.28 55.60 56.17 56.36 56.34 56.85 57.64 58.43 58.87 60.71 56.23 52.31 61.03 60.70 57.28 57.80 59.29 60.10 58.40 57.84 56.82 56.38 56.72 55.40 55.79 54.59 54.41 56.57 57.00 57.70 58.07
53.77 53.66 54.13 54.25 54.11 53.95 54.15 54.19 54.25 54.33 54.36 54.36 54.40 54.42 54.52 54.77 54.88 55.14 55.54 55.51 55.73 57.18 59.28 58.91 59.09 60.98 53.89 58.82 61.98 58.37 58.23 60.07 60.75 60.41 59.60 59.77 57.49 56.55 56.08 56.29 53.90 52.37 53.34 52.26 53.71 55.45 56.69
53.18 53.47 53.64 53.91 53.82 53.72 53.59 53.52 53.70 53.87 53.82 53.84 53.84 54.03 54.17 54.35 54.70 54.88 54.69 54.73 56.48 58.05 60.49 61.12 61.42 59.61 51.68 60.94 58.70 60.53 61.32 60.23 60.07 59.88 58.25 57.69 57.67 54.46 54.93 53.46 53.01 51.98 51.14 49.53 51.60 55.90 54.82
52.79 52.75 53.09 53.53 53.44 53.09 53.19 53.19 53.16 53.47 53.37 53.45 53.55 53.73 54.00 54.16 54.51 54.46 53.94 55.35 56.99 58.89 59.88 60.96 60.16 52.23 52.79 54.86 58.19 58.09 60.89 60.99 59.29 56.83 55.06 56.20 54.94 54.10 53.45 52.92 49.74 49.53 48.91 49.53 49.84 52.80 54.60
52.50 52.20 52.42 52.64 52.92 52.78 52.87 52.79 52.95 53.10 53.18 53.28 53.24 53.56 53.95 54.06 54.08 53.71 53.84 54.69 53.98 53.66 53.28 53.51 51.66 49.16 50.88 57.66 58.56 56.76 60.38 60.11 57.28 55.57 51.24 52.11 50.90 48.68 51.38 51.72 50.85 50.34 49.47 48.67 51.23 51.80 53.19
52.17 51.98 52.18 52.46 52.47 52.52 52.77 52.66 52.68 52.82 53.05 52.99 53.05 53.24 53.50 53.71 53.43 53.43 52.06 51.54 50.31 50.35 49.32 52.01 51.53 52.31 54.85 56.88 53.20 56.09 60.14 56.09 54.73 51.44 51.35 50.47 48.11 50.39 51.33 51.24 50.82 50.59 49.39 49.33 51.40 52.70 53.56
51.76 51.71 51.68 51.87 51.94 52.02 52.10 52.18 52.39 52.49 52.43 52.47 52.74 53.11 53.24 53.00 52.59 52.16 50.14 51.65 52.55 51.07 48.89 50.29 51.66 51.73 53.04 55.77 53.14 54.18 57.98 55.92 53.25 50.58 50.01 47.92 49.71 51.34 50.80 50.82 50.39 50.23 49.05 48.79 50.75 52.06 51.78
51.55 51.17 51.34 51.73 51.54 51.87 51.80 52.09 52.28 52.34 52.16 52.28 52.35 52.74 52.55 51.66 50.14 49.25 51.63 52.40 51.39 51.54 45.89 46.24 48.16 51.33 53.68 54.98 52.39 57.17 58.49 56.88 53.74 50.54 50.24 49.86 51.55 51.03 51.14 50.65 51.35 49.88 51.33 49.74 50.92 51.24 48.71
51.20 51.05 51.16 51.37 51.35 51.57 51.51 51.91 52.05 51.97 51.99 52.06 52.02 51.84 51.79 51.39 48.26 48.69 51.35 51.84 51.43 50.02 37.73 46.41 48.70 53.75 52.75 52.77 53.03 54.22 57.54 56.78 53.04 51.56 51.14 48.81 50.81 50.81 50.01 51.89 52.44 51.18 51.84 52.25 50.54 50.69 49.60
50.95 50.96 51.28 51.16 51.22 51.26 51.53 51.62 51.62 51.87 52.02 52.00 51.78 51.43 51.14 48.98 48.04 50.33 51.27 50.82 52.30 44.50 37.13 45.50 49.43 48.59 50.07 51.52 51.37 53.60 54.96 57.00 56.32 52.05 51.69 51.29 53.49 52.70 52.45 52.54 51.92 52.58 51.34 50.48 50.54 49.72 46.08
50.98 51.10 50.94 50.86 50.85 51.19 51.07 51.59 51.81 51.90 51.90 51.70 51.27 50.79 49.62 50.35 47.33 50.39 50.51 52.53 44.23 38.80 45.68 44.95 46.27 48.32 47.92 48.60 49.80 51.34 52.07 51.79 50.09 47.87 47.96 49.91 50.97 54.04 54.94 51.55 52.26 51.73 50.85 46.30 44.13 44.91 44.62
50.69 50.66 50.67 50.79 50.67 50.69 51.39 51.49 51.65 51.80 51.64 51.22 50.32 49.95 50.66 50.76 50.84 50.30 51.59 48.52 38.90 42.19 42.85 46.61 47.68 47.41 46.04 47.87 49.39 49.33 50.24 49.43 50.68 50.53 48.17 46.39 45.47 52.13 54.67 53.85 51.95 50.29 50.91 46.59 39.93 42.83 46.37
50.48 50.56 50.58 50.49 50.32 50.48 51.54 51.50 51.61 51.45 51.15 50.45 49.18 49.42 49.58 50.94 51.72 51.37 50.18 42.38 41.98 42.29 46.72 45.99 47.26 45.56 45.67 46.54 47.77 48.95 49.10 48.86 51.19 52.19 48.73 48.14 47.48 53.67 54.18 53.26 53.61 50.03 49.81 50.37 47.20 45.37 46.31
50.41 50.50 50.47 50.35 50.14 50.65 51.43 51.63 51.67 51.26 50.71 49.94 47.49 50.69 50.43 51.50 52.17 49.92 47.21 40.95 43.27 44.43 47.18 46.40 43.80 45.78 44.72 46.37 45.91 47.14 47.32 49.76 49.37 52.11 54.47 51.49 47.61 51.58 52.54 53.22 52.38 52.65 51.83 48.30 49.18 43.79 41.76
50.11 50.37 50.35 50.15 50.05 50.69 51.43 51.48 51.16 50.82 50.00 48.89 49.61 49.25 50.81 51.10 48.98 48.96 42.97 42.58 43.01 46.47 46.99 45.43 44.99 44.80 45.78 45.68 45.97 45.47 46.95 48.92 50.62 50.98 53.09 52.81 50.82 50.20 51.90 51.00 50.73 49.76 49.69 48.24 49.83 47.49 45.36
50.00 50.13 50.13 49.99 49.88 50.61 51.39 51.27 50.87 49.86 49.45 46.00 47.69 46.99 53.39 48.72 46.08 41.34 42.78 42.46 43.62 44.94 46.13 45.14 46.36 46.08 46.02 46.33 46.68 46.04 46.56 48.60 51.17 52.49 49.80 53.10 51.44 48.17 49.49 52.05 51.74 51.35 51.66 52.42 47.95 46.22 47.18
49.98 50.05 49.83 50.07 49.84 50.37 51.22 51.05 50.62 49.59 49.40 46.02 48.38 49.37 54.01 50.16 41.35 41.84 42.63 42.93 44.28 44.22 44.54 44.49 44.77 47.17 47.91 46.72 45.71 49.29 48.46 51.49 52.13 52.21 52.04 52.58 50.24 45.99 48.21 50.62 51.52 51.13 49.68 49.74 50.68 51.56 48.59
49.77 49.96 49.79 49.81 50.09 50.45 50.76 51.02 50.47 49.83 49.64 48.23 49.54 46.38 49.22 47.60 44.44 44.52 43.70 43.65 43.20 46.65 45.21 46.77 45.99 47.21 46.59 46.64 49.65 49.34 50.59 52.04 53.74 52.54 58.19 57.06 51.22 50.78 45.54 49.15 51.63 49.98 49.68 49.91 51.85 49.63 48.47
49.71 49.79 49.68 49.51 49.94 49.98 50.11 50.95 50.72 49.93 49.26 48.21 46.59 45.19 45.20 44.98 45.16 45.95 45.49 44.19 43.05 43.17 46.51 47.38 47.44 46.83 46.93 46.38 48.74 50.22 52.04 53.17 53.85 55.48 52.80 55.51 52.01 50.05 49.94 49.43 50.57 51.21 50.42 49.30 50.58 52.43 50.06
49.68 49.71 49.75 49.68 49.85 49.98 50.56 50.85 50.74 49.69 48.24 48.04 45.47 45.21 45.69 45.25 44.56 44.44 42.65 44.16 43.16 44.93 45.43 45.30 46.20 48.49 47.68 47.11 50.80 49.86 51.01 52.20 52.51 54.18 51.94 51.87 50.86 51.06 49.24 50.10 51.01 49.90 51.41 51.09 51.33 50.51 51.77
49.60 49.69 49.52 49.68 49.98 50.07 50.32 50.80 50.49 49.44 47.66 46.50 46.15 46.99 45.09 43.22 44.06 44.60 43.92 43.46 43.90 45.41 48.77 48.21 48.87 50.92 49.74 49.88 53.75 54.05 54.25 51.99 52.99 53.71 54.26 52.12 50.62 49.90 47.28 50.44 50.45 48.27 51.40 52.98 55.13 55.73 54.91
49.71 49.39 49.54 49.62 49.82 50.03 50.05 50.07 50.58 49.51 47.36 45.40 44.82 44.70 45.02 43.73 44.82 44.81 43.99 44.40 43.96 46.13 45.94 49.59 51.93 51.30 51.87 53.58 54.84 53.08 51.94 51.38 52.11 52.85 54.11 52.69 51.12 50.07 47.13 48.92 42.87 51.29 57.92 56.57 55.79 56.59 57.67
49.78 49.63 49.37 49.39 49.69 49.83 49.96 49.98 50.14 49.99 48.66 46.67 45.29 44.81 44.22 43.18 44.46 44.65 44.42 44.15 45.12 47.95 47.31 49.18 51.64 52.11 52.28 52.45 51.18 49.88 49.77 49.91 50.10 51.32 52.31 53.96 52.11 47.28 47.04 44.63 48.96 53.33 55.85 55.69 54.14 53.95 59.07
50.26 49.73 49.07 48.92 49.22 49.58 49.83 49.88 49.86 49.88 48.78 46.74 45.50 45.00 44.44 42.33 43.62 44.11 43.53 43.73 41.44 43.34 48.49 49.65 52.26 53.21 51.64 51.87 50.01 46.01 43.94 46.10 45.99 48.14 50.81 52.79 53.94 51.13 47.68 45.10 43.66 52.39 54.48 59.01 55.33 49.79 58.67
50.75 49.99 48.73 48.60 48.68 49.03 49.52 49.68 49.73 49.54 48.71 46.14 46.20 45.21 44.48 42.15 44.47 44.48 44.12 42.93 43.36 42.80 44.57 46.57 48.44 50.38 52.17 49.56 47.84 46.34 45.38 47.34 45.01 45.64 46.84 48.99 49.32 48.41 48.37 46.70 48.49 52.56 57.34 59.04 47.74 50.77 57.98
50.97 50.53 48.78 48.13 48.39 48.73 49.31 49.43 49.38 49.22 48.84 45.77 44.94 45.10 45.15 43.79 44.70 44.92 45.19 44.60 44.28 43.31 41.10 45.80 48.73 50.47 50.95 46.71 47.27 46.38 46.48 46.64 46.61 46.68 46.40 46.80 46.82 47.17 47.09 46.15 43.96 58.68 60.16 52.47 55.95 60.72 60.94
51.06 50.89 49.22 48.16 48.18 48.25 48.79 49.20 49.02 48.75 48.52 46.38 42.49 44.63 45.27 44.83 44.82 46.07 48.08 48.89 47.60 46.98 44.22 44.42 47.44 47.76 48.69 49.67 49.13 48.15 47.58 48.09 45.23 45.20 50.86 47.34 50.13 49.60 49.10 49.16 56.62 59.46 60.08 62.39 62.34 61.36 61.15

GFSGBSN_sfc_wetblb_042.txt.gz
Wetbulb
55.07 55.31 55.14 55.31 55.26 55.29 55.58 55.68 55.74 55.61 55.73 55.84 56.02 55.94 56.13 56.44 56.55 56.85 57.09 57.37 57.84 57.79 58.01 58.26 59.11 59.95 64.14 58.62 61.47 68.19 70.32 67.16 61.95 62.41 60.49 60.06 59.16 59.04 58.64 59.44 59.42 60.00 59.96 60.28 61.22 61.12 62.23
54.52 54.48 54.76 54.75 54.94 54.85 55.19 55.29 55.12 55.36 55.32 55.48 55.38 55.52 55.56 55.86 56.23 56.91 57.12 57.14 57.02 57.37 57.73 58.40 59.42 59.01 60.30 53.59 62.62 65.76 60.14 59.59 61.49 61.97 60.25 60.35 59.14 60.18 59.24 58.69 58.99 58.88 58.90 59.21 60.46 60.85 61.81
54.05 54.42 54.36 54.36 54.51 54.81 54.72 54.76 54.88 54.95 54.90 55.00 55.02 55.02 55.23 55.45 55.77 56.35 56.79 56.63 56.62 57.21 58.11 59.50 59.97 63.16 57.84 54.82 62.60 64.59 61.40 60.53 62.36 62.07 60.11 60.35 60.25 59.10 59.79 58.73 59.15 58.60 58.25 59.87 59.43 59.45 59.91
53.59 53.61 54.08 54.30 54.32 54.14 54.17 54.42 54.56 54.59 54.53 54.61 54.67 54.71 54.89 55.14 55.40 55.63 56.08 55.87 56.05 57.60 59.47 60.03 59.62 63.97 55.07 60.44 64.10 62.29 63.61 62.07 63.53 63.73 62.13 61.49 60.81 59.59 58.87 59.88 58.51 58.49 58.89 55.84 57.49 56.90 58.71
53.16 53.20 53.38 53.74 53.74 53.76 53.83 53.92 54.04 54.07 54.17 54.27 54.36 54.48 54.63 55.06 55.32 55.38 55.03 55.05 56.93 58.72 60.38 61.34 64.54 60.82 53.61 62.30 59.23 62.46 63.72 60.42 61.59 62.36 61.40 60.25 60.44 58.25 57.71 57.11 57.01 58.05 55.05 53.71 54.84 57.05 57.00
52.93 52.79 52.94 53.43 53.32 53.53 53.65 53.43 53.59 53.76 53.84 53.75 53.94 54.18 54.54 54.85 54.83 54.68 54.44 55.51 58.23 58.31 61.58 64.20 62.78 56.95 55.91 55.66 59.79 60.93 63.39 62.79 59.98 59.38 57.98 58.31 57.89 55.89 56.70 56.51 52.20 54.06 54.14 54.23 53.40 55.29 55.95
52.55 52.39 52.96 52.93 53.00 52.98 53.12 53.10 53.32 53.44 53.51 53.42 53.63 54.07 54.30 54.38 54.36 54.17 56.83 59.81 57.89 58.14 57.94 55.63 55.27 53.78 53.62 58.98 60.85 60.34 62.20 60.77 59.87 57.63 53.65 55.78 53.18 51.52 55.38 57.29 55.61 55.11 54.78 53.66 54.33 55.42 55.36
52.12 52.19 52.07 52.75 52.55 52.73 52.76 52.80 53.03 53.11 53.17 53.29 53.35 53.41 53.64 53.81 53.54 53.56 56.97 56.71 54.27 54.29 52.58 56.10 55.79 56.03 57.44 58.30 55.19 58.58 61.94 57.01 56.06 53.07 54.42 52.84 50.68 53.65 54.42 54.42 54.03 54.80 54.46 53.84 54.15 56.19 55.81
51.97 51.64 52.05 52.23 52.23 52.45 52.43 52.53 52.73 52.78 52.94 52.96 53.08 53.38 53.36 53.12 52.97 58.14 56.93 55.20 56.66 56.00 53.29 53.36 54.73 54.28 55.19 57.06 54.55 56.48 59.46 57.67 54.77 52.70 52.65 50.98 52.48 53.77 52.67 53.12 53.08 54.91 54.32 52.88 52.57 55.13 56.05
51.57 51.45 51.60 51.82 51.87 52.09 52.22 52.26 52.28 52.50 52.52 52.75 52.86 52.96 52.65 51.55 54.00 54.44 56.73 56.80 56.97 56.78 50.01 50.39 51.15 53.81 55.32 56.62 53.31 58.93 60.25 57.56 54.81 52.14 52.02 51.68 53.63 52.62 52.72 52.02 53.92 51.92 54.93 53.08 52.53 52.31 50.82
51.44 51.72 51.84 51.49 51.76 51.92 52.05 51.69 51.88 52.21 52.22 52.63 52.45 52.45 51.93 51.18 55.22 53.73 56.13 56.71 57.71 56.11 41.67 49.19 50.91 56.78 55.53 54.14 55.31 56.13 60.44 58.33 54.06 53.08 52.78 50.53 51.45 51.76 52.15 52.52 54.20 52.84 54.32 53.83 53.75 52.64 52.10
51.38 51.24 51.34 51.36 51.44 51.55 51.52 51.73 51.96 51.97 52.20 52.33 52.00 51.64 51.58 54.84 55.88 54.26 55.87 56.30 57.07 48.12 40.87 48.11 52.19 51.01 51.73 53.57 53.68 56.29 56.71 59.10 58.17 54.36 54.02 53.15 55.75 54.69 54.01 55.69 55.74 56.14 54.88 54.60 53.98 52.19 47.84
51.25 51.12 51.22 51.28 51.19 51.04 51.29 52.07 52.11 52.14 52.21 52.23 51.61 51.03 51.48 55.58 53.38 55.74 55.81 56.05 47.60 43.54 48.58 47.43 49.25 51.20 50.91 50.75 51.81 53.61 53.84 53.76 52.15 50.15 50.65 52.15 52.87 54.95 56.20 54.43 55.59 55.42 53.08 47.85 46.77 46.83 47.78
50.82 50.92 51.09 51.00 50.89 50.98 51.25 52.05 52.16 52.12 51.94 51.52 50.64 50.24 53.67 56.00 57.93 56.83 56.06 51.49 43.55 46.32 46.66 49.70 49.76 50.30 49.06 50.59 51.13 51.74 52.72 51.65 54.25 53.14 51.58 48.74 46.93 53.25 56.42 55.53 53.18 53.82 53.18 48.41 43.44 45.20 48.10
50.47 50.75 50.89 50.64 50.66 50.68 51.80 52.14 51.97 51.77 51.35 50.86 49.78 57.21 57.56 58.02 57.35 57.45 53.44 45.82 45.63 46.67 48.66 48.15 49.41 47.82 49.10 50.31 49.72 51.11 51.19 51.42 53.43 54.37 50.41 49.35 48.52 54.66 55.78 56.48 56.64 53.80 51.27 54.47 50.04 51.39 47.29
50.37 50.52 50.66 50.57 50.43 50.72 51.59 51.97 51.95 51.61 51.13 50.50 55.07 58.57 55.91 56.66 58.67 54.17 50.44 45.45 47.81 48.14 49.73 49.36 46.57 48.64 47.44 49.29 48.82 49.87 50.23 52.33 51.88 54.51 56.23 53.52 49.43 53.57 55.25 56.53 55.80 55.76 56.72 49.84 50.63 45.66 44.42
50.11 50.13 50.30 50.47 50.47 50.53 51.40 51.76 51.40 51.14 50.39 49.87 56.00 53.17 53.94 56.82 55.00 51.93 46.12 47.54 47.84 49.19 49.51 47.96 48.03 47.58 48.78 49.00 50.06 49.65 50.08 51.55 53.28 53.16 55.54 54.32 53.45 52.51 55.02 54.15 53.43 53.75 53.15 53.74 53.61 51.91 47.32
50.04 50.28 49.94 50.26 50.43 50.89 51.32 51.27 51.05 50.09 49.54 49.49 55.23 50.31 55.91 56.52 48.40 50.06 47.32 47.84 44.88 47.90 49.21 48.39 48.76 48.82 48.32 49.31 49.58 50.26 49.78 51.59 53.53 54.83 52.31 55.24 53.76 50.16 51.33 55.62 55.90 55.77 54.88 55.02 50.33 50.27 50.51
50.10 50.13 49.77 50.00 50.30 50.89 51.44 51.24 50.65 49.64 49.40 54.08 55.90 53.89 56.13 55.04 44.68 45.90 47.85 46.70 47.20 46.62 47.17 47.26 46.83 48.86 50.64 49.68 48.74 50.90 52.30 53.21 53.43 54.01 53.45 55.59 52.47 49.13 50.06 53.43 55.15 53.62 54.60 56.01 56.51 55.94 51.63
49.96 50.00 50.02 50.00 50.45 50.91 51.48 51.35 50.71 50.02 49.81 52.96 55.99 48.89 50.71 52.22 52.82 48.16 46.42 46.44 45.65 48.21 47.06 48.05 48.16 49.20 48.90 48.84 51.98 51.23 52.50 53.77 55.49 54.53 58.11 59.30 53.67 51.99 47.70 51.23 54.12 52.97 53.39 54.39 54.89 51.03 52.40
49.93 49.89 49.98 49.93 50.23 50.53 51.42 51.24 50.79 50.18 49.74 52.96 55.42 51.40 51.24 46.80 47.93 50.47 50.02 48.27 45.56 45.16 48.27 49.77 48.46 48.21 48.42 48.16 49.93 50.98 54.14 55.14 56.07 56.38 55.63 56.04 52.49 53.41 52.96 53.16 52.91 53.64 53.18 52.84 53.38 54.00 51.62
49.63 49.85 49.72 49.96 50.32 50.40 50.70 51.07 50.83 49.86 48.90 54.91 52.70 51.89 53.11 52.94 50.77 50.30 46.12 48.93 47.58 48.40 48.44 46.88 47.59 49.61 50.32 49.01 50.97 52.15 53.96 55.44 54.67 56.54 56.35 57.17 53.34 53.83 51.32 52.38 52.43 51.55 53.44 53.95 53.89 54.49 54.22
49.48 49.63 49.55 49.81 50.10 50.34 50.42 50.45 50.65 49.39 49.63 52.96 54.19 54.80 51.71 46.91 50.48 49.39 49.75 48.96 48.02 49.26 50.99 50.53 50.18 50.34 51.23 52.92 53.82 56.92 58.06 57.49 58.54 57.40 56.64 56.38 54.01 53.41 48.54 52.36 52.09 49.46 53.06 53.89 54.99 56.19 55.47
49.66 49.59 49.32 49.40 49.76 50.28 50.34 50.38 50.32 49.45 48.93 53.79 51.49 52.14 50.32 49.35 50.40 50.67 48.05 48.59 48.94 49.96 49.64 52.64 54.30 53.46 55.50 57.84 58.41 58.61 56.60 56.46 56.74 58.29 60.50 57.12 56.75 54.85 49.65 53.11 45.24 54.37 58.15 56.86 56.55 57.53 59.03
50.11 49.99 49.19 49.12 49.33 50.00 50.28 50.28 50.09 49.81 48.65 52.82 53.07 51.17 49.67 48.09 50.63 49.16 48.66 48.77 51.09 52.63 51.59 51.69 54.66 56.36 58.12 55.92 54.46 53.21 52.89 53.36 54.43 55.95 57.76 59.43 57.08 52.72 50.37 49.30 52.92 55.11 58.02 57.45 56.87 56.20 60.30
50.73 50.35 48.84 48.75 49.01 49.57 50.08 50.19 49.89 49.71 48.47 54.15 51.37 53.19 50.94 46.69 48.05 48.69 48.62 48.91 49.26 51.21 52.57 53.52 56.34 58.86 56.45 55.46 53.37 49.20 46.65 50.11 50.44 52.66 56.90 58.10 59.93 54.58 52.34 48.15 46.09 55.66 58.89 61.03 59.55 53.09 61.07
50.93 50.66 49.24 48.24 48.52 49.19 49.83 50.06 49.89 49.66 48.83 51.39 51.26 52.06 50.92 46.93 50.12 49.49 48.96 47.77 49.28 50.57 51.95 53.40 51.49 55.11 57.78 53.15 50.16 48.52 47.53 51.75 47.76 49.41 51.62 53.64 54.23 51.19 51.32 50.02 52.04 58.08 59.97 60.03 50.79 54.44 61.96
51.04 51.02 49.89 48.14 48.20 48.85 49.34 49.61 49.53 49.19 48.74 49.06 51.33 50.99 49.45 48.71 49.11 48.81 48.83 48.99 49.35 50.25 48.68 51.32 52.56 54.00 55.66 51.15 50.25 50.82 49.21 51.03 51.12 52.02 51.75 51.79 50.34 50.55 52.70 49.35 47.33 60.31 60.35 55.24 60.91 64.72 64.30
51.25 51.05 50.25 48.25 48.29 48.30 48.95 49.32 49.13 48.65 48.61 48.58 49.41 51.51 51.70 48.21 49.41 52.01 51.56 52.43 51.07 50.39 48.75 51.39 51.77 50.98 51.68 53.00 54.17 52.32 50.86 51.89 51.99 47.31 54.69 50.35 55.05 52.73 53.74 53.60 60.48 63.07 63.60 65.08 65.39 64.13 64.77

GFSGBSN_sfc_wetblb_045.txt.gz
Wetbulb
55.16 55.67 55.64 55.71 55.72 55.75 55.83 55.87 56.01 56.17 56.06 56.21 56.50 56.52 56.65 56.71 57.02 57.27 57.53 58.16 58.25 58.18 58.47 59.01 59.63 60.55 63.47 62.08 62.88 67.30 70.70 66.99 63.23 63.64 61.61 60.88 60.36 61.01 59.32 61.39 61.51 61.66 61.49 61.67 61.99 61.41 61.99
55.17 55.00 55.35 55.30 55.38 55.41 55.32 55.56 55.66 55.78 55.77 55.77 55.81 55.91 55.95 56.22 57.01 57.38 57.54 57.52 57.54 57.75 58.36 59.18 60.36 59.69 64.29 55.87 66.22 66.62 62.29 61.88 62.94 62.65 61.33 61.55 60.90 62.55 60.81 60.85 60.95 62.41 61.26 60.83 61.31 61.51 61.59
54.18 54.71 54.93 54.90 55.03 54.87 55.05 55.11 55.32 55.35 55.32 55.40 55.37 55.57 55.94 55.96 56.23 56.85 57.08 57.04 57.18 57.53 58.35 59.81 61.58 63.90 59.37 57.10 62.78 66.46 63.71 62.16 63.16 63.03 60.92 61.64 62.02 60.90 62.47 60.78 63.15 62.07 59.62 60.63 60.93 60.36 59.79
53.68 53.83 54.18 54.23 54.61 54.62 54.67 54.75 54.87 54.94 55.06 55.00 55.10 55.24 55.68 55.68 55.98 56.46 56.62 56.20 56.56 57.79 59.86 61.74 60.93 64.22 58.31 61.41 63.67 63.17 64.70 62.71 63.59 63.88 62.99 63.33 63.03 61.04 61.03 63.24 61.18 59.92 59.89 56.33 59.31 58.57 59.31
53.54 53.79 53.78 54.36 54.11 54.07 54.19 54.31 54.49 54.50 54.62 54.66 54.76 54.90 55.30 55.54 55.68 55.80 55.35 55.48 56.63 59.53 60.77 63.25 65.21 63.96 56.23 60.94 58.79 61.91 63.99 61.11 62.03 62.69 63.12 62.11 61.57 59.58 61.11 58.31 57.81 58.81 54.59 55.87 56.61 58.47 57.29
53.32 53.21 53.41 53.88 53.67 53.68 53.75 53.80 54.01 54.15 54.25 54.55 54.79 54.95 55.03 55.03 55.25 54.98 54.76 54.98 60.11 58.98 62.12 65.49 63.91 57.86 58.10 55.53 60.07 61.37 63.30 62.46 60.53 60.38 59.31 58.75 58.01 56.61 57.86 57.10 52.77 55.13 55.39 57.33 54.78 57.06 56.74
52.63 52.78 53.03 53.56 53.33 53.53 53.41 53.62 53.67 53.98 53.88 54.06 54.48 54.66 54.62 54.60 54.68 54.17 56.65 62.14 59.73 60.41 60.31 56.07 57.62 56.21 55.66 59.05 61.60 59.73 62.08 60.51 60.23 59.03 55.06 57.56 54.01 52.59 55.41 57.82 57.76 56.81 56.55 55.37 56.61 57.27 56.20
52.58 52.52 52.48 52.77 52.88 53.10 53.16 53.36 53.36 53.46 53.60 53.70 53.93 54.25 54.39 54.25 53.80 53.84 57.06 58.45 57.16 56.79 53.93 57.74 57.21 57.38 58.27 59.09 56.25 58.65 62.09 57.61 56.77 54.03 55.92 54.76 51.81 55.17 56.41 57.05 56.81 55.99 55.12 54.94 56.84 56.70 56.65
52.27 52.17 52.42 52.62 52.61 52.78 52.92 52.84 52.65 52.92 53.10 53.16 53.45 53.80 53.72 53.33 53.17 57.48 59.10 57.98 60.06 59.74 54.18 55.09 56.89 56.10 56.76 57.87 55.32 56.93 59.75 58.57 55.58 53.87 54.01 52.72 53.78 55.70 54.03 54.49 54.81 54.76 54.48 55.14 54.50 56.35 57.34
52.11 52.37 52.30 52.25 52.35 52.45 52.46 52.48 52.69 52.79 52.81 53.20 53.31 53.53 53.05 51.74 54.23 57.28 57.65 59.98 60.56 60.06 50.79 52.36 53.16 55.24 56.69 57.21 54.04 59.33 60.78 58.39 55.94 53.32 54.01 53.41 55.56 53.13 52.69 52.51 54.99 53.00 56.60 55.63 53.99 53.29 50.58
51.87 51.91 52.09 52.16 52.20 52.05 52.21 52.29 52.46 52.58 52.85 53.06 53.18 52.98 52.56 51.39 55.88 55.06 59.44 59.83 60.58 59.56 43.61 52.72 53.34 58.98 57.60 54.44 56.08 56.08 60.93 58.57 54.74 53.91 54.27 52.40 52.61 52.20 51.92 53.16 54.88 53.00 56.25 54.60 54.38 53.56 53.48
51.78 51.84 51.89 51.99 51.94 51.94 51.92 52.21 52.64 52.94 52.88 52.88 52.76 52.29 51.86 57.70 58.95 57.53 58.47 59.47 59.38 49.44 43.17 49.80 53.51 52.19 52.89 54.37 54.78 57.19 57.01 59.48 58.76 55.55 55.50 53.99 56.38 54.93 53.83 55.05 55.40 56.40 55.16 54.97 55.09 53.42 49.07
51.34 51.41 51.72 51.63 51.58 51.62 51.66 52.56 52.89 52.77 52.73 52.45 52.21 51.57 52.18 57.50 56.01 58.14 58.73 57.10 49.01 45.15 52.07 49.49 50.62 52.74 52.48 52.11 52.68 54.66 54.36 53.80 52.89 51.28 51.78 53.07 53.12 55.31 56.03 54.05 56.71 55.11 53.40 48.91 48.23 47.81 47.15
51.05 51.24 51.36 51.29 51.43 51.31 51.71 52.34 52.69 52.50 52.26 52.02 51.12 50.82 56.07 56.78 59.42 58.50 57.95 52.37 45.19 49.65 50.25 52.21 51.76 52.47 50.69 52.72 52.37 52.74 53.23 52.07 54.89 54.16 51.80 50.13 48.18 53.21 56.18 54.84 54.14 53.28 53.36 49.55 45.96 46.19 48.65
50.79 50.99 51.08 51.14 51.29 51.45 51.96 52.27 52.42 52.15 51.69 51.28 49.83 58.76 58.31 59.15 58.78 58.50 54.46 47.12 48.04 50.76 51.21 49.50 51.43 49.41 50.53 51.99 52.03 52.17 52.06 52.66 54.35 54.95 51.64 50.55 50.44 55.33 55.66 56.73 56.49 55.03 51.61 55.13 51.54 52.60 49.48
50.72 50.86 50.81 51.10 51.16 51.73 51.88 52.19 52.13 51.90 51.32 50.67 55.76 56.84 57.16 59.07 59.58 55.60 51.20 46.62 50.71 51.75 51.37 51.27 48.56 50.76 48.78 50.93 50.57 51.14 51.73 53.78 53.66 55.72 56.85 54.27 50.65 54.25 55.17 57.05 57.20 56.15 57.77 50.94 51.49 46.40 45.88
50.64 50.79 50.85 50.76 51.18 51.62 52.00 52.07 51.90 51.47 50.85 50.08 56.24 54.58 57.31 58.50 56.88 51.87 47.89 50.11 51.43 52.76 51.84 50.19 49.90 49.90 50.68 50.88 51.58 50.95 51.21 53.54 54.53 54.68 56.25 54.93 53.93 53.18 55.54 54.34 53.40 53.79 53.26 54.65 53.89 52.80 48.22
50.51 50.66 50.66 50.57 51.35 51.71 51.98 51.92 51.56 50.53 49.73 49.61 55.79 51.29 57.12 57.19 48.75 50.73 49.79 52.56 45.27 50.87 51.89 50.99 51.07 51.40 50.79 51.63 51.37 51.80 51.25 52.96 55.62 55.26 52.40 55.51 53.65 50.86 53.17 56.38 57.06 56.45 55.65 54.79 50.76 51.13 52.43
50.55 50.46 50.65 50.61 51.39 51.56 51.88 51.80 51.31 50.26 49.96 55.54 55.54 55.28 57.10 55.58 46.72 48.62 51.73 50.23 50.78 49.92 49.90 49.86 49.42 51.02 52.25 51.42 49.97 52.41 52.94 55.12 54.55 54.30 54.08 55.59 52.54 49.86 50.96 53.97 56.00 54.37 55.91 56.75 56.75 56.35 52.80
50.44 50.44 50.50 50.63 50.91 51.37 51.92 51.86 51.34 50.58 50.43 53.73 56.50 49.84 52.05 52.00 52.76 51.11 49.74 49.17 48.69 50.81 49.81 50.32 49.97 51.37 50.47 50.57 53.09 52.36 52.64 55.00 55.03 54.77 60.63 60.37 54.67 52.56 48.96 51.78 54.57 53.41 53.43 54.71 54.64 52.30 52.59
50.29 50.44 50.27 50.53 50.97 51.07 51.94 51.90 51.49 50.66 50.53 53.84 55.64 53.36 54.81 47.64 49.11 50.71 51.45 50.02 48.59 48.60 50.35 50.77 49.46 49.31 49.75 49.35 50.44 51.19 53.35 55.02 56.68 58.76 56.84 55.99 52.93 53.85 53.79 54.06 54.71 53.97 54.05 54.11 53.05 54.52 52.41
50.13 50.14 50.19 50.40 50.78 51.01 51.73 51.71 51.49 50.25 49.19 56.13 54.01 53.05 54.00 55.48 52.75 50.42 47.92 49.94 49.37 49.84 50.44 49.49 48.77 50.19 50.81 49.98 51.71 51.94 54.51 55.12 55.29 57.39 56.69 56.92 53.08 54.45 52.16 53.63 53.51 52.70 54.21 54.75 53.87 54.62 54.62
50.02 50.21 50.04 50.25 50.57 50.88 51.03 51.62 51.34 49.82 49.14 55.74 57.65 57.78 55.17 50.60 52.29 51.00 50.75 50.63 50.32 51.27 52.39 52.92 51.59 50.43 50.29 52.28 55.26 55.99 57.10 59.02 59.32 59.03 57.44 56.91 54.96 53.30 50.21 52.87 52.55 50.06 53.16 54.69 55.17 56.16 56.36
50.23 50.31 49.80 49.78 50.19 50.70 50.87 51.10 51.14 50.08 48.86 55.98 55.07 55.23 52.29 50.06 51.39 51.57 50.51 50.64 50.42 51.63 51.17 53.19 52.72 52.67 55.40 60.06 59.71 57.57 56.20 57.05 57.78 58.44 59.77 58.18 57.80 56.00 50.67 52.95 45.76 53.20 56.82 56.59 55.85 56.75 57.83
50.55 50.48 49.87 49.54 49.65 50.19 50.80 50.78 50.89 50.57 49.39 55.91 55.82 54.55 52.70 49.98 53.26 51.87 51.15 51.06 52.48 54.04 52.66 53.11 54.70 58.30 60.61 58.05 53.34 51.78 51.36 53.54 54.70 56.54 58.74 59.21 58.36 53.38 50.09 49.36 51.84 54.91 56.69 56.45 55.56 55.00 59.52
50.95 50.86 50.19 49.26 49.39 49.84 50.38 50.65 50.46 50.49 49.40 54.03 54.81 56.09 53.65 49.86 50.03 52.29 51.09 51.93 51.29 52.52 53.79 54.25 58.09 60.47 59.63 54.89 51.82 48.35 46.61 49.93 50.32 52.86 58.16 58.71 60.25 55.73 52.94 47.91 46.23 54.30 59.04 60.76 59.63 53.79 61.37
51.16 51.08 50.70 49.13 48.98 49.46 50.10 50.42 50.25 49.93 49.21 51.14 55.44 55.98 54.04 49.51 51.93 51.28 51.11 50.71 52.67 53.06 52.64 55.86 55.66 57.04 59.88 53.10 49.92 48.63 48.44 52.24 48.65 49.97 52.59 53.67 55.37 52.61 52.18 50.54 52.89 57.96 61.32 62.38 53.42 55.29 62.56
51.54 51.29 50.98 49.65 48.77 48.90 49.59 50.06 49.95 49.65 49.24 50.57 54.35 54.73 52.43 51.02 51.71 51.32 51.41 51.17 52.12 52.69 51.10 54.34 54.83 56.91 56.12 52.11 50.56 50.19 49.86 51.70 51.77 53.98 54.77 52.75 52.20 50.77 52.54 50.61 47.64 61.06 60.74 57.05 62.20 64.58 63.71
51.83 51.40 51.17 49.98 48.90 48.64 49.00 49.65 49.61 49.24 49.03 48.59 52.77 55.55 54.23 50.87 51.45 53.42 52.89 52.99 52.68 52.65 51.47 54.72 55.63 55.58 55.76 54.51 54.40 55.55 51.72 54.08 53.27 49.14 56.55 52.37 56.92 53.62 54.24 54.77 61.70 65.01 65.69 67.24 67.32 65.61 65.58

GFSGBSN_sfc_wetblb_048.txt.gz
Wetbulb
55.39 55.66 56.15 56.14 55.89 55.88 56.00 56.26 56.15 56.25 56.35 56.37 56.54 56.60 56.74 56.99 57.19 57.51 57.71 58.27 58.28 58.36 58.52 58.97 59.96 60.92 61.92 61.89 61.40 63.90 73.02 70.68 61.77 60.71 61.38 60.89 59.66 59.28 57.95 59.87 61.08 59.77 62.04 61.75 61.85 61.36 60.90
55.14 55.30 55.65 55.47 55.50 55.53 55.71 55.77 55.96 55.95 55.96 56.04 56.08 56.27 56.59 56.66 57.15 57.44 57.74 57.72 57.77 57.83 58.31 59.14 60.43 60.52 63.37 56.30 65.99 64.14 62.88 61.84 61.63 62.06 61.17 61.34 60.12 61.22 59.82 59.97 60.09 61.73 61.87 61.27 60.89 61.18 60.90
54.37 54.49 54.73 55.28 55.18 55.23 55.28 55.52 55.58 55.63 55.66 55.74 55.78 55.97 56.13 56.34 56.50 56.98 57.25 57.17 57.32 57.58 58.51 59.56 61.36 63.08 59.02 57.01 62.57 66.15 63.62 61.57 62.95 62.13 60.68 62.24 62.16 60.22 60.71 59.31 62.34 61.75 58.79 60.09 60.29 60.52 59.01
54.23 54.35 54.56 54.82 54.70 54.83 54.88 55.00 55.12 55.34 55.33 55.28 55.34 55.48 55.90 55.92 56.14 56.54 56.65 56.31 56.71 57.73 59.43 61.20 63.26 62.44 57.33 62.68 63.50 62.33 64.67 62.84 62.92 63.23 62.24 63.49 63.33 60.39 59.48 61.46 60.68 58.69 58.97 54.85 59.04 60.56 59.08
53.93 53.93 53.79 54.53 54.43 54.47 54.35 54.52 54.74 54.77 54.87 55.03 55.49 55.36 55.62 55.76 55.86 55.82 55.34 55.27 56.74 58.64 61.02 62.53 64.03 62.59 57.61 64.04 58.42 61.12 62.95 60.95 62.09 62.28 62.88 62.46 60.79 58.08 59.10 56.62 55.74 57.32 53.87 54.99 56.25 60.97 57.44
53.30 53.66 54.05 54.24 54.03 54.11 54.00 54.20 54.28 54.38 54.48 54.90 55.03 55.01 55.01 55.11 55.23 55.05 54.52 55.61 61.65 60.04 62.04 64.24 63.58 57.96 58.80 56.24 59.75 60.93 63.01 62.24 60.26 60.42 59.24 58.63 56.72 54.08 55.80 54.82 50.56 53.23 52.39 55.71 54.69 58.95 56.80
53.14 53.18 53.33 53.71 53.60 53.82 53.72 53.95 53.88 53.92 54.08 54.57 54.62 54.70 54.74 54.72 54.58 54.43 54.82 59.88 59.55 60.11 58.70 56.84 57.61 56.05 57.12 59.35 61.30 59.38 61.27 60.20 59.41 58.08 54.57 56.88 52.71 50.80 53.65 56.17 56.46 55.97 55.43 54.73 56.69 60.06 55.43
52.91 52.91 53.09 53.46 53.38 53.35 53.47 53.46 53.36 53.69 53.71 53.75 54.17 54.29 54.48 54.29 53.93 53.76 54.96 59.41 57.64 57.67 53.33 57.80 58.72 57.88 59.55 59.55 55.82 57.88 61.21 56.97 56.12 52.74 55.41 53.99 51.67 54.64 55.85 55.99 55.73 55.62 54.75 55.31 58.01 58.27 56.15
52.56 52.66 52.75 52.82 53.13 53.03 53.09 53.15 53.31 53.42 53.41 53.60 53.99 54.07 53.93 53.68 53.21 56.76 58.03 58.61 60.61 59.85 53.03 54.16 56.47 56.32 56.85 58.08 54.73 55.85 59.11 57.53 55.02 53.13 53.06 51.88 53.65 56.08 54.50 53.74 53.53 54.55 53.90 53.71 53.84 56.56 56.91
52.39 52.50 52.39 52.67 52.73 52.81 52.72 52.80 53.04 53.15 53.49 53.76 53.68 53.72 53.32 51.81 53.77 58.78 55.57 60.93 60.50 60.23 49.61 51.31 53.52 56.07 57.36 57.58 53.56 58.87 60.26 57.53 55.32 52.91 53.76 52.84 55.69 53.91 53.31 52.10 53.13 50.97 55.23 55.07 54.07 53.37 49.44
52.25 52.28 52.45 52.48 52.37 52.43 52.38 52.48 52.75 53.29 53.43 53.31 53.41 53.44 52.91 52.07 54.04 55.78 59.99 60.80 59.95 58.66 42.06 53.54 54.39 60.13 57.81 54.43 55.73 55.47 60.13 57.89 53.97 53.97 53.93 52.16 52.64 52.30 51.61 52.25 53.80 52.72 55.64 55.04 54.37 52.34 51.99
52.08 52.05 52.24 52.33 52.24 52.30 52.23 52.48 53.02 53.27 53.08 52.96 53.03 52.79 52.08 57.48 57.19 57.52 58.45 59.57 58.38 48.46 42.38 50.68 54.04 52.83 52.69 54.13 54.27 56.88 55.96 58.59 58.07 54.45 55.29 53.59 56.74 54.60 53.50 54.53 54.76 55.50 53.82 54.53 54.15 52.17 47.92
51.80 51.90 51.93 52.05 52.13 52.05 52.08 52.54 52.90 52.98 52.86 52.72 52.33 51.73 51.59 56.50 56.01 59.42 58.16 56.14 47.76 43.83 51.96 49.85 50.55 52.82 51.94 51.59 52.32 53.91 53.51 53.13 51.39 49.93 50.56 53.40 53.00 55.21 55.66 52.23 54.50 54.05 51.94 47.58 46.95 46.61 46.10
51.60 51.64 51.72 51.78 51.90 52.15 52.32 52.63 52.75 52.63 52.49 52.18 51.11 50.84 54.45 56.15 57.63 58.85 56.67 51.15 43.95 48.61 49.23 53.72 52.32 52.55 50.20 52.00 52.28 52.36 52.67 51.53 53.74 52.76 51.04 49.37 47.91 52.32 55.13 52.96 52.60 53.58 52.01 48.38 45.41 45.34 46.57
51.18 51.43 51.53 51.57 51.88 52.23 52.50 52.67 52.63 52.30 51.99 51.20 49.95 57.93 57.01 59.84 58.05 57.39 52.88 45.75 46.82 50.12 52.55 51.76 52.14 49.48 50.32 51.88 51.94 51.78 51.54 51.48 53.52 54.10 50.94 49.77 49.89 55.47 55.08 55.23 54.45 53.29 50.76 53.46 50.27 51.25 48.24
51.07 51.44 51.61 51.52 52.00 52.13 52.46 52.69 52.61 52.26 51.62 50.90 53.20 55.42 57.35 59.40 58.91 55.37 49.89 45.78 49.57 53.10 52.74 52.39 48.21 50.69 48.36 50.25 50.34 50.82 51.18 53.29 52.71 55.36 56.14 53.27 49.61 54.32 54.77 55.76 55.71 54.08 56.60 50.48 50.62 46.67 45.31
50.92 51.23 51.36 51.21 51.92 52.17 52.40 52.52 52.36 51.89 51.07 50.11 53.45 54.39 58.45 59.15 57.58 52.01 46.53 48.58 50.92 54.01 53.40 50.32 49.79 49.69 50.16 50.18 51.30 50.73 50.62 53.22 54.60 54.39 56.34 54.35 52.61 52.60 54.45 52.65 52.26 53.24 52.32 54.54 53.09 51.77 45.92
50.56 51.09 51.10 51.16 51.52 52.23 52.27 52.28 51.83 51.16 49.91 50.87 55.93 51.16 58.53 57.16 48.08 49.61 48.51 51.74 52.87 52.94 53.59 51.54 51.69 50.94 51.25 51.64 51.30 51.80 50.82 52.69 55.81 55.33 52.48 54.95 52.40 50.07 51.39 55.31 56.66 55.07 53.73 53.60 49.39 51.73 52.28
50.63 50.91 50.98 51.14 51.22 52.11 52.23 52.01 51.60 50.72 50.38 52.94 54.44 54.52 58.29 54.86 44.88 46.84 50.45 51.27 53.67 52.38 51.83 51.53 49.61 51.20 52.53 51.23 50.18 52.29 53.26 55.15 55.39 54.23 53.70 55.29 51.83 47.65 49.73 53.06 56.03 53.60 53.99 55.24 56.09 56.89 52.69
50.50 50.85 50.89 50.99 51.18 51.64 52.25 52.07 51.78 50.94 50.37 51.37 55.80 50.49 52.77 52.55 51.15 50.00 50.25 50.30 50.67 52.99 51.74 52.11 51.23 51.76 50.64 49.76 52.91 51.79 52.80 54.91 55.52 54.76 61.02 59.78 54.42 52.97 46.42 51.12 53.57 52.76 53.16 54.29 54.53 52.03 52.27
50.30 50.64 50.66 50.81 50.99 51.35 52.27 52.11 51.94 51.31 50.37 50.93 55.20 53.54 55.25 47.34 47.93 49.28 51.79 51.30 49.66 49.33 51.76 52.03 50.20 49.74 49.40 48.16 49.87 50.30 52.45 53.94 55.54 60.57 56.66 56.42 54.23 52.92 52.80 53.09 53.41 53.23 53.41 53.74 51.96 52.86 50.72
50.55 50.56 50.55 50.59 50.76 51.04 52.10 52.15 51.82 50.97 49.39 53.76 53.92 53.34 55.22 53.31 53.92 50.67 48.70 48.96 49.38 50.40 51.09 49.87 49.30 50.10 50.20 48.96 50.37 49.93 51.70 53.29 53.59 56.30 55.17 55.73 53.80 53.81 51.01 52.95 52.76 51.55 53.85 52.33 55.17 53.73 53.20
50.38 50.67 50.72 50.43 50.49 50.89 51.62 52.13 51.69 50.50 49.77 56.21 56.34 56.46 53.87 51.57 51.48 50.69 50.17 50.39 50.23 52.07 52.69 52.88 52.43 51.25 50.30 51.60 53.37 53.66 55.54 56.43 58.26 57.68 58.55 57.27 54.53 54.10 48.94 51.95 51.92 49.61 52.29 53.53 53.97 55.67 54.37
50.47 50.65 51.04 50.32 50.30 50.57 51.16 51.65 51.63 50.49 49.38 53.41 56.48 54.69 52.21 48.34 51.67 50.66 51.19 51.93 50.71 51.81 50.64 52.82 53.96 52.51 54.79 59.56 58.68 57.16 55.68 55.52 56.52 57.21 58.86 59.22 60.52 55.42 50.08 53.40 45.11 53.05 56.27 55.30 54.22 56.27 59.77
50.85 50.79 51.02 50.47 50.07 50.13 50.91 51.27 51.77 50.87 50.04 52.20 56.60 54.26 52.86 49.14 52.11 51.68 51.71 51.26 52.46 53.10 51.96 52.13 54.85 55.91 59.93 57.53 52.61 50.80 50.95 52.58 52.71 54.80 56.20 57.70 58.09 53.12 49.85 48.45 51.47 52.96 55.03 54.16 53.59 54.10 61.84
51.18 51.04 51.04 50.78 49.64 49.89 50.68 51.12 50.97 50.99 49.56 52.44 56.57 55.98 54.10 50.32 50.18 53.22 52.13 52.36 50.81 51.89 53.02 53.82 55.75 59.43 58.41 54.66 51.90 47.78 44.52 48.40 47.76 50.05 55.58 56.63 61.40 54.23 52.83 47.78 45.69 54.70 59.57 59.53 60.12 53.31 58.63
51.54 51.27 51.22 51.12 49.66 49.57 49.91 50.74 50.91 50.83 49.69 49.69 54.76 56.72 54.06 50.09 52.26 52.35 50.81 51.20 53.68 52.64 52.12 55.76 56.60 55.79 57.90 52.19 48.59 47.01 46.17 50.84 46.91 48.91 51.25 52.89 55.12 51.91 51.50 49.77 52.45 59.03 58.92 61.37 52.09 53.59 60.00
51.98 51.37 51.33 51.31 49.94 49.44 49.38 50.25 50.64 50.32 50.00 49.25 54.75 56.20 53.00 51.61 52.80 52.47 52.55 52.06 52.89 52.94 49.90 53.60 54.39 55.32 54.43 51.66 50.02 49.49 49.41 51.20 51.40 54.20 53.69 52.89 52.42 51.14 53.26 50.59 48.29 63.12 58.71 52.42 55.48 57.21 63.22
51.93 51.84 51.36 51.19 50.02 49.48 49.18 49.67 50.27 49.99 49.78 49.36 52.90 56.04 55.30 50.82 52.01 54.87 53.36 53.45 53.03 53.59 51.96 54.09 54.02 56.58 55.96 53.80 53.70 54.71 51.31 53.44 53.59 48.60 57.23 51.67 55.59 49.03 55.42 54.82 59.97 64.30 64.01 67.05 67.22 67.97 66.41

GFSGBSN_sfc_wetblb_051.txt.gz
Wetbulb
55.66 55.87 55.98 56.12 55.93 55.96 56.13 56.40 56.77 56.84 56.46 56.55 56.69 56.59 56.64 56.88 56.99 57.34 57.64 58.24 58.14 58.10 58.29 58.84 59.71 60.85 58.45 57.38 59.56 66.39 74.24 72.02 65.70 59.01 56.32 56.80 56.07 55.97 53.14 54.96 57.18 57.67 61.01 62.18 62.00 58.94 59.83
55.22 55.32 55.66 55.70 55.58 55.61 55.79 55.89 56.17 56.18 56.12 56.18 56.22 56.13 56.11 56.48 57.01 57.36 57.52 57.62 57.60 57.62 57.99 58.83 60.32 60.85 59.05 52.92 63.56 62.30 64.11 60.79 58.33 57.52 58.05 59.13 57.23 57.67 55.09 55.78 55.37 58.11 59.59 59.95 59.85 59.92 59.44
54.81 55.10 54.98 55.44 55.30 55.40 55.36 55.62 55.76 55.75 55.76 55.82 55.80 56.09 56.13 55.96 56.18 56.93 57.17 57.11 57.11 57.35 57.96 59.11 61.06 61.97 56.92 54.55 59.91 61.27 60.49 57.58 58.75 58.30 57.52 59.25 59.25 55.40 55.84 54.08 57.91 57.46 55.41 57.55 58.99 59.11 58.49
54.55 54.57 54.78 55.00 54.84 55.01 55.00 55.10 55.24 55.27 55.20 55.18 55.34 55.48 55.53 55.84 56.12 56.43 56.41 56.12 56.48 57.27 58.31 60.16 62.49 59.19 53.58 60.67 59.58 59.36 61.02 60.02 59.16 58.04 58.41 59.07 59.52 56.63 54.76 56.36 55.63 54.34 54.60 50.33 57.91 59.09 59.33
54.08 54.26 54.42 54.71 54.57 54.61 54.54 54.74 54.90 54.67 54.67 55.17 55.24 55.34 55.40 55.56 55.81 55.77 55.32 55.02 56.65 58.82 59.67 61.67 58.03 55.36 55.66 63.25 56.94 57.23 56.61 58.85 58.69 58.04 58.04 61.23 56.71 52.50 53.77 49.99 48.71 53.21 48.19 51.86 55.11 59.45 58.47
53.89 53.84 54.15 54.44 54.44 54.26 54.22 54.26 54.36 54.42 54.68 55.10 55.06 54.97 55.03 55.17 55.25 54.97 54.48 55.70 58.49 59.05 60.07 61.18 61.90 54.24 57.40 56.13 57.40 57.94 56.61 58.55 57.92 57.35 56.77 55.80 52.71 48.35 47.28 45.13 42.73 48.36 50.66 52.82 53.46 56.87 57.23
53.66 53.80 53.93 54.13 53.97 53.98 53.91 54.09 54.02 54.15 54.29 54.61 54.59 54.58 54.87 54.83 54.78 54.44 51.98 52.24 55.05 56.14 54.18 52.92 54.65 54.21 56.29 58.51 58.58 57.21 58.31 57.67 56.79 54.69 49.56 53.66 47.17 44.19 47.03 49.42 51.82 52.26 53.18 53.30 55.30 57.73 54.83
53.30 53.45 53.28 53.49 53.59 53.48 53.55 53.57 53.57 53.69 53.75 53.93 54.44 54.44 54.50 54.44 54.07 53.81 51.48 52.15 53.35 53.22 48.90 55.05 55.75 56.12 58.67 57.31 54.08 56.13 57.41 52.25 53.39 49.19 51.38 49.51 45.59 51.12 52.93 52.59 52.02 51.45 53.41 52.65 55.94 57.38 55.02
53.02 53.05 53.24 53.24 53.27 53.22 53.22 53.25 53.44 53.71 54.05 54.01 54.05 53.99 53.91 53.71 53.24 53.48 52.21 54.64 57.38 54.99 47.93 51.93 53.84 52.73 54.43 54.16 53.07 53.38 54.40 53.88 52.18 50.20 49.71 46.71 50.10 54.63 53.16 50.82 50.03 47.79 51.29 52.90 52.94 55.26 56.46
52.93 52.73 52.84 53.09 53.10 53.03 52.88 52.90 53.03 53.44 53.72 53.66 53.66 53.83 53.51 52.06 51.06 51.90 54.02 57.17 56.30 55.75 43.80 48.99 49.76 52.51 53.94 53.51 50.72 56.82 56.32 55.06 52.39 49.48 50.81 48.77 52.43 52.41 51.07 50.48 49.16 43.86 51.66 52.48 51.33 48.97 44.16
52.61 52.43 52.51 52.88 52.91 52.82 52.71 52.71 52.71 53.21 53.41 53.41 53.44 53.44 52.88 51.66 49.12 49.90 54.90 55.62 55.17 53.64 36.60 51.80 51.34 56.51 53.57 51.25 52.24 52.94 56.44 52.87 50.76 51.06 49.67 48.47 50.60 49.29 49.34 49.95 51.02 47.49 52.02 51.02 51.89 47.13 48.23
52.50 52.31 52.30 52.55 52.70 52.64 52.59 52.84 53.23 53.23 53.25 53.09 52.88 52.81 52.12 53.30 50.82 53.43 56.04 55.48 53.48 43.26 38.82 49.02 52.00 49.70 48.98 50.24 51.84 53.86 52.75 53.48 55.29 51.53 51.46 50.68 53.77 51.30 50.47 52.54 51.87 52.47 50.21 49.50 48.36 44.85 39.64
52.22 52.17 52.19 52.19 52.31 52.34 52.73 52.98 53.05 53.13 52.92 52.76 52.27 51.75 50.40 53.45 50.87 53.59 53.57 51.46 41.64 38.74 50.01 47.07 47.61 49.27 48.12 47.93 49.13 50.74 49.74 48.02 46.56 42.75 44.36 49.98 50.74 52.14 53.77 49.42 50.84 48.46 45.74 39.06 38.88 39.11 39.18
51.81 51.83 52.12 52.20 52.32 52.36 52.73 52.92 53.07 52.84 52.74 52.22 51.14 50.76 51.77 53.49 53.61 53.95 52.26 45.72 38.13 46.84 46.36 50.69 49.84 48.95 47.20 48.72 48.66 49.74 48.70 46.99 50.36 48.47 45.05 44.05 43.64 50.80 52.58 49.56 47.06 46.89 45.06 39.39 36.38 39.17 43.50
51.72 51.58 51.97 52.11 52.55 52.38 52.65 52.71 52.94 52.59 52.14 51.43 50.23 53.61 52.88 54.12 55.19 54.68 48.00 39.99 42.35 47.29 50.66 49.32 49.76 47.53 46.26 48.74 48.43 48.66 47.38 47.59 50.53 49.76 44.19 42.83 45.84 53.94 53.25 52.02 49.93 46.33 44.48 48.37 41.40 40.65 40.83
51.83 51.52 51.76 51.90 52.25 52.46 52.69 52.76 52.78 52.59 51.85 50.89 47.72 51.36 52.34 57.93 57.13 51.09 44.85 41.72 46.12 50.32 50.65 50.45 46.29 48.82 45.88 47.64 46.51 46.11 47.21 49.90 50.03 52.06 51.01 47.56 43.28 50.58 53.63 51.82 51.34 47.90 50.89 43.90 42.74 36.87 36.82
52.09 51.30 51.55 52.09 52.34 52.34 52.65 52.65 52.51 52.25 51.06 50.11 48.71 48.62 55.22 57.44 54.95 48.61 41.38 43.71 47.90 51.36 51.50 49.31 47.68 47.04 47.30 47.24 48.17 47.17 47.45 50.68 51.42 51.23 50.55 48.93 45.90 47.40 51.40 48.83 47.00 46.95 44.75 46.97 47.06 43.95 38.43
51.50 51.18 51.90 51.98 52.21 52.30 52.47 52.47 52.19 51.30 50.02 50.73 53.77 47.77 56.86 55.10 45.75 46.43 43.71 47.59 49.31 50.35 52.19 50.64 50.15 48.82 47.26 48.59 47.91 48.32 48.78 50.89 52.75 51.72 48.15 49.24 47.64 43.44 46.74 51.97 53.30 50.34 48.27 46.86 42.75 41.04 44.07
51.00 51.10 51.40 51.88 51.96 52.32 52.22 52.26 51.80 50.98 50.12 47.47 50.05 52.16 56.31 53.33 40.79 42.21 46.10 47.63 49.83 50.09 51.01 49.44 49.36 50.05 49.73 47.08 45.07 50.08 51.44 54.74 53.53 52.13 48.59 52.16 45.12 39.61 42.98 46.63 51.32 49.09 49.49 46.92 47.66 46.06 42.60
50.90 50.80 51.19 51.29 51.86 52.11 52.17 52.32 51.96 51.43 50.52 47.50 50.65 49.84 51.41 51.57 49.49 45.75 44.74 47.27 47.41 51.74 51.42 51.27 49.90 50.00 47.99 46.31 47.78 48.15 49.67 53.50 54.41 53.42 60.57 54.65 47.08 45.09 39.95 44.95 49.70 49.77 51.68 50.37 46.67 43.58 44.14
50.81 50.70 50.98 51.00 51.57 51.82 52.09 52.36 52.14 51.54 50.50 47.28 51.55 51.49 53.80 45.70 45.87 46.06 46.79 47.74 47.98 47.98 51.06 50.95 48.43 48.58 46.53 43.17 46.64 46.65 49.61 50.63 53.98 57.88 52.69 49.54 44.07 47.02 48.23 50.30 50.68 49.80 50.60 51.52 49.10 46.61 43.39
50.73 50.82 50.95 51.17 51.36 51.67 52.00 52.38 52.20 51.24 49.73 48.95 49.61 49.88 50.97 49.47 52.74 50.42 47.09 47.21 47.52 49.10 50.34 48.14 47.20 49.06 48.22 43.84 46.14 45.71 47.82 47.83 49.80 55.72 54.44 51.11 44.61 49.30 45.68 50.34 50.44 49.47 51.10 53.00 52.25 52.63 51.16
50.65 50.75 50.74 51.27 50.98 50.91 51.27 52.30 51.87 50.67 48.92 53.36 54.46 54.28 51.83 48.89 48.53 48.09 47.61 49.73 49.03 50.58 51.36 51.75 51.34 49.67 48.39 50.34 53.59 52.92 52.16 50.57 50.27 49.65 51.66 53.37 47.52 46.19 42.59 49.58 49.48 45.09 49.63 51.41 53.09 52.78 52.49
51.13 50.67 50.78 51.11 50.72 50.51 50.81 51.88 51.84 50.84 49.23 46.89 53.44 51.85 48.58 46.14 48.00 49.00 50.76 50.51 49.68 52.34 50.08 52.12 52.40 50.30 54.99 57.64 56.38 54.72 53.14 51.82 52.84 51.71 51.92 50.59 50.84 50.59 44.32 47.11 39.07 48.21 53.38 53.50 52.45 54.19 54.55
51.86 51.17 51.01 51.26 51.04 50.32 50.43 51.08 51.86 51.20 50.09 46.39 52.06 51.44 49.90 45.88 49.35 49.30 49.79 51.24 51.39 52.41 52.12 51.58 52.64 54.99 56.49 54.86 49.38 47.01 46.51 47.19 50.10 52.14 51.08 50.69 50.03 45.34 42.69 42.54 47.26 50.66 52.61 53.97 50.19 52.93 56.95
51.04 51.82 51.13 51.38 51.25 50.16 50.22 50.67 51.50 51.25 49.88 47.40 51.15 54.08 50.65 47.53 46.98 50.31 47.68 51.68 48.15 48.34 50.37 51.93 55.85 56.51 55.35 51.35 48.68 42.30 40.21 45.21 45.63 47.83 50.48 49.69 52.23 48.08 44.94 41.93 41.44 49.05 56.45 58.29 56.83 49.24 57.39
50.99 52.01 51.33 51.34 51.17 50.14 50.09 50.18 50.94 51.00 49.98 47.06 49.20 54.14 51.11 47.67 51.08 50.71 47.32 47.90 51.40 49.64 48.59 51.79 52.05 53.90 54.99 48.06 45.44 44.25 43.22 48.50 42.60 43.91 44.60 45.11 45.85 45.25 45.70 42.93 46.93 57.94 57.22 58.06 44.96 49.65 57.61
51.35 52.09 51.63 51.50 51.17 50.19 50.04 49.79 50.49 50.77 50.47 47.99 48.52 53.17 50.77 48.09 50.56 52.79 51.42 49.50 49.45 49.02 45.85 48.86 50.75 53.31 52.00 47.70 45.85 45.92 45.36 47.41 47.27 49.30 49.47 46.18 43.91 44.02 45.22 43.74 42.25 61.71 59.95 50.92 53.25 57.80 58.82
52.20 52.22 51.89 51.59 51.21 50.15 50.06 49.66 50.06 50.08 49.94 49.36 49.00 54.41 55.52 49.55 48.99 52.97 53.44 52.59 52.04 52.28 48.78 49.98 48.75 52.41 52.25 49.13 50.21 50.74 49.73 50.12 48.94 45.17 52.50 47.93 51.51 50.91 52.03 50.19 56.04 58.32 59.34 60.87 57.46 57.90 58.99

GFSGBSN_sfc_wetblb_057.txt.gz
Wetbulb
55.37 55.40 55.58 55.83 55.83 55.88 55.98 56.06 56.18 56.15 56.13 56.28 56.37 56.39 56.32 56.37 56.64 56.96 57.05 57.42 57.80 57.76 58.02 58.35 58.81 59.65 55.73 49.94 53.36 68.99 73.51 72.49 63.48 58.55 55.65 53.19 51.29 51.33 50.33 51.28 52.37 51.92 53.57 55.24 54.98 56.05 59.75
54.92 55.13 55.28 55.42 55.66 55.48 55.64 55.72 55.82 55.77 55.70 55.76 55.85 55.56 55.63 55.76 56.37 56.88 57.08 57.26 57.12 57.34 57.78 58.35 58.93 59.57 52.86 44.87 55.43 67.45 63.13 61.34 57.77 54.33 52.62 52.09 52.03 54.28 52.09 51.42 50.49 52.63 53.28 53.31 56.45 60.71 61.43
54.78 54.73 55.14 55.30 55.41 55.21 55.19 55.43 55.55 55.32 55.29 55.31 55.17 55.23 55.39 55.48 55.75 56.29 56.89 56.75 56.76 56.97 57.71 58.40 58.85 60.29 54.04 48.11 55.34 63.11 58.66 55.16 54.53 53.75 51.75 55.15 55.80 52.74 52.49 51.05 53.45 52.27 52.73 54.50 55.71 58.40 59.64
54.50 54.70 54.61 55.03 54.85 54.97 54.85 55.10 55.05 55.00 55.00 55.02 54.69 54.69 55.03 55.52 55.67 55.85 56.16 55.99 56.27 57.22 58.23 59.28 59.54 57.84 47.40 54.44 57.50 57.04 55.97 55.05 55.44 53.61 54.22 55.64 55.69 52.42 51.34 53.13 50.08 51.08 50.24 47.60 52.77 55.76 58.82
54.22 54.34 54.46 54.56 54.61 54.59 54.48 54.64 54.65 54.57 54.52 54.48 54.40 54.38 54.84 55.18 55.51 55.47 55.20 55.03 56.80 58.13 60.04 61.14 56.11 51.10 51.56 60.68 55.94 56.71 57.07 56.10 55.55 54.95 54.00 57.38 53.00 49.45 49.53 45.36 43.35 44.93 43.21 46.90 51.54 55.92 55.50
53.99 54.01 54.11 54.41 54.40 54.25 54.20 54.12 54.15 54.03 54.01 54.15 53.96 54.25 54.51 54.88 54.92 54.63 54.31 55.19 56.29 57.20 58.85 59.95 59.97 47.28 48.71 51.58 55.29 55.37 54.13 56.60 53.42 51.99 53.35 52.29 48.45 45.57 44.00 42.20 38.68 41.84 44.68 47.06 48.47 53.50 54.51
54.02 53.73 53.73 54.07 54.03 53.98 53.85 53.84 53.76 53.68 53.72 53.66 54.04 54.30 54.22 54.41 54.39 54.06 51.67 47.65 48.75 47.64 49.40 48.87 50.49 48.96 52.42 55.29 57.44 54.17 54.67 52.43 51.89 50.73 45.63 48.34 45.16 42.35 45.67 45.23 45.89 45.59 45.29 44.77 48.96 52.43 52.12
53.90 53.65 53.42 53.31 53.68 53.67 53.53 53.47 53.24 53.30 53.32 53.45 53.53 53.86 54.10 53.86 53.53 53.30 48.80 45.70 48.82 46.84 44.49 50.81 51.29 53.69 55.65 55.21 51.61 53.86 54.38 49.57 49.71 46.43 47.82 45.12 41.93 46.99 49.13 48.51 46.80 45.54 44.08 44.38 47.30 52.88 51.79
53.56 53.37 53.12 53.10 53.15 53.29 53.18 53.01 52.77 52.95 53.07 53.20 53.44 53.67 53.51 53.17 52.57 48.82 44.14 46.91 50.32 46.81 43.74 47.67 50.00 49.79 50.15 52.41 50.38 51.68 52.33 50.05 47.65 45.87 45.61 43.27 46.20 50.25 49.35 47.51 46.29 43.37 43.24 45.14 46.06 51.68 51.18
53.35 53.32 52.97 52.95 52.96 52.87 52.89 52.72 52.56 52.72 53.11 53.43 53.37 53.49 53.07 52.05 46.89 45.40 45.46 49.45 50.25 47.28 39.12 43.96 46.59 49.52 49.53 50.80 48.05 54.62 53.35 51.38 48.34 45.82 46.40 45.46 49.09 48.95 47.32 46.14 45.87 39.62 47.49 49.38 50.75 47.49 41.87
53.12 53.03 52.70 52.57 52.84 52.87 52.54 52.41 52.49 52.62 53.10 53.32 53.16 53.26 52.68 51.62 44.24 45.59 47.86 49.74 48.44 46.86 31.27 46.38 47.33 51.29 46.93 47.56 48.89 50.01 52.57 49.82 46.68 47.33 46.17 45.35 46.54 46.26 46.02 46.83 46.78 44.99 48.27 49.99 49.12 43.00 39.96
53.07 52.67 52.32 52.30 52.69 52.60 52.37 52.45 52.74 53.14 53.08 52.96 52.93 52.53 51.95 47.45 44.39 47.13 49.61 47.15 47.08 39.66 32.75 44.75 48.37 45.07 44.53 45.12 47.86 49.69 49.06 50.12 50.20 47.09 46.54 46.76 49.63 48.48 47.86 49.58 48.68 48.59 45.21 43.16 41.75 39.48 36.56
52.64 52.34 52.03 52.04 52.23 52.39 52.37 52.85 53.10 53.00 53.00 52.52 52.16 51.53 50.15 49.37 41.23 46.32 46.60 45.69 37.77 33.47 44.24 42.90 42.62 43.71 41.36 42.33 44.32 46.80 45.86 43.55 42.39 39.09 39.29 44.64 45.98 48.20 50.25 46.76 47.22 44.32 38.89 34.53 35.29 35.28 35.64
52.49 51.70 51.98 51.93 51.85 51.99 52.27 52.50 53.02 52.86 52.71 52.07 50.95 50.75 48.26 48.75 46.86 47.10 45.00 41.40 31.38 40.25 41.21 45.76 45.25 44.80 42.32 43.23 44.04 45.27 43.84 42.20 43.57 43.07 40.20 40.05 39.75 45.97 49.63 46.84 44.25 42.01 39.65 35.16 31.67 32.71 36.64
51.70 51.65 52.12 51.76 51.76 52.12 52.60 52.71 52.63 52.61 52.14 51.25 50.02 43.50 45.33 47.07 49.43 45.40 42.43 33.94 35.65 40.07 45.99 45.16 44.68 42.02 42.09 44.50 43.52 43.08 42.00 42.15 44.20 44.96 40.89 38.35 40.39 48.31 50.01 48.90 47.86 43.77 39.77 41.28 35.97 34.48 35.59
51.89 51.77 52.00 51.47 51.58 51.75 51.93 52.69 52.61 52.59 51.84 50.58 43.48 42.73 43.74 49.60 50.24 43.44 39.16 35.71 38.37 44.42 45.65 44.67 40.37 42.70 40.40 42.54 42.82 42.29 41.62 45.00 44.94 46.78 43.90 42.79 39.22 44.91 48.63 48.90 47.99 44.95 45.73 39.32 36.36 33.52 31.77
51.80 51.63 51.64 51.20 51.51 51.49 51.77 52.38 52.37 52.23 51.28 49.95 43.37 43.19 47.78 49.63 45.35 41.66 35.28 35.96 41.53 46.44 46.82 43.48 41.84 41.40 42.44 41.96 41.59 40.11 42.94 47.59 48.07 47.76 45.64 41.65 40.16 43.78 46.56 43.79 43.42 42.98 40.53 40.07 38.53 37.03 34.91
51.86 51.63 51.49 51.18 51.37 51.37 51.50 52.22 52.19 51.45 50.22 45.60 41.80 41.48 47.97 48.10 39.74 36.63 36.19 40.52 45.57 44.93 46.21 45.38 44.86 44.01 42.41 43.41 41.40 41.46 43.53 47.16 50.74 48.43 43.10 42.44 39.88 38.79 42.19 45.88 48.58 43.86 41.64 40.99 37.69 35.69 36.86
52.05 51.71 51.46 51.07 51.13 51.16 51.73 51.85 51.86 51.25 49.84 43.78 37.82 41.78 50.67 45.80 36.35 36.38 38.56 42.37 44.63 43.16 43.61 43.44 44.22 45.60 44.66 42.07 38.48 43.18 45.74 49.74 51.22 51.45 45.72 45.20 38.21 36.27 39.18 41.88 44.19 44.45 44.51 41.95 39.44 37.86 37.93
52.25 51.56 51.50 50.96 51.11 51.11 51.47 51.94 51.79 51.54 50.78 45.18 40.46 43.03 44.22 42.80 39.25 39.27 38.48 40.02 41.12 47.17 45.01 45.40 44.98 44.92 42.42 40.43 40.88 41.08 44.04 48.75 49.97 52.10 59.19 50.02 38.63 38.72 36.53 39.34 43.82 44.40 46.50 45.77 41.60 38.55 38.40
51.74 51.47 51.66 51.24 51.22 51.39 51.05 51.77 52.13 51.63 50.65 43.35 40.89 41.03 44.18 39.45 41.37 40.90 40.80 41.81 41.22 41.10 46.12 44.90 41.97 44.43 42.59 37.89 39.07 39.73 44.31 45.91 48.40 53.23 50.55 45.97 38.91 42.16 41.82 45.08 45.71 45.74 46.23 46.69 43.24 42.06 41.26
51.62 51.51 51.41 51.11 51.17 51.41 50.90 51.54 51.93 51.21 49.50 42.75 40.97 43.30 45.13 43.97 42.24 42.05 40.84 40.41 42.54 43.94 44.48 44.27 41.70 44.67 42.81 39.88 41.55 41.42 44.35 40.91 41.64 46.61 44.45 46.90 42.76 41.15 39.32 45.98 47.09 45.92 47.49 48.15 47.67 47.26 46.24
51.85 51.58 51.35 50.94 51.26 51.43 50.84 50.77 51.59 50.73 46.38 39.93 45.35 47.58 44.77 43.04 42.67 39.80 39.83 43.06 44.84 45.87 47.06 47.76 47.73 45.33 46.07 48.30 49.37 46.55 46.99 47.07 44.13 44.94 43.48 45.06 42.25 42.00 39.98 44.12 44.49 39.33 44.73 46.66 47.56 48.78 48.38
52.23 51.89 51.56 51.24 51.05 51.36 51.03 50.56 51.20 50.99 47.29 40.69 40.35 44.10 41.05 40.24 41.43 43.72 45.18 45.14 45.98 46.99 44.35 47.83 47.19 46.31 50.41 52.21 50.89 46.25 45.26 45.63 45.93 44.03 44.36 42.49 40.66 43.01 41.00 40.41 34.21 43.00 49.47 50.81 51.20 54.25 53.60
52.79 51.58 51.45 51.32 51.24 51.37 51.26 50.37 50.69 51.32 50.35 41.79 39.54 42.66 40.46 39.00 42.71 44.28 44.77 44.97 45.85 45.74 46.79 48.14 50.62 49.52 48.68 48.83 43.59 40.28 40.49 40.95 43.12 45.74 44.20 43.36 41.77 38.36 38.18 37.08 42.11 47.92 51.46 50.73 47.33 47.90 54.97
52.92 51.75 51.29 51.45 51.53 51.37 51.34 50.44 50.29 50.93 50.05 41.62 39.56 43.37 40.72 39.19 40.56 45.99 43.42 44.15 42.27 42.14 46.20 49.16 50.69 49.82 48.82 43.61 42.64 35.98 35.28 38.35 39.39 42.53 40.81 42.70 41.43 40.38 38.65 34.82 35.12 44.63 56.28 58.07 54.27 44.66 54.67
52.84 52.13 51.73 51.89 51.74 51.45 51.39 50.27 50.37 50.54 49.97 44.30 40.15 41.44 40.82 38.43 42.16 42.13 41.30 41.88 44.57 42.83 42.75 43.42 44.51 48.84 47.51 41.37 40.75 39.28 38.09 42.58 38.37 36.62 37.10 37.39 37.28 37.74 37.87 36.80 41.59 51.87 54.49 57.09 43.44 43.32 53.48
52.73 52.18 51.47 51.18 51.79 51.51 51.30 50.26 50.31 50.16 50.10 44.71 40.82 42.56 41.88 37.71 39.64 43.85 45.93 41.42 41.79 42.28 40.09 42.25 45.62 45.93 45.66 43.50 40.89 38.98 39.69 42.71 41.26 43.58 41.26 40.53 40.27 37.41 37.61 35.42 36.32 53.82 53.96 47.74 49.86 52.36 55.10
52.63 52.26 51.76 51.60 52.42 51.66 51.33 50.31 50.20 50.01 49.61 47.32 39.69 44.20 45.68 41.70 41.14 43.24 46.93 48.11 46.45 44.74 42.94 42.47 43.84 43.98 46.77 43.62 43.91 43.23 43.90 43.89 41.97 40.73 45.85 42.64 44.46 42.54 45.31 43.93 50.88 53.82 51.59 53.37 52.30 52.94 55.99

GFSGBSN_sfc_wetblb_060.txt.gz
Wetbulb
55.28 55.30 55.65 55.67 55.84 55.65 55.77 55.88 56.02 55.96 55.96 56.12 56.04 55.81 55.83 56.00 56.43 56.81 56.99 57.19 57.68 57.65 57.78 58.34 58.82 59.24 54.82 47.07 49.12 69.49 74.09 73.66 68.36 59.55 55.59 53.07 49.47 49.17 48.61 50.03 50.97 49.35 51.69 52.63 53.77 54.90 56.55
55.41 55.32 55.33 55.64 55.54 55.51 55.46 55.52 55.70 55.65 55.52 55.64 55.52 55.30 55.45 55.54 56.01 56.52 56.74 56.99 56.99 57.16 57.63 58.12 58.74 58.96 50.37 43.13 53.13 68.57 64.79 59.72 57.20 54.25 51.30 51.54 49.61 52.90 51.01 50.58 49.08 51.21 51.42 52.28 55.31 59.32 59.65
55.06 55.15 55.18 55.30 55.33 55.15 55.27 55.33 55.41 55.20 55.32 55.33 55.13 55.01 55.03 55.11 55.53 56.00 56.68 56.64 56.63 56.96 57.57 58.26 58.49 58.94 50.73 47.01 55.80 62.81 60.01 55.52 55.02 52.07 49.39 52.67 51.93 51.68 50.97 49.88 51.88 50.89 50.48 53.18 53.61 56.17 58.08
54.55 54.66 54.72 55.05 55.10 54.95 54.77 54.87 54.95 54.72 54.67 54.67 54.63 54.49 54.74 54.82 54.96 55.55 55.91 55.55 56.24 57.02 58.73 59.62 59.07 56.24 45.29 52.30 55.37 57.65 55.73 53.98 54.22 52.90 51.79 53.75 54.60 51.23 49.73 51.33 48.71 48.69 48.50 45.72 51.17 55.08 57.22
54.42 54.23 54.35 54.59 54.75 54.57 54.44 54.56 54.49 54.43 54.28 54.30 54.11 54.14 54.54 54.70 54.89 55.13 54.82 54.93 56.32 57.80 60.17 60.60 54.85 51.67 47.89 58.40 52.27 54.60 55.65 53.77 53.83 53.27 52.79 56.31 51.65 47.78 47.96 43.90 41.59 43.21 41.84 44.09 49.96 54.20 54.14
54.35 54.10 54.02 54.12 54.28 54.15 54.23 54.26 54.16 53.91 54.01 53.97 54.01 54.23 54.45 54.61 54.68 54.41 54.02 55.25 55.61 57.08 58.83 59.32 58.73 45.85 48.11 49.41 53.65 55.06 53.17 55.55 53.71 50.85 51.76 50.73 46.99 44.76 43.33 42.04 37.46 39.66 41.29 43.07 45.42 49.23 51.45
54.10 54.08 53.85 53.79 53.88 53.74 53.90 53.89 53.70 53.56 53.62 53.64 54.01 54.11 54.27 54.39 54.17 53.92 51.27 46.77 47.24 46.34 46.85 47.95 48.19 46.51 50.76 54.39 55.50 52.93 53.32 50.88 49.60 49.08 43.04 46.77 44.21 41.39 44.91 44.38 44.69 44.10 42.62 42.63 46.55 48.74 48.42
53.50 53.69 53.43 53.35 53.22 53.50 53.50 53.46 53.31 53.12 53.41 53.27 53.31 53.70 54.02 53.82 53.47 53.23 47.38 46.30 46.16 45.59 42.49 48.76 49.15 51.05 54.07 53.44 50.01 52.05 53.60 48.15 48.11 45.00 46.14 44.30 40.80 46.52 47.83 47.06 45.57 44.27 42.68 42.57 45.89 49.97 49.57
53.14 53.41 53.28 53.14 53.10 53.17 53.12 53.04 52.85 52.98 53.00 52.91 53.22 53.51 53.44 53.21 52.46 47.32 43.55 45.20 48.09 44.25 41.15 46.38 48.57 48.72 48.97 51.91 49.11 50.14 52.03 48.83 46.63 44.20 44.53 42.50 45.09 48.77 47.81 45.89 44.69 41.55 41.61 42.54 44.23 48.89 49.37
53.12 53.16 53.15 52.91 52.78 52.84 52.86 52.75 52.71 52.70 52.83 53.37 53.37 53.33 52.93 51.68 45.36 44.33 45.03 46.43 47.14 45.59 37.57 42.60 44.80 48.46 48.11 49.15 46.92 53.05 53.06 50.90 46.72 44.79 45.06 43.51 47.07 47.59 45.98 45.12 44.50 38.30 45.37 46.55 45.65 46.37 41.25
53.15 53.28 52.92 52.61 52.61 52.67 52.62 52.50 52.37 52.50 52.96 53.27 53.19 53.00 52.42 51.57 43.58 43.14 46.93 45.40 45.55 44.26 30.16 44.58 44.93 49.80 45.15 45.77 46.37 49.01 51.46 49.06 46.40 45.72 44.47 43.34 44.98 44.69 44.65 45.62 45.66 44.13 46.43 45.23 47.58 42.45 38.94
53.26 52.95 52.66 52.17 52.31 52.33 52.31 52.29 52.52 52.79 53.04 53.08 52.92 52.33 51.71 46.19 42.78 45.62 47.13 45.21 45.21 38.20 31.41 42.06 46.93 43.13 42.17 43.63 46.05 47.68 47.75 49.34 48.94 45.91 45.04 44.61 47.81 47.09 46.74 48.18 47.44 47.66 43.87 41.68 39.85 38.04 35.44
53.10 52.66 52.18 52.17 52.33 51.96 52.04 52.58 52.75 53.08 52.88 52.71 52.10 51.26 50.03 48.65 39.97 44.25 44.50 44.24 37.40 31.99 42.09 41.15 40.88 43.05 40.59 41.24 42.82 45.26 44.40 43.03 42.37 38.70 38.10 42.05 43.62 46.39 48.63 45.24 45.73 42.92 38.29 33.95 34.44 33.89 34.77
53.18 52.72 51.93 52.27 52.12 51.79 52.00 52.12 52.61 52.76 52.59 52.20 50.77 50.56 48.07 48.16 46.64 45.37 43.09 40.85 30.46 38.20 39.17 43.89 43.83 42.42 40.77 41.86 41.76 43.44 42.52 41.13 42.31 41.07 37.74 37.53 37.76 44.72 47.79 45.97 44.20 40.83 38.75 34.82 30.41 31.05 35.12
52.93 52.31 51.90 52.06 52.00 51.71 52.23 52.27 52.28 52.41 52.11 51.28 49.73 42.94 42.78 45.07 48.75 43.47 41.38 33.73 35.68 38.56 44.01 43.20 42.30 40.40 40.49 42.78 42.28 41.73 40.64 40.71 43.03 43.65 39.56 37.11 39.23 46.24 47.85 46.87 47.01 41.74 38.79 39.63 34.89 32.05 33.93
52.87 52.05 51.94 51.98 51.68 51.64 51.67 52.02 52.32 52.45 52.07 50.47 42.11 41.36 43.24 47.64 47.94 41.60 38.65 35.42 36.61 42.10 43.55 42.33 38.20 40.74 38.05 41.26 40.69 40.44 39.64 44.34 43.21 45.10 42.34 40.49 37.62 42.59 47.16 47.39 46.02 43.57 44.49 38.45 35.48 32.16 30.59
53.13 52.10 51.84 51.68 51.52 51.50 51.50 51.97 52.21 52.13 51.37 49.39 41.48 41.34 46.17 47.44 41.57 40.38 34.44 34.39 39.97 44.50 44.93 41.57 39.84 39.63 40.08 40.74 39.69 38.45 40.95 45.96 47.12 46.17 43.35 40.13 39.78 40.77 44.65 42.22 42.01 41.32 39.10 37.86 36.96 35.37 33.64
53.31 52.55 52.52 51.91 51.49 51.43 51.79 51.91 51.80 51.23 50.15 44.50 37.34 38.46 45.86 43.74 37.16 32.73 35.03 38.92 44.43 43.70 44.66 43.75 42.95 42.18 41.10 41.73 39.86 39.70 41.62 45.17 48.80 47.44 41.47 41.79 37.97 36.21 41.04 44.33 46.66 43.19 40.92 39.45 36.54 34.89 35.26
53.39 52.82 52.25 51.90 51.43 51.54 51.92 51.91 51.37 51.02 49.99 43.59 35.48 38.05 48.37 43.32 34.55 33.79 36.13 40.67 42.74 41.61 42.18 40.49 42.30 44.00 42.59 39.84 37.62 41.19 43.94 48.14 48.65 49.80 45.36 41.69 37.08 34.81 37.97 39.92 43.04 43.97 42.24 39.58 37.58 37.30 36.74
53.55 52.29 52.02 52.00 51.47 51.45 51.67 51.76 51.48 51.36 50.66 45.09 38.62 40.95 43.45 40.42 37.56 35.66 36.95 38.98 40.12 45.45 43.47 42.61 43.25 42.75 40.73 38.38 38.97 39.15 42.45 47.10 48.57 49.33 55.92 49.02 36.43 36.56 35.44 38.09 41.42 43.21 45.28 43.78 41.23 38.00 37.44
53.49 52.71 51.87 52.04 51.33 51.35 51.69 51.71 51.62 51.62 50.41 43.80 40.20 38.67 44.78 39.27 39.47 37.68 37.99 40.71 40.47 41.00 43.60 43.54 39.76 42.20 41.03 36.66 37.23 38.06 43.61 45.25 46.90 51.73 47.85 43.49 39.41 39.08 40.22 42.40 44.43 44.82 45.71 45.83 42.40 41.66 41.47
53.94 52.67 51.96 51.58 51.47 51.18 51.58 51.29 51.43 51.38 49.14 42.13 39.13 42.45 43.70 41.79 41.12 41.05 40.06 40.17 41.57 43.28 42.22 41.72 40.32 43.49 42.07 38.91 40.27 40.26 43.23 40.52 40.95 45.05 44.14 44.67 41.13 41.08 38.94 44.63 46.05 44.85 46.37 47.03 46.51 44.97 45.94
54.13 53.08 51.94 51.81 51.26 51.10 51.49 51.07 51.23 50.63 45.14 36.34 42.90 46.05 41.73 41.15 40.87 38.98 40.08 41.99 44.45 44.82 45.82 45.70 46.30 44.68 43.08 45.72 46.77 45.15 45.85 46.34 42.97 43.80 42.01 42.52 40.70 40.62 38.42 43.58 43.61 39.87 42.84 45.80 48.07 48.09 48.60
54.29 53.08 52.14 51.91 51.01 51.16 51.33 51.12 51.04 50.72 46.86 40.32 37.33 43.27 39.98 39.40 40.72 42.17 44.61 45.29 44.84 46.57 43.85 47.68 47.40 46.72 48.96 51.03 49.71 46.22 44.75 43.90 45.36 43.30 42.63 40.69 40.19 41.03 39.29 39.37 34.15 42.53 50.37 50.72 50.81 52.66 53.08
54.15 53.15 52.58 52.16 51.14 50.99 51.28 51.24 50.78 50.88 50.10 41.26 39.19 40.48 39.50 37.25 42.93 43.23 44.69 43.80 44.75 45.83 46.34 48.38 49.67 48.88 47.88 47.99 43.70 40.89 41.03 39.97 42.55 44.25 41.55 40.50 39.44 37.23 37.61 36.07 41.63 47.27 52.73 51.98 49.93 46.96 52.81
53.97 53.42 52.79 51.91 51.56 51.64 51.43 51.54 50.35 50.83 49.95 41.04 39.01 39.95 40.42 37.86 40.94 45.10 43.28 43.21 41.34 40.51 44.57 46.73 49.07 49.83 48.01 44.02 42.28 36.66 36.28 39.12 39.42 40.88 41.83 42.09 39.20 39.09 37.90 34.71 34.99 46.65 53.07 55.38 54.83 43.31 52.62
53.97 53.42 52.78 52.02 51.81 51.85 51.54 51.49 50.31 50.40 49.78 43.55 40.19 40.28 40.07 37.31 40.97 42.44 40.47 40.05 42.19 41.14 40.51 41.42 43.35 47.23 45.51 40.32 38.33 37.16 36.94 41.33 37.51 35.40 36.89 37.22 37.06 35.76 35.23 35.42 40.10 50.95 52.69 54.09 42.82 42.68 51.96
53.86 53.34 52.89 52.49 52.12 52.02 51.75 51.56 50.38 50.14 50.04 43.59 38.96 41.67 40.71 37.01 39.51 43.05 45.70 40.19 40.24 40.20 38.51 41.16 44.20 45.12 44.04 41.94 38.76 37.58 38.14 41.84 40.85 42.34 40.70 40.85 40.08 36.71 35.92 34.01 34.16 52.35 51.67 47.53 49.20 51.68 53.36
53.74 53.20 52.59 52.31 51.72 51.79 51.83 51.47 50.50 49.89 49.70 44.66 35.78 41.81 43.44 40.61 41.18 42.15 45.86 47.63 45.03 44.10 41.56 41.16 43.32 43.26 46.27 43.76 42.67 42.28 42.41 42.89 41.14 39.36 44.98 42.13 44.09 42.54 43.93 43.12 49.42 52.54 50.29 52.63 52.43 52.83 54.53

GFSGBSN_sfc_wetblb_063.txt.gz
Wetbulb
55.84 55.90 55.99 56.02 55.92 55.83 55.89 55.95 56.05 55.96 55.98 55.98 56.19 56.10 56.05 55.98 56.21 56.56 56.88 57.57 57.76 57.61 57.84 58.30 58.89 59.59 59.79 51.56 51.54 70.58 74.88 74.05 72.32 62.24 58.72 56.68 54.09 53.80 51.90 54.81 54.98 53.97 55.06 56.00 56.71 59.26 59.87
55.36 55.41 55.56 55.69 55.72 55.58 55.68 55.70 55.74 55.65 55.57 55.51 55.53 55.49 55.41 55.33 55.96 56.45 56.76 56.92 56.88 57.24 57.67 58.18 58.89 58.98 55.00 48.34 60.45 69.96 69.80 69.62 66.37 59.64 57.49 56.08 53.61 54.83 54.92 54.69 53.87 55.30 55.25 55.35 57.69 61.33 62.01
54.97 55.05 55.23 55.42 55.41 55.22 55.34 55.42 55.50 55.47 55.14 55.18 54.99 55.02 54.96 55.05 55.12 55.94 56.26 56.43 56.54 56.81 57.54 58.43 59.17 59.50 53.62 51.02 63.27 66.12 63.39 61.16 59.70 58.19 54.10 55.36 54.69 55.42 55.64 53.92 55.54 54.56 53.43 55.98 58.35 59.94 61.47
54.78 54.65 54.54 54.91 54.94 55.01 55.00 55.06 55.16 54.93 54.78 54.76 54.74 54.58 54.66 54.62 55.01 55.58 55.81 55.62 56.09 57.17 58.74 60.75 59.53 60.13 50.10 54.85 58.74 60.34 62.02 59.15 57.59 58.00 55.41 57.42 58.20 56.35 55.06 55.84 53.12 52.30 53.99 52.37 55.93 58.27 60.60
54.53 54.50 54.46 54.46 54.40 54.61 54.67 54.60 54.52 54.35 54.26 54.38 54.30 54.16 54.48 54.46 54.95 55.15 54.60 54.84 56.33 58.13 60.20 60.57 59.17 55.47 49.86 59.98 54.05 58.12 60.35 57.89 57.21 57.36 57.31 57.32 56.95 53.90 53.53 51.63 50.96 50.86 48.98 50.33 52.76 56.51 57.86
54.13 54.25 54.35 54.27 54.09 54.16 54.27 54.23 54.22 53.99 54.08 54.07 54.09 54.27 54.41 54.62 54.59 54.43 53.90 55.39 56.69 58.16 60.04 60.54 60.13 52.72 53.07 51.90 56.62 57.91 58.47 58.38 56.93 55.69 55.17 54.79 54.12 52.87 52.10 51.16 47.98 47.60 47.55 48.92 49.79 53.56 53.84
53.74 53.81 53.99 53.84 53.73 53.64 53.80 53.85 53.71 53.58 53.76 54.17 54.23 54.15 54.21 54.23 54.19 53.61 53.56 53.50 53.11 52.56 52.43 53.76 52.87 50.76 52.45 57.03 57.61 57.13 56.90 56.60 55.00 53.86 50.62 51.86 50.68 49.54 51.36 51.45 50.46 49.53 48.79 48.80 51.42 52.69 51.76
53.22 53.51 53.61 53.56 53.39 53.38 53.48 53.38 53.25 53.39 53.56 53.60 53.90 53.98 54.02 53.82 53.25 53.31 51.47 51.45 49.48 49.58 47.67 51.99 51.26 51.75 54.53 56.34 52.55 55.11 56.63 53.75 53.43 50.68 51.44 50.80 48.91 52.29 51.04 50.60 49.85 49.43 48.68 49.07 51.14 53.41 53.29
53.29 53.21 53.30 53.09 52.97 52.97 53.06 53.00 52.83 53.06 53.59 53.53 53.69 53.76 53.58 53.04 52.53 51.36 48.39 50.78 51.64 50.76 47.98 50.41 51.78 51.83 52.43 54.68 52.08 53.12 55.15 53.75 51.90 50.16 50.21 49.05 50.38 51.04 50.31 50.23 49.38 50.12 48.79 49.70 49.01 51.46 54.35
53.16 53.29 53.30 53.09 52.68 52.69 52.84 52.65 52.67 52.56 53.24 53.57 53.51 53.43 52.86 51.74 49.17 48.27 49.98 51.46 50.90 50.56 45.76 46.84 48.20 51.37 51.67 53.29 50.42 55.05 56.49 54.70 51.27 50.07 49.91 49.71 51.23 50.00 49.83 49.27 50.30 48.27 50.78 49.86 48.80 49.68 47.56
53.24 53.55 53.20 52.72 52.49 52.52 52.38 52.35 52.43 52.56 53.16 53.24 53.25 52.98 52.35 51.42 48.09 47.13 50.50 50.54 50.87 49.34 36.58 47.62 48.53 53.22 51.27 49.96 50.06 51.80 54.93 54.12 50.99 49.52 50.44 48.75 49.38 49.22 49.12 49.73 50.54 49.59 50.13 49.90 50.19 51.21 49.53
53.22 53.41 53.11 52.35 52.51 52.50 52.14 52.29 52.31 52.66 52.89 53.00 52.85 52.59 51.45 48.92 47.96 49.59 50.38 50.07 51.09 44.51 36.04 44.63 49.48 48.15 47.91 49.42 49.54 51.00 52.30 54.26 54.00 50.74 50.04 50.01 51.30 51.24 50.84 51.70 51.22 51.16 49.35 48.56 49.23 49.20 45.18
53.32 53.41 53.09 52.26 52.44 52.54 52.00 52.33 52.50 52.59 52.65 52.63 52.18 51.38 50.09 49.90 46.30 49.62 50.51 51.13 44.14 38.74 45.75 44.35 46.11 48.17 47.30 46.56 47.61 49.23 49.15 49.36 48.72 46.67 47.11 49.24 48.86 51.04 51.83 49.37 50.55 49.54 48.75 45.90 43.64 43.70 43.57
53.72 53.24 52.80 52.30 52.42 52.25 51.96 52.02 52.48 52.46 52.26 52.04 50.97 50.59 50.04 50.43 51.53 50.06 49.99 47.50 39.17 43.13 43.81 46.89 47.38 47.61 46.24 47.19 46.79 47.42 47.65 46.95 48.04 48.28 47.02 45.13 43.87 48.40 51.37 50.55 49.71 49.59 49.80 45.86 40.68 41.43 43.85
54.37 53.34 52.61 52.35 52.64 52.40 52.48 52.31 52.09 52.20 52.00 51.22 49.95 48.64 48.34 50.65 51.42 50.23 48.31 41.82 42.50 44.06 46.15 45.24 46.24 45.24 46.16 47.11 46.62 46.54 47.48 47.37 49.21 49.74 47.00 45.53 44.75 49.73 50.61 51.80 52.36 48.75 47.84 48.96 46.09 44.36 44.54
54.83 53.77 52.57 52.64 52.37 52.04 52.13 52.15 52.21 52.14 51.65 50.73 46.74 46.47 49.28 51.44 51.72 48.49 45.28 42.02 44.17 44.96 46.89 45.84 43.24 45.66 44.04 46.14 46.24 46.99 46.40 49.12 47.42 48.99 50.70 49.49 45.05 48.80 50.28 51.96 50.48 51.18 51.19 46.71 47.53 42.63 41.44
54.74 53.83 52.94 52.64 52.27 51.83 52.15 52.17 52.12 51.90 51.18 49.21 46.63 45.73 50.26 52.17 48.11 46.98 41.01 42.83 44.65 47.26 47.79 45.34 44.90 43.91 45.09 44.94 46.07 46.05 46.86 49.87 51.50 49.66 49.48 49.22 49.13 47.46 50.17 50.22 49.65 48.55 48.43 47.44 48.26 47.17 44.15
55.11 53.82 53.06 52.85 52.37 52.02 52.19 52.32 51.75 51.23 50.11 46.51 43.68 42.10 50.74 50.56 43.78 42.30 42.56 44.51 44.88 46.97 48.08 47.14 47.40 46.15 44.62 45.24 46.15 46.21 46.92 49.59 51.60 51.96 48.37 49.39 48.96 46.59 47.18 49.74 50.54 50.87 50.60 51.35 46.37 45.93 47.17
55.10 54.09 53.39 53.01 52.35 52.08 52.33 52.30 51.61 50.99 50.23 44.82 41.30 42.92 52.01 48.81 41.22 42.25 43.72 44.05 45.71 45.60 46.27 45.59 45.85 47.51 47.90 46.72 45.41 46.46 47.60 50.55 51.55 53.71 52.03 49.95 47.77 45.13 46.49 48.01 50.03 50.09 49.44 50.04 50.11 50.54 48.35
55.12 54.13 53.51 52.68 52.56 51.85 51.87 52.21 51.56 51.29 50.47 45.84 43.04 45.86 48.25 47.59 44.48 43.29 43.47 44.43 44.31 47.24 46.03 46.29 45.64 47.82 46.94 46.66 47.75 46.55 47.44 49.93 51.32 52.46 55.34 54.98 47.66 48.04 44.30 46.94 49.29 49.67 49.16 49.35 51.32 49.10 49.09
55.14 54.35 53.28 52.50 52.58 51.66 51.56 52.17 51.80 51.39 49.84 46.84 44.15 44.71 46.97 44.03 44.89 45.11 45.40 45.08 44.16 43.98 47.27 47.22 45.86 45.47 46.45 46.00 45.93 46.10 49.48 50.30 50.37 54.69 54.20 52.92 49.70 48.83 48.88 48.18 49.12 49.67 50.59 49.93 49.99 51.35 49.97
55.34 54.45 53.57 52.95 52.27 51.77 51.45 52.10 51.74 51.05 48.24 46.87 43.73 45.89 47.95 45.74 46.88 45.80 44.22 45.46 44.39 46.33 46.72 46.36 45.23 46.83 46.71 46.92 48.34 46.85 50.04 50.32 49.65 52.16 52.40 52.71 51.67 51.02 49.51 49.84 50.73 48.80 49.97 50.42 50.41 49.92 51.28
55.36 54.59 53.84 52.75 52.23 51.66 51.28 51.64 51.49 50.28 45.50 41.30 44.58 48.52 46.40 45.26 46.05 44.82 45.71 45.69 45.92 47.30 49.34 48.96 47.87 47.67 45.38 48.02 49.94 52.50 52.97 53.05 52.24 51.52 51.28 52.06 51.68 50.94 46.39 50.44 49.48 47.10 48.76 49.73 52.25 53.83 53.65
55.16 54.92 53.88 52.68 52.33 51.45 51.20 51.51 51.19 50.40 47.96 45.65 42.82 45.05 44.48 44.39 45.38 46.46 46.70 46.35 45.78 47.92 47.05 49.87 51.32 51.07 52.25 54.78 53.53 52.53 51.56 51.42 51.59 51.18 50.96 50.23 51.55 51.40 48.32 49.13 42.17 48.97 57.87 56.54 55.28 54.86 56.14
55.17 54.64 53.86 53.06 52.52 51.39 50.76 51.20 50.90 50.80 48.29 47.71 45.75 42.54 44.29 42.16 44.79 46.33 46.13 46.84 47.53 48.87 48.04 50.40 52.05 52.90 53.74 52.82 49.65 47.82 47.36 48.03 48.50 48.65 49.62 49.91 50.27 47.54 46.01 46.20 47.41 52.09 55.15 55.04 54.67 52.70 55.96
55.01 54.54 53.93 53.28 52.89 51.81 51.45 51.52 50.78 50.92 49.82 47.27 44.83 44.28 45.03 41.89 43.45 46.11 45.40 45.19 45.64 46.27 49.58 50.63 52.39 53.78 52.72 50.34 48.33 43.53 42.18 44.57 44.80 46.21 49.23 49.61 50.81 48.03 46.63 43.41 41.36 51.22 54.80 56.36 57.21 51.52 56.27
54.91 54.36 53.97 53.66 52.79 52.12 51.98 51.73 51.05 50.59 49.80 48.45 45.80 44.86 45.34 42.05 45.54 46.82 45.05 43.58 46.38 46.80 46.01 46.71 47.64 51.71 52.59 47.99 45.02 43.69 43.31 46.10 43.49 43.56 46.49 47.29 47.74 45.27 45.02 43.71 46.80 54.07 55.07 56.86 49.64 50.48 56.91
54.61 54.28 53.81 53.48 52.79 52.08 52.10 51.83 51.20 50.06 50.18 47.54 44.36 45.57 45.71 43.65 45.43 46.53 47.55 45.21 46.20 46.56 44.79 48.37 49.86 51.74 52.25 48.98 46.72 46.23 45.71 48.56 48.01 48.72 48.78 48.27 47.60 46.32 44.78 43.46 41.48 55.34 54.19 52.12 54.55 56.77 56.60
54.47 54.04 53.56 53.16 52.80 52.48 52.35 51.96 51.31 49.95 49.57 45.75 41.53 46.07 46.85 44.14 46.78 47.65 49.90 50.99 50.06 49.00 46.07 48.46 49.62 49.49 51.58 50.81 49.71 50.32 49.61 50.23 48.61 46.38 51.16 48.68 51.41 51.01 51.14 49.66 54.64 56.88 54.74 55.83 56.02 55.01 56.12

GFSGBSN_sfc_wetblb_069.txt.gz
Wetbulb
56.50 56.43 56.59 56.61 56.47 56.40 56.42 56.63 56.62 56.53 56.27 56.37 56.39 56.30 56.38 56.30 56.86 57.07 57.47 57.59 57.55 57.69 57.99 58.67 59.36 60.02 62.83 60.01 57.75 73.02 75.78 75.21 72.14 71.84 66.60 65.28 63.02 63.08 60.21 60.86 61.28 59.97 60.98 61.61 61.96 61.97 63.12
56.28 56.18 56.07 56.19 56.09 56.12 56.18 56.16 56.18 56.09 56.04 56.10 55.95 56.17 56.37 56.43 56.49 56.65 56.91 56.90 56.99 57.30 57.98 58.82 59.62 59.51 63.01 54.21 64.81 72.28 71.71 71.36 67.92 66.24 64.64 63.54 61.86 62.87 59.82 59.43 59.57 61.19 60.70 60.83 61.60 61.23 63.01
55.72 55.77 55.87 55.76 55.74 55.79 55.76 55.95 55.97 55.75 55.63 55.64 55.80 55.99 56.13 56.04 56.15 56.43 56.51 56.45 56.57 57.03 57.99 59.27 60.54 63.00 57.97 56.22 62.50 69.65 70.38 68.33 67.69 66.08 62.28 63.09 62.88 60.08 60.46 59.47 61.41 60.18 58.06 60.22 60.37 60.75 60.83
55.11 55.17 55.37 55.41 55.42 55.32 55.50 55.58 55.62 55.30 55.33 55.35 55.34 55.50 55.80 55.82 55.84 56.01 55.78 55.54 56.17 57.14 59.04 61.28 61.77 63.23 56.76 60.80 63.23 65.98 69.48 67.76 67.87 65.98 63.35 62.00 61.67 60.05 59.52 60.94 59.78 57.50 57.60 54.97 59.14 60.25 60.66
54.56 54.63 55.00 55.08 54.92 54.78 54.91 54.95 55.01 54.72 54.77 55.03 55.08 55.26 55.22 55.16 55.18 55.02 54.61 54.65 56.12 58.74 60.49 62.12 64.11 62.53 55.12 61.44 57.84 62.04 66.01 63.90 64.73 63.37 63.67 61.93 60.78 58.40 58.11 55.10 53.79 55.80 53.07 54.13 56.46 60.18 58.47
54.62 54.53 54.60 54.73 54.64 54.35 54.40 54.45 54.36 54.28 54.40 54.74 54.73 54.81 54.83 54.85 54.49 54.28 53.81 54.79 60.93 58.76 61.18 65.00 63.58 57.28 58.30 55.98 59.58 60.50 62.00 62.00 60.60 59.95 59.05 59.00 57.47 55.46 55.62 53.70 49.13 51.45 53.34 54.98 54.67 57.16 57.83
54.68 54.71 54.53 54.68 54.30 54.04 54.09 53.98 53.93 53.91 53.99 54.41 54.42 54.48 54.48 54.31 53.95 53.52 55.52 59.78 58.33 59.62 59.78 55.81 57.44 56.44 56.46 58.88 60.67 59.64 61.14 59.42 59.55 57.93 54.38 57.06 53.67 52.02 54.16 55.62 55.33 54.37 53.52 53.57 56.17 57.65 56.45
54.51 54.45 54.46 54.51 54.21 53.85 53.87 53.62 53.45 53.45 53.68 53.88 54.11 54.21 54.27 54.03 53.53 53.10 56.25 56.18 54.89 54.66 51.89 57.00 56.94 57.12 59.72 59.62 55.51 58.10 61.50 56.99 56.74 53.83 55.88 54.05 51.93 54.99 55.69 55.36 54.40 54.00 52.40 52.40 54.63 56.29 55.88
54.62 54.43 54.35 54.36 53.97 53.59 53.89 53.98 53.73 53.75 53.81 53.78 53.82 53.70 53.59 53.10 52.52 57.04 54.77 56.28 58.51 57.17 52.36 53.59 56.35 56.16 56.68 58.16 54.96 56.23 59.25 57.75 56.11 54.47 54.45 52.37 53.80 55.60 54.23 53.75 52.45 52.82 52.31 52.81 52.67 54.96 56.03
55.13 54.52 54.41 54.42 54.11 53.69 53.80 53.71 53.24 53.58 53.54 53.45 53.35 53.29 53.02 51.70 53.21 54.65 55.59 58.48 57.62 58.14 48.68 50.36 53.43 55.90 57.48 57.58 54.24 58.73 60.07 58.02 56.24 54.21 54.98 54.15 55.96 54.15 53.11 52.09 52.79 50.80 54.57 53.82 52.58 51.93 49.27
55.74 54.99 54.29 54.46 54.10 53.60 53.65 53.44 53.21 53.31 53.29 53.04 53.08 53.02 52.59 50.86 54.43 53.38 54.64 56.54 57.26 57.60 40.41 52.11 53.49 59.65 58.31 54.62 55.64 56.43 60.18 57.92 54.48 55.01 55.32 53.23 53.58 53.18 51.95 52.20 53.61 51.80 54.89 53.53 53.52 52.35 52.19
56.71 55.62 54.55 54.32 54.01 53.47 53.77 53.54 53.31 53.27 53.02 52.91 52.56 52.42 52.26 55.26 56.69 55.97 56.43 56.36 56.21 47.01 40.75 49.59 53.14 52.57 52.88 54.59 55.32 56.34 56.80 58.47 58.20 55.34 56.10 55.15 57.57 55.75 54.54 55.06 53.97 55.09 53.58 53.75 53.62 52.45 47.90
57.35 56.27 55.03 54.34 53.95 53.51 53.72 53.27 53.43 53.22 52.96 52.46 51.81 51.30 51.01 54.52 52.13 56.04 56.13 53.54 46.44 42.44 51.14 49.08 49.84 52.10 51.92 51.71 53.56 54.70 53.46 53.11 51.52 50.33 50.97 53.69 54.09 55.85 56.03 53.10 54.68 53.87 51.81 47.36 47.21 47.52 46.80
57.64 56.91 55.60 54.49 54.13 53.66 53.53 53.37 53.39 53.08 52.63 52.11 51.03 50.20 54.91 56.33 57.60 57.17 54.75 48.71 42.62 47.99 48.79 52.26 50.70 51.67 49.88 52.11 52.32 53.42 53.25 51.92 54.33 53.62 51.28 49.82 48.66 53.71 55.82 53.78 52.45 52.55 52.09 47.96 45.18 46.52 48.73
57.77 56.99 56.18 55.07 54.49 53.74 53.39 53.25 53.25 52.83 52.19 51.39 49.69 55.00 54.87 57.64 59.08 57.42 50.70 43.66 45.63 49.21 51.54 49.66 50.54 48.14 49.08 50.92 51.56 51.98 51.76 51.71 53.88 55.01 51.03 50.07 50.26 55.83 55.93 56.20 55.07 52.45 50.90 53.97 50.58 51.82 48.88
57.76 57.21 56.49 55.53 54.51 53.54 53.39 53.18 53.18 52.88 51.76 50.71 51.53 53.33 54.40 59.89 59.71 55.39 47.30 43.57 48.65 52.00 51.64 50.69 46.99 49.35 47.45 49.26 49.87 50.55 51.00 53.02 52.16 54.50 56.12 53.39 49.65 54.34 54.90 55.57 55.40 53.66 55.11 49.64 50.40 46.07 45.29
57.82 57.30 56.52 55.32 54.48 53.32 53.04 53.02 52.98 52.47 51.32 49.79 52.38 49.87 58.46 60.30 59.33 51.25 43.75 46.31 49.31 51.93 52.14 50.11 48.90 48.48 49.52 49.14 50.79 50.43 50.88 53.08 53.83 53.77 55.51 54.01 52.60 52.14 53.89 52.09 51.40 51.91 50.91 52.35 52.67 51.28 46.92
57.79 57.16 56.26 55.29 54.40 53.17 52.82 52.75 52.80 51.41 50.23 50.68 51.08 47.06 58.17 58.05 49.32 49.13 45.94 47.96 48.49 50.08 52.34 51.18 51.10 50.10 49.68 50.30 49.56 50.20 50.36 52.59 55.92 55.24 51.81 54.40 52.67 49.65 51.28 54.63 55.30 54.63 53.34 52.85 48.76 49.24 50.90
58.03 57.23 56.17 55.47 54.35 53.30 52.55 52.56 52.55 51.20 50.76 49.57 48.72 48.92 58.23 55.41 46.55 47.94 49.81 47.74 49.05 49.10 50.02 50.08 49.63 50.88 51.25 49.56 48.36 50.29 52.48 55.11 56.05 55.99 54.48 54.90 51.30 47.71 49.45 52.19 54.40 52.24 53.69 54.57 54.38 53.96 51.31
57.73 57.29 56.37 55.39 54.66 53.48 52.45 52.02 52.71 51.85 51.27 50.10 49.19 47.30 53.73 53.67 52.82 49.87 49.20 47.98 46.95 49.61 48.91 50.23 50.30 51.41 50.34 49.28 51.78 50.02 51.69 53.35 54.72 56.79 59.70 60.71 53.59 51.05 46.85 50.29 52.61 51.24 51.61 53.20 53.17 50.86 50.93
57.40 57.17 56.17 55.25 54.66 53.44 52.47 51.88 52.44 51.86 51.27 50.20 51.47 49.44 54.71 50.82 49.28 50.31 49.99 49.65 48.62 48.60 51.24 51.98 50.18 49.45 49.39 48.24 49.27 49.76 51.23 52.87 53.98 55.08 56.57 56.66 52.47 53.20 52.94 51.96 53.41 52.33 51.48 51.64 51.61 52.63 50.45
57.32 57.13 56.17 55.47 54.68 53.41 52.64 51.80 52.12 51.49 50.43 51.64 50.14 51.86 54.91 53.03 54.52 52.22 49.07 49.23 49.77 51.65 52.16 51.05 50.35 50.23 51.29 49.36 50.19 49.07 51.21 52.69 52.82 55.11 55.03 57.46 53.59 55.72 52.02 52.60 52.43 51.02 52.12 52.62 52.34 52.72 52.82
56.96 57.09 56.31 55.63 54.66 53.88 52.57 51.89 51.71 50.92 49.40 50.65 51.86 52.29 52.52 50.50 53.15 51.94 50.80 49.28 49.86 51.90 53.56 53.85 52.99 51.95 51.08 52.21 53.68 53.49 54.54 55.90 56.33 55.38 53.98 54.66 54.38 53.62 49.01 51.73 51.58 48.85 51.07 51.92 52.98 53.81 53.76
56.61 56.73 56.45 55.59 54.98 53.72 52.80 52.18 51.58 50.44 49.17 52.13 51.57 49.03 49.15 47.98 51.10 49.96 51.36 51.56 51.54 52.62 51.54 54.20 54.63 54.71 57.00 60.21 57.82 56.31 54.44 55.42 55.89 55.48 56.48 54.66 54.99 53.82 49.44 50.23 42.61 55.26 59.59 56.42 54.80 58.95 60.17
55.97 56.43 56.25 55.69 55.10 53.88 52.92 52.10 52.16 50.57 50.26 51.42 53.09 49.60 49.83 47.91 51.78 51.61 51.05 49.83 53.03 54.70 53.88 54.07 55.94 58.52 60.57 57.33 53.07 50.44 50.30 52.15 52.93 54.15 55.15 55.34 54.25 50.40 47.82 47.88 51.21 55.45 58.16 57.16 55.39 58.02 61.71
55.33 56.23 56.09 55.65 54.82 54.03 53.25 51.95 52.32 50.97 50.40 51.14 52.82 53.52 49.83 48.71 49.65 51.45 50.16 52.10 50.49 50.85 53.36 54.34 58.38 60.31 58.78 55.50 51.79 47.51 45.79 48.80 48.37 50.91 55.87 55.41 56.48 51.54 49.82 45.85 44.47 55.04 59.64 62.36 61.49 54.59 61.78
54.88 55.73 55.71 55.55 55.00 54.27 53.50 52.33 52.43 51.60 50.87 50.56 52.29 54.37 50.67 48.16 51.89 51.72 49.70 50.02 52.75 52.43 52.39 54.49 55.54 55.33 57.08 53.15 48.75 47.99 46.02 51.50 46.70 47.84 50.27 50.95 51.47 48.06 47.82 46.30 49.33 58.43 59.67 62.04 51.62 54.74 61.18
54.82 55.57 55.39 55.09 54.80 54.49 53.60 53.01 52.64 52.05 50.98 50.85 52.09 55.42 49.77 48.34 51.40 52.74 52.51 50.95 51.37 53.07 50.66 52.62 53.65 54.82 52.67 50.01 50.34 49.14 48.21 48.68 50.37 51.66 50.64 49.93 49.51 48.38 49.05 46.90 44.50 60.13 58.56 56.01 57.83 60.92 60.88
54.78 55.35 55.05 54.75 54.52 54.52 54.03 53.36 52.78 52.13 51.05 49.72 49.69 54.88 54.50 49.67 50.59 54.07 53.81 54.39 53.97 53.48 51.29 54.44 56.02 54.52 54.77 52.38 52.33 52.94 49.96 52.49 50.16 46.82 56.22 47.86 52.20 52.52 54.18 53.20 59.52 60.65 59.16 60.46 60.54 59.80 60.09

GFSGBSN_sfc_wetblb_072.txt.gz
Wetbulb
56.80 56.75 56.70 56.71 56.62 56.59 56.69 57.00 57.13 56.93 56.67 56.62 56.54 56.47 56.40 56.53 56.89 57.20 57.58 57.77 57.55 57.55 57.89 58.57 59.40 60.48 61.79 57.04 58.98 71.86 75.81 74.33 71.37 69.33 66.94 66.83 64.52 62.74 59.81 60.67 60.46 59.28 59.99 61.47 61.67 61.37 61.38
56.23 56.30 56.45 56.38 56.22 56.21 56.33 56.39 56.24 56.17 56.36 56.28 56.18 56.49 56.63 56.62 56.68 56.67 56.80 56.94 56.79 57.04 57.72 58.64 59.61 59.85 61.51 53.81 67.17 70.94 70.77 70.06 66.97 66.41 66.54 65.68 64.66 63.61 60.65 59.16 58.30 59.64 59.65 60.11 61.09 61.09 61.38
55.54 55.74 55.96 55.85 55.84 55.68 55.69 55.99 55.91 55.79 55.66 55.67 55.94 55.89 56.15 56.32 56.33 56.25 56.25 56.04 56.25 56.84 57.73 58.66 60.38 62.64 57.49 55.55 62.45 69.44 69.76 67.58 65.79 65.09 62.83 64.11 65.09 61.40 61.28 58.37 60.24 59.66 56.94 57.95 59.45 60.43 59.95
55.12 55.16 55.55 55.50 55.45 55.25 55.36 55.42 55.54 55.33 55.24 55.35 55.44 55.64 55.82 55.80 55.71 55.92 55.83 55.38 55.94 57.00 58.19 59.92 62.16 62.71 55.30 61.37 63.40 62.06 67.99 67.36 66.89 66.59 64.70 64.20 62.38 59.36 58.08 59.39 57.77 55.95 56.33 52.87 57.51 59.58 60.43
55.14 55.10 55.13 55.19 55.08 54.71 54.81 54.76 54.82 54.67 54.80 55.18 54.95 55.01 55.23 55.27 55.28 54.96 54.60 54.68 56.15 58.01 59.72 61.51 62.53 60.47 56.88 63.94 58.77 61.14 64.92 65.19 65.31 65.09 64.17 63.55 60.72 57.33 57.43 53.89 52.18 53.71 49.68 52.73 55.14 59.09 59.19
55.12 55.12 55.12 55.03 54.90 54.32 54.44 54.47 54.18 54.25 54.67 54.54 54.42 54.56 54.67 54.65 54.53 54.35 53.93 54.90 60.55 59.94 60.24 63.36 62.70 56.93 58.11 56.61 59.32 60.26 62.44 64.90 63.34 62.23 59.84 58.72 57.19 54.08 54.04 52.46 47.51 50.33 50.94 52.84 54.04 57.40 58.24
55.10 55.04 55.09 55.18 54.78 54.25 54.27 54.30 53.97 54.29 54.42 54.18 54.27 54.18 54.20 54.12 53.92 53.59 53.89 58.35 57.58 58.44 58.52 55.76 56.81 55.39 56.39 59.91 61.22 59.25 60.48 58.94 59.85 58.44 54.40 56.34 52.89 50.60 52.56 54.33 54.35 53.69 52.63 51.99 54.71 57.60 56.47
55.47 55.05 54.85 54.96 54.75 54.25 54.26 54.11 53.88 53.97 54.11 54.09 54.02 53.88 53.79 53.79 53.33 53.02 54.81 55.96 56.17 55.63 50.42 55.33 56.26 57.94 59.25 60.17 55.60 57.54 61.02 55.57 55.10 52.75 55.12 53.54 51.05 54.34 55.43 55.08 54.04 53.62 52.23 52.10 54.17 55.71 55.02
56.23 55.43 54.99 54.92 54.84 54.58 54.47 54.66 54.29 54.15 53.94 53.76 53.61 53.50 53.46 53.11 52.30 56.33 56.34 55.02 59.48 56.98 50.40 52.22 54.55 54.28 56.72 58.07 55.80 56.18 58.68 56.99 54.27 52.68 53.65 52.13 53.54 55.56 54.29 53.32 52.10 52.42 51.27 51.39 51.67 54.59 55.43
57.05 56.16 55.38 54.92 54.94 54.98 54.75 54.55 54.00 53.82 53.75 53.46 53.34 53.19 52.86 51.79 53.70 55.04 54.24 58.40 57.99 57.25 47.18 49.45 52.30 54.14 55.53 56.85 54.07 58.62 59.24 57.35 55.24 53.24 54.61 54.02 55.98 54.26 53.29 52.19 52.87 50.15 53.56 53.08 52.23 51.51 48.00
57.74 57.13 56.08 55.23 55.26 55.14 54.83 54.47 54.00 53.69 53.60 53.34 53.17 53.00 52.45 51.25 51.64 53.55 55.90 57.04 56.98 55.64 38.47 51.49 53.49 59.41 56.77 53.50 55.89 55.93 59.39 56.58 53.45 53.81 54.60 52.83 53.77 53.37 52.32 52.80 53.93 51.40 53.90 52.73 52.89 51.36 51.01
58.30 57.82 57.01 55.90 55.08 55.02 54.56 54.14 53.69 53.56 53.34 53.07 52.84 52.28 51.95 53.55 55.06 57.13 57.50 56.49 54.90 45.78 39.42 48.97 53.31 52.52 52.44 53.59 53.94 56.90 56.29 57.64 56.92 53.81 54.99 54.54 57.35 55.62 54.60 55.37 54.73 54.86 52.13 52.24 52.62 51.14 46.36
58.50 58.14 57.55 56.63 55.59 55.15 54.47 53.93 53.62 53.38 53.15 52.88 52.15 51.09 50.39 53.22 50.87 55.41 55.84 53.14 44.36 40.97 50.70 48.42 49.27 52.37 51.44 51.07 52.18 53.29 53.09 52.86 50.86 49.14 50.09 52.80 53.41 55.78 56.53 53.32 54.95 53.43 49.95 45.45 45.31 45.34 44.83
58.50 58.32 57.75 56.94 55.97 55.13 54.37 53.79 53.50 53.11 53.02 52.32 50.97 50.14 54.86 55.85 57.67 57.67 55.02 48.12 40.43 46.76 47.97 51.99 51.09 51.47 49.25 51.09 51.27 51.86 51.56 50.74 53.45 51.98 49.78 48.51 46.89 52.97 55.85 53.77 51.96 52.08 50.90 46.24 43.23 44.02 47.24
58.37 58.19 57.94 57.25 56.31 55.25 54.20 53.85 53.38 52.94 52.64 51.41 49.62 55.97 54.46 57.60 59.17 57.82 50.44 42.89 44.35 47.59 50.50 49.81 50.85 48.40 48.79 50.42 50.71 50.55 50.23 50.67 52.64 53.37 50.30 49.08 48.55 54.95 55.41 55.97 54.73 51.87 50.18 52.79 48.54 49.60 46.82
58.60 58.22 57.93 57.24 56.56 55.29 54.28 53.81 53.35 52.96 52.14 50.77 49.53 52.92 54.57 58.40 59.72 54.98 47.60 42.58 47.03 51.19 51.34 51.11 47.57 49.37 47.05 48.80 48.63 49.27 49.65 52.24 52.19 54.34 55.92 52.80 49.07 52.79 54.39 56.07 55.85 53.45 54.34 48.18 49.57 44.93 44.21
58.26 58.22 57.66 57.11 56.35 55.17 54.33 53.79 52.96 52.55 51.36 49.47 52.30 50.71 58.30 60.03 59.01 52.17 44.72 46.37 48.87 51.70 52.27 49.93 49.03 48.35 48.98 48.44 48.90 48.77 49.56 51.92 53.76 53.01 54.49 53.03 52.63 51.32 53.82 52.38 51.77 52.05 50.49 51.27 50.61 50.18 45.55
57.63 57.96 57.52 57.04 56.45 55.21 54.27 53.44 52.72 51.87 50.04 50.84 51.44 46.80 58.67 58.99 49.87 50.93 47.49 48.89 48.59 50.08 52.20 51.18 51.23 50.19 49.25 49.27 48.97 49.60 49.40 52.02 55.30 55.00 50.93 53.06 50.88 48.93 49.67 54.33 55.93 53.94 52.30 51.87 47.81 48.49 50.53
57.57 57.47 57.60 56.92 56.18 55.06 53.83 53.09 52.59 51.74 50.88 48.42 48.74 50.58 55.08 55.80 44.66 47.70 51.02 50.27 49.81 49.19 49.65 49.70 49.46 51.03 51.63 49.14 47.43 49.93 50.53 53.52 55.54 54.46 54.71 56.49 50.94 46.59 48.54 51.70 53.92 51.52 52.37 52.78 54.41 54.46 50.09
57.63 57.35 57.58 56.62 56.20 55.02 53.79 52.69 52.88 52.47 51.58 49.22 48.57 46.99 51.69 54.69 51.70 49.18 48.69 49.48 49.14 51.41 49.55 50.10 49.81 51.14 50.02 49.07 50.97 48.90 49.49 52.10 54.93 54.49 60.38 59.81 53.52 52.86 45.63 49.76 52.66 51.44 51.34 52.46 52.49 50.65 50.52
57.53 57.17 57.32 56.40 55.90 55.02 53.74 53.06 52.62 52.78 51.85 49.64 51.26 49.20 51.95 47.90 51.45 52.34 51.86 49.82 48.37 48.68 52.40 50.49 49.80 49.18 48.35 46.91 48.40 48.31 50.16 51.37 53.16 58.68 55.27 56.09 53.43 53.01 51.72 51.36 51.16 51.34 51.44 51.64 50.56 51.69 49.33
57.09 57.15 57.30 56.58 55.90 54.85 53.84 52.97 52.43 52.53 50.75 49.43 49.20 48.70 52.45 50.64 52.88 52.20 50.28 49.80 48.42 49.50 51.64 50.98 50.56 50.29 50.89 49.02 49.01 48.16 50.30 51.21 51.24 54.64 53.30 56.14 53.27 54.05 51.13 52.78 52.86 50.24 52.10 52.88 52.30 51.49 51.33
55.81 57.20 57.12 56.40 55.88 55.05 54.04 53.01 52.53 52.09 49.52 52.18 53.26 52.44 48.64 47.48 50.56 51.29 51.20 51.06 49.62 52.01 52.52 53.82 53.34 51.93 50.46 50.88 54.86 54.58 53.39 53.88 53.90 55.22 54.46 54.26 54.67 53.31 49.23 50.26 50.60 47.74 51.68 53.99 52.55 53.87 55.32
54.69 56.28 56.78 56.54 55.90 55.07 54.14 53.11 52.65 52.22 50.22 50.79 51.59 51.43 45.99 44.79 48.85 50.29 51.87 51.95 51.92 52.10 50.86 52.38 54.41 52.66 56.16 60.19 58.64 56.41 54.39 53.19 53.36 54.92 56.76 50.06 50.58 54.08 49.29 52.46 43.92 51.83 57.45 58.72 57.19 59.86 60.75
54.09 55.34 56.62 56.68 56.14 55.25 54.20 53.27 52.53 52.29 51.63 50.14 51.78 50.52 47.32 44.58 49.43 50.89 51.25 51.20 52.58 53.47 53.14 53.15 54.74 57.62 59.39 57.14 52.53 50.64 49.72 50.83 51.57 53.26 55.25 55.78 54.20 50.12 47.60 46.79 49.99 52.27 53.49 53.71 57.28 55.51 60.72
53.46 54.87 56.40 56.60 56.00 55.39 54.28 53.53 52.49 52.45 51.69 50.63 52.07 54.34 49.62 45.15 46.45 51.06 50.15 52.03 50.16 49.65 51.52 53.89 57.60 59.83 58.08 54.23 52.15 47.01 44.35 47.33 46.87 49.83 54.46 54.70 58.31 51.03 49.49 45.07 43.25 50.63 51.87 53.53 57.17 53.56 60.40
53.68 54.44 55.76 56.28 56.08 55.39 54.55 53.78 52.62 52.62 51.82 50.30 51.00 55.01 49.77 45.25 48.82 50.50 49.16 49.17 52.27 50.94 49.72 53.91 54.97 55.40 57.02 52.10 48.64 46.77 46.66 51.91 46.89 47.44 50.23 50.29 52.26 48.13 47.79 45.28 48.49 57.63 57.46 59.87 48.14 53.21 60.63
54.11 54.34 55.52 55.84 55.58 55.23 54.77 54.00 52.82 52.80 52.03 50.98 50.87 55.39 50.50 46.14 47.91 50.25 51.93 50.78 51.36 51.73 49.01 52.43 52.49 55.11 53.81 50.64 45.43 46.62 46.97 50.82 49.94 48.44 50.25 49.30 47.55 48.06 49.90 46.92 44.47 59.50 59.48 55.63 58.98 61.00 60.28
54.53 54.44 55.32 55.34 55.08 55.03 54.83 53.91 53.49 52.96 52.09 50.62 49.02 54.91 53.87 48.96 48.67 52.43 51.85 52.68 52.13 52.70 51.02 52.13 52.64 50.85 55.26 51.55 52.91 49.33 47.24 51.36 49.83 43.16 52.81 47.90 47.54 50.62 53.93 53.42 60.16 59.57 58.63 60.37 61.28 59.83 59.82

GFSGBSN_sfc_wetblb_075.txt.gz
Wetbulb
56.71 56.94 56.87 56.67 56.53 56.50 56.56 56.95 57.06 57.14 56.98 56.57 56.31 56.08 56.27 56.71 57.03 57.15 57.38 57.62 57.36 57.23 57.46 58.11 58.97 60.26 58.60 52.46 56.00 71.21 75.46 73.95 70.33 68.05 61.89 61.36 62.11 61.41 58.50 58.56 58.28 55.15 56.80 57.50 58.19 58.48 59.19
56.19 56.39 56.42 56.37 56.26 56.02 56.16 56.12 56.16 56.21 56.24 56.22 55.99 56.20 56.42 56.55 56.72 56.66 56.70 56.70 56.68 56.88 57.40 58.12 59.17 60.11 58.90 50.20 61.38 71.96 69.40 69.08 67.23 64.64 62.32 62.35 63.49 63.18 60.35 57.51 55.37 56.00 56.05 56.58 57.08 57.54 59.21
55.81 55.87 56.00 55.83 55.70 55.54 55.81 55.76 55.68 55.57 55.46 55.63 55.75 55.83 55.91 56.06 56.30 56.17 56.19 56.09 56.00 56.42 57.38 58.11 59.31 61.15 56.50 52.34 58.08 68.84 67.73 65.90 66.48 63.00 60.72 63.30 63.42 59.54 58.93 55.37 58.09 55.88 52.32 54.66 55.58 56.25 56.63
55.58 55.51 55.51 55.55 55.40 55.14 55.14 55.26 55.06 54.81 55.00 55.29 55.27 55.34 55.46 55.61 55.57 55.61 55.56 55.25 55.59 56.68 57.63 59.08 60.65 58.98 52.99 58.66 57.25 57.90 65.70 65.88 65.27 62.76 62.15 62.43 61.32 57.04 52.80 54.96 53.49 51.32 50.25 46.77 53.66 55.64 56.58
55.76 55.59 55.59 55.64 55.23 54.93 54.82 54.83 54.64 54.58 54.82 54.74 54.80 54.93 54.97 54.97 54.88 54.82 54.52 54.43 55.99 58.38 59.60 61.14 58.32 55.04 51.54 63.43 56.98 58.36 58.73 63.34 64.39 63.18 62.71 64.80 59.53 52.92 52.86 48.80 46.18 47.54 44.72 46.83 49.76 54.78 55.76
56.12 55.68 55.68 55.64 55.52 55.11 55.00 55.16 55.11 54.82 54.55 54.37 54.36 54.36 54.31 54.31 54.25 54.15 53.81 54.70 56.75 58.60 58.70 61.23 60.58 52.69 56.36 54.09 58.21 57.90 56.93 61.16 62.35 61.46 60.18 58.79 53.09 49.37 48.03 45.10 40.63 44.28 45.12 46.85 48.40 53.41 55.27
56.54 55.93 55.55 55.47 55.59 55.41 55.44 55.22 55.16 54.63 54.57 54.22 54.03 54.07 53.84 53.80 53.61 53.51 51.22 50.61 52.90 53.31 54.28 52.54 53.58 53.22 54.23 57.71 59.53 56.63 57.36 57.22 58.60 59.39 53.01 54.85 47.48 45.04 47.79 49.19 50.04 49.70 48.54 47.79 50.76 53.66 51.07
57.32 56.58 56.08 55.52 55.88 55.87 55.44 55.26 55.17 54.69 54.36 54.36 54.25 53.92 53.77 53.48 52.82 52.58 50.81 51.08 51.11 52.21 46.73 52.10 52.39 52.83 55.13 56.28 53.86 56.52 57.10 51.49 52.39 50.54 52.83 49.92 47.10 51.06 53.14 52.77 51.11 50.08 48.05 47.75 50.88 53.22 50.33
58.34 57.64 56.85 56.32 56.05 55.91 55.62 55.03 54.70 54.38 54.19 54.00 53.90 53.65 53.42 52.80 52.08 53.53 51.67 51.39 54.66 53.07 45.63 48.98 51.51 51.48 52.18 52.79 51.82 54.22 54.28 53.20 50.10 49.24 49.60 47.69 50.08 53.90 52.72 51.20 49.78 47.64 45.65 47.55 47.58 50.58 50.60
58.64 58.24 57.71 56.97 56.36 55.89 55.68 55.03 54.66 54.31 53.98 53.61 53.56 53.58 52.94 51.56 51.27 50.00 50.57 54.78 54.36 53.25 40.66 46.36 48.78 51.54 52.29 52.71 49.13 55.09 57.08 54.25 51.63 48.59 49.96 49.01 52.89 52.56 51.87 50.52 50.22 43.07 51.20 51.21 49.92 46.69 41.86
58.84 58.38 58.05 57.57 56.80 56.19 55.60 54.96 54.37 54.06 53.81 53.46 53.25 53.21 52.61 51.36 47.04 49.54 53.38 55.76 54.73 50.62 32.63 49.70 50.27 56.18 52.88 49.75 50.79 51.66 56.48 53.84 49.74 50.38 50.00 48.72 50.81 51.15 50.68 50.91 51.34 47.63 51.60 49.67 49.20 44.98 42.83
59.13 58.90 58.40 57.82 57.22 56.45 55.59 54.79 54.16 53.83 53.54 53.15 52.99 52.73 52.17 50.73 49.34 52.29 53.92 53.98 50.59 39.70 35.03 46.93 51.05 49.92 49.49 50.47 50.32 52.13 52.43 55.39 53.81 50.05 51.15 50.85 54.52 53.15 52.04 53.91 52.95 53.12 49.38 47.63 45.74 42.28 38.34
59.33 59.12 58.81 58.29 57.65 56.56 55.81 54.73 54.08 53.77 53.46 53.05 52.44 51.61 50.20 50.57 46.70 50.78 53.01 49.80 38.48 35.41 48.23 45.44 46.73 49.13 49.36 48.30 48.92 49.41 48.47 48.73 46.66 42.89 43.90 48.30 49.98 52.95 54.44 50.83 52.10 49.81 45.26 36.82 36.17 37.05 38.20
59.15 58.82 58.71 58.33 57.76 56.94 55.83 54.85 54.03 53.62 53.06 52.38 51.39 50.50 50.99 52.98 52.20 51.40 51.36 43.54 35.06 43.99 44.98 49.09 48.87 48.93 47.35 49.13 49.04 49.19 47.87 46.39 50.07 48.13 44.20 43.17 42.59 50.04 53.24 50.89 48.17 47.72 44.24 37.92 34.13 36.37 40.79
58.79 58.57 58.74 58.34 57.91 57.07 55.91 54.77 53.81 53.35 52.65 51.82 50.24 50.92 52.61 54.72 54.97 54.60 46.81 37.33 39.67 45.15 48.19 47.24 47.40 45.62 46.34 49.04 48.92 48.69 47.28 46.60 49.39 50.04 45.41 43.79 44.48 52.56 53.07 53.52 51.77 47.74 44.36 46.78 40.46 41.02 38.57
58.78 58.74 58.64 58.26 57.78 57.25 56.01 54.77 54.01 53.17 52.30 51.01 45.82 48.39 52.36 56.19 56.77 51.97 43.53 39.56 43.33 47.69 48.05 47.69 43.27 46.31 44.20 46.58 46.61 47.13 47.57 51.04 50.27 52.03 52.40 47.88 42.67 49.39 52.12 53.34 53.14 49.58 50.84 42.62 40.88 35.53 35.11
57.51 57.53 57.82 58.00 57.56 57.33 55.95 54.75 53.60 52.55 51.73 49.82 47.60 48.76 54.41 57.51 56.27 48.94 40.22 42.41 46.24 49.51 49.55 47.09 45.66 45.33 45.80 45.81 46.38 45.51 46.88 50.62 52.23 52.24 52.83 50.68 47.22 46.67 50.39 48.51 47.11 48.75 47.84 44.31 43.60 42.13 37.34
57.73 57.41 57.23 57.52 57.64 57.25 55.93 54.55 53.06 51.82 50.44 49.01 47.32 44.32 56.73 56.88 46.73 47.15 44.36 47.56 48.34 48.59 49.67 48.36 48.66 47.46 46.31 47.14 45.54 45.88 45.93 49.37 53.23 52.00 48.36 51.82 48.12 44.28 46.30 51.21 53.03 50.91 48.67 48.21 41.16 39.35 42.16
57.65 57.54 57.13 57.24 57.34 56.91 55.85 54.59 53.04 51.75 51.05 45.34 44.09 47.60 55.04 53.53 41.38 42.63 46.52 48.14 49.77 49.37 47.84 47.38 46.68 48.30 48.70 46.17 43.28 47.50 48.20 51.44 52.67 51.62 50.85 49.94 46.72 42.46 41.15 46.41 49.78 48.31 50.10 48.37 46.28 44.01 41.38
56.60 57.43 57.12 56.96 57.22 56.72 55.58 54.54 53.54 52.40 52.14 47.18 44.35 43.81 49.61 51.39 50.98 46.97 45.17 45.86 47.24 51.11 50.46 50.68 47.77 47.95 46.31 44.88 46.83 45.72 47.72 50.70 52.37 51.58 60.00 54.50 47.05 45.82 40.82 44.77 48.68 47.50 49.70 49.17 44.75 41.42 42.74
55.56 56.45 57.11 56.82 57.02 56.48 55.56 54.54 53.96 52.92 52.33 47.38 47.23 47.32 49.36 44.93 46.01 48.01 49.65 49.71 47.71 46.91 50.24 52.19 50.07 48.12 46.05 42.12 44.45 44.43 47.34 48.79 51.52 54.93 53.72 51.05 44.79 49.66 48.60 50.46 50.76 49.55 49.09 49.53 47.71 46.13 45.65
55.10 55.71 57.05 56.72 56.86 56.44 55.38 54.45 53.97 52.84 51.21 46.11 44.65 45.21 46.69 44.48 46.98 46.97 47.72 48.21 49.12 48.78 49.27 48.91 47.92 50.31 50.42 46.06 46.67 45.43 47.04 45.75 46.96 50.96 50.70 52.75 46.41 48.21 48.16 51.73 50.59 50.18 52.50 52.48 53.18 53.95 52.37
53.82 55.18 56.52 56.74 56.86 56.22 55.40 54.49 53.66 52.59 49.74 48.42 50.89 50.73 47.23 44.13 44.20 44.76 47.58 50.12 50.40 51.49 52.17 52.45 51.01 49.46 49.02 51.07 53.55 53.83 52.62 51.07 49.40 47.69 49.79 49.22 46.32 44.39 43.46 49.42 49.41 45.61 53.39 55.66 55.26 53.82 55.00
53.42 53.80 55.56 56.80 56.64 56.24 55.50 54.57 53.51 53.19 50.90 48.44 48.53 48.02 44.86 40.37 43.08 44.74 48.26 51.20 50.61 51.41 49.42 52.00 52.59 50.58 53.80 57.22 56.48 55.73 53.72 52.22 51.82 50.60 52.89 49.10 45.97 45.25 43.77 46.39 39.03 48.77 54.67 57.11 53.03 54.72 55.37
53.38 53.44 54.63 56.22 56.80 56.60 55.60 54.65 53.65 53.07 52.71 48.30 49.14 46.88 45.57 40.50 43.56 44.48 47.81 48.09 49.38 51.44 51.32 51.15 54.07 55.35 55.79 54.15 49.71 46.57 46.73 47.33 48.92 51.18 50.19 49.79 46.90 41.29 41.57 41.01 46.16 52.68 50.50 51.81 50.92 47.67 55.82
54.46 53.30 54.00 55.68 56.76 56.54 55.76 54.59 53.82 52.94 52.59 49.18 48.41 50.45 48.83 42.55 41.50 45.78 43.62 46.67 46.11 46.21 48.11 50.24 54.60 55.60 55.19 51.16 48.20 41.80 40.85 45.17 44.41 46.41 48.69 48.52 47.72 44.66 44.22 40.13 39.55 50.64 52.39 55.07 53.69 46.42 56.46
54.06 53.35 53.41 55.24 56.58 56.56 55.94 54.79 53.88 53.01 52.61 49.39 48.73 50.52 48.50 42.97 45.56 45.63 42.56 43.43 47.45 47.30 46.27 50.18 48.95 50.79 53.79 49.52 46.49 43.92 43.06 48.95 44.49 43.70 46.07 46.42 46.33 43.68 43.98 41.84 48.49 54.26 54.11 55.57 45.14 48.31 58.74
53.64 54.01 53.52 54.99 56.10 56.30 55.66 54.91 54.15 52.93 53.16 50.68 48.54 51.15 49.12 44.72 45.50 47.59 48.01 45.74 46.95 47.29 44.61 47.73 47.81 50.46 49.89 47.13 45.92 45.16 45.33 46.62 46.96 48.13 45.09 45.03 43.46 43.97 44.85 41.77 39.91 57.09 55.92 52.26 54.81 56.91 58.35
53.47 54.30 54.07 55.05 55.70 55.70 55.43 55.01 53.96 53.39 53.15 51.28 45.94 53.01 53.30 48.26 45.68 49.36 48.85 49.31 48.13 47.99 46.25 47.29 49.17 51.13 51.29 49.25 48.81 48.65 45.20 47.53 45.56 42.53 48.55 44.66 48.29 45.84 46.41 47.13 54.84 56.59 55.45 57.78 57.57 56.31 57.14

GFSGBSN_sfc_wetblb_078.txt.gz
Wetbulb
56.62 56.76 56.88 56.66 56.40 56.39 56.43 56.53 56.90 56.77 56.36 55.73 55.90 56.01 56.10 56.42 56.69 57.04 57.19 57.12 57.05 57.07 57.37 58.01 58.60 59.33 56.33 48.40 52.88 69.07 74.97 73.13 68.49 66.27 62.57 58.46 57.86 58.58 56.43 58.32 58.28 53.57 54.86 55.34 55.05 55.21 56.28
56.31 56.30 56.51 56.31 55.97 55.88 55.89 56.08 55.86 55.99 56.10 55.81 55.64 55.73 56.04 56.23 56.42 56.37 56.40 56.41 56.50 56.57 57.12 57.72 58.56 59.38 55.68 48.82 56.65 71.92 69.37 67.55 65.85 63.51 61.19 59.35 60.00 62.29 58.73 57.63 53.70 55.17 53.48 53.46 53.90 54.82 55.77
56.10 56.08 56.09 55.98 55.73 55.26 55.32 55.40 55.27 54.65 54.96 55.16 55.59 55.56 55.71 55.78 55.98 55.97 55.98 55.88 56.04 56.47 57.00 57.99 58.29 59.22 55.17 49.41 55.59 67.93 67.13 64.57 65.40 63.02 59.49 60.91 61.28 59.12 57.25 54.62 56.10 51.92 49.56 51.67 53.02 53.36 53.25
55.97 55.97 56.05 56.15 56.02 55.70 55.26 55.25 54.84 54.40 54.77 54.99 55.12 55.12 55.18 55.10 55.25 55.35 55.25 54.88 55.50 56.76 57.75 58.99 59.08 57.83 49.08 56.82 55.94 55.84 64.03 64.22 64.72 63.41 61.31 61.48 60.60 56.51 53.82 53.85 50.99 48.62 46.32 43.61 51.04 52.37 53.90
56.58 56.34 56.47 56.42 56.53 56.16 55.49 55.12 55.21 55.56 55.27 55.00 54.88 54.93 55.05 54.84 54.85 54.61 54.13 54.23 55.83 58.32 59.92 61.50 55.24 53.06 48.32 60.74 57.38 56.80 54.48 57.35 63.82 62.40 60.55 63.30 59.14 53.76 51.11 46.51 43.75 44.10 42.18 43.88 48.04 52.82 51.63
57.65 56.75 56.47 56.18 56.03 56.13 56.04 55.73 55.45 55.22 55.12 54.99 54.76 54.60 54.52 54.49 54.27 53.90 53.43 54.28 56.27 57.02 58.88 59.21 59.55 48.86 50.74 51.32 55.66 57.29 54.93 59.97 61.66 60.64 59.72 58.11 53.08 48.05 46.04 43.22 39.37 41.00 42.09 43.74 45.48 50.78 50.96
58.41 58.02 57.30 56.75 56.37 56.40 56.19 55.99 55.60 55.22 55.00 54.74 54.74 54.47 54.40 54.10 53.94 53.31 51.08 49.98 48.07 47.07 49.52 47.07 49.43 51.64 53.11 55.90 57.17 55.43 56.21 54.26 58.92 57.55 52.35 54.43 47.97 44.30 46.71 46.90 48.16 46.63 45.12 44.68 48.14 51.05 48.97
58.64 58.48 58.07 57.31 56.80 56.49 56.22 56.11 55.65 55.16 54.86 54.70 54.47 54.30 54.05 53.76 52.74 52.75 48.52 47.76 48.84 48.59 42.61 49.50 50.91 50.68 52.35 53.09 49.63 52.33 55.08 49.29 51.45 50.08 52.45 49.62 46.20 51.74 51.15 50.50 49.11 47.89 45.86 45.47 48.25 51.09 48.19
58.89 58.44 58.17 57.62 57.19 56.52 56.29 55.94 55.46 55.10 54.69 54.42 54.30 54.01 53.59 53.12 52.10 48.92 44.51 47.07 51.15 48.25 40.91 45.80 48.93 48.62 49.03 50.38 49.04 50.11 51.86 50.86 48.08 48.11 49.22 47.58 51.11 53.54 51.09 49.70 48.23 47.01 43.94 45.60 46.04 48.93 47.53
59.09 58.63 58.19 58.00 57.52 56.81 56.39 55.94 55.62 55.11 54.52 54.28 53.93 53.68 53.10 51.85 46.64 45.48 46.60 50.51 51.68 49.42 36.71 42.79 45.12 48.87 49.04 49.35 47.36 53.61 53.43 51.62 48.46 46.46 48.20 46.75 51.10 49.97 49.41 48.64 48.88 43.52 49.69 48.56 48.15 45.28 40.45
59.64 59.17 58.79 58.25 57.93 57.25 56.71 56.14 55.68 55.03 54.41 54.03 53.86 53.33 52.70 51.96 43.27 44.99 48.25 49.47 51.07 45.87 30.32 48.07 48.30 52.14 49.13 47.79 49.34 50.44 54.31 49.38 47.17 47.69 46.25 45.56 47.79 47.63 47.54 48.78 50.46 47.59 50.72 48.95 47.94 42.56 39.52
59.53 59.30 58.80 58.54 58.24 57.70 56.80 55.99 55.35 54.86 54.33 53.84 53.26 52.79 52.50 48.07 44.94 47.40 50.45 48.73 45.02 37.66 31.69 45.12 49.03 47.75 47.64 49.09 48.55 50.64 49.82 50.26 50.70 48.00 47.48 47.37 51.09 50.13 49.54 51.48 51.86 51.88 47.87 45.26 42.76 39.31 35.88
59.43 59.06 58.82 58.68 58.35 57.86 56.83 55.95 55.41 54.70 54.14 53.47 52.54 51.54 50.27 49.49 44.35 46.09 47.34 44.66 36.08 31.62 44.63 42.51 44.02 46.41 46.01 45.72 48.15 48.36 46.41 44.89 42.48 40.10 40.79 45.11 45.95 49.91 51.69 48.45 50.65 48.33 40.67 36.51 35.64 35.20 36.14
58.40 58.69 58.57 58.25 58.55 57.89 56.85 56.19 55.42 54.45 53.73 52.77 51.50 50.65 48.98 49.64 46.66 47.75 45.56 39.79 30.17 40.72 41.81 46.82 45.91 45.72 42.68 45.87 47.25 48.29 44.88 42.50 44.65 43.23 41.38 40.90 40.19 46.00 50.14 47.24 46.40 45.78 42.43 36.75 32.64 33.18 37.89
58.10 58.15 58.75 58.40 58.25 57.93 57.11 56.11 55.14 53.96 53.18 51.96 50.17 43.43 44.32 48.87 50.81 47.28 41.90 32.77 34.88 41.01 45.77 44.18 44.17 41.24 41.89 45.75 46.22 45.61 45.45 44.98 45.63 45.82 40.66 40.62 40.27 48.84 49.48 50.23 48.83 46.32 43.37 44.53 38.38 35.88 36.11
57.50 57.54 57.52 57.60 57.16 58.01 57.29 55.89 54.82 53.92 52.38 50.97 43.95 41.71 44.31 51.45 50.76 45.52 38.49 35.65 38.48 45.07 45.68 44.86 39.30 42.20 40.22 42.87 42.71 42.28 43.42 48.58 48.82 50.95 50.04 47.11 41.34 46.21 49.76 50.20 51.10 47.71 48.56 41.34 37.69 33.88 33.32
57.48 57.50 57.32 56.79 57.13 57.79 57.27 55.55 54.23 52.92 51.62 50.27 42.09 41.49 49.18 50.96 50.24 42.82 34.74 35.58 42.51 47.34 47.63 43.60 42.27 40.97 42.20 41.83 42.01 41.29 42.51 47.78 48.99 49.56 50.08 44.95 42.88 44.57 48.86 46.79 46.08 45.80 45.16 44.59 41.94 39.29 36.32
56.44 57.10 57.11 56.73 56.75 57.53 57.13 55.38 53.57 51.61 50.29 44.81 39.03 37.75 48.95 50.78 41.80 38.74 37.38 42.83 46.88 47.37 48.63 47.04 44.67 43.18 41.91 42.92 41.86 42.15 42.77 45.90 50.67 49.50 47.56 49.53 43.36 38.79 44.83 50.50 51.21 48.30 46.25 45.05 42.85 38.42 37.63
56.23 55.95 56.66 56.81 56.49 57.01 56.95 55.16 53.30 51.25 49.89 41.36 36.19 38.88 48.51 48.05 35.83 35.20 38.89 43.48 47.41 46.83 47.20 46.09 44.08 46.86 44.49 41.69 38.49 43.11 45.78 49.01 50.25 50.15 46.05 47.98 43.12 38.64 43.95 45.87 49.18 46.28 47.28 45.99 43.26 41.42 43.00
55.63 55.66 55.58 56.50 56.55 56.91 56.57 54.98 53.55 52.09 51.62 42.45 36.73 35.94 42.60 43.28 41.40 40.04 40.78 42.99 45.38 51.42 48.89 49.29 47.67 47.98 45.42 42.14 43.07 41.28 43.72 48.19 50.14 50.83 60.12 51.47 41.18 41.32 37.98 43.46 47.21 45.91 48.60 49.17 45.10 40.48 40.17
55.26 55.08 54.95 55.50 56.45 57.13 56.57 54.98 53.90 52.60 51.86 42.78 38.48 38.97 39.19 35.20 38.25 38.76 38.68 43.10 44.29 45.56 48.76 47.89 46.04 46.35 43.81 40.31 42.50 42.63 45.27 48.13 51.02 53.09 50.76 47.01 42.22 43.18 45.98 49.24 49.77 48.55 48.35 52.09 47.47 47.42 42.34
54.48 54.01 54.64 55.92 56.55 57.01 56.43 55.06 54.02 52.60 50.32 41.16 38.07 38.33 40.19 37.84 38.55 38.61 39.45 42.24 45.21 47.94 46.86 45.31 44.66 48.03 45.61 40.16 43.26 43.79 46.06 44.47 43.73 47.40 46.41 48.81 42.17 44.80 44.28 50.04 54.30 53.01 55.04 54.75 52.06 51.40 52.26
54.43 53.52 54.01 55.26 56.41 57.01 56.39 54.98 53.82 51.96 48.09 40.93 43.08 42.41 40.37 38.73 36.46 35.88 37.46 41.27 44.55 46.12 49.07 49.73 47.98 46.31 46.35 47.67 50.51 51.13 50.31 47.88 47.97 45.03 45.93 46.95 42.86 41.14 40.32 46.88 48.31 46.87 52.12 52.12 52.45 53.29 51.50
54.35 53.82 53.08 54.94 56.35 56.73 56.59 55.38 53.86 51.96 48.76 43.20 41.65 40.36 37.66 35.10 36.72 37.98 40.74 43.01 42.59 45.60 44.71 48.99 50.57 47.36 51.08 53.84 52.90 52.32 50.63 47.90 48.45 47.15 47.85 46.27 44.76 42.95 40.62 42.52 38.08 49.27 54.91 54.49 51.65 52.18 54.84
54.23 54.08 53.30 53.94 55.83 56.79 56.83 55.71 54.16 52.56 51.48 43.35 42.92 39.97 37.68 34.13 38.71 40.27 40.92 40.13 42.12 44.34 44.79 47.41 49.90 51.66 51.44 49.53 45.11 42.40 43.74 44.50 46.14 47.46 45.44 47.80 44.51 41.18 40.02 40.33 46.27 50.10 51.71 50.91 51.66 49.66 55.36
54.19 54.09 53.39 53.38 55.36 56.73 56.81 56.01 54.70 52.87 51.48 45.41 43.15 43.18 39.84 36.30 35.92 42.06 39.40 39.94 37.98 37.92 42.02 45.79 49.63 49.16 50.28 45.33 43.35 38.79 37.40 41.76 41.92 45.62 48.04 45.84 43.77 42.47 41.13 39.43 37.82 48.19 52.52 54.75 53.63 46.47 55.83
53.54 53.68 54.10 53.07 54.74 56.71 56.81 56.13 54.86 53.45 51.57 45.45 43.55 44.09 40.88 36.62 40.10 39.55 37.16 36.83 40.09 40.17 39.30 42.79 44.28 47.45 51.60 45.49 42.97 40.23 40.24 45.75 41.92 41.05 40.40 42.24 42.01 38.98 39.92 39.65 46.43 52.40 53.55 54.78 41.64 44.06 54.44
53.13 53.46 53.53 53.09 54.14 56.19 56.63 56.23 55.13 53.99 53.12 47.73 43.50 44.94 42.44 38.18 41.05 44.28 44.65 39.78 39.49 38.81 37.96 41.41 42.28 46.37 48.08 42.73 40.42 41.12 40.52 43.10 41.89 44.33 40.95 40.62 41.02 39.73 40.50 39.81 39.14 54.77 54.61 50.59 51.97 54.82 54.56
52.46 53.18 53.14 53.28 54.53 55.91 56.39 55.89 55.33 54.11 53.47 49.97 41.08 46.07 46.76 41.69 42.06 46.79 47.76 48.47 46.62 45.05 39.27 38.83 40.38 47.58 47.22 44.96 44.94 46.57 42.85 43.48 41.47 39.79 46.66 40.47 45.14 43.73 43.12 44.06 52.18 53.68 53.33 57.40 55.92 54.90 55.37

GFSGBSN_sfc_wetblb_084.txt.gz
Wetbulb
56.55 56.51 56.71 57.00 56.99 56.90 56.57 56.92 56.79 56.50 56.72 56.81 56.79 56.83 57.06 57.22 57.40 57.79 57.88 57.81 57.62 57.49 57.38 57.64 57.99 58.35 53.63 44.03 47.70 62.85 73.36 73.36 68.76 62.82 57.42 54.83 51.96 52.46 51.87 54.75 56.43 54.10 55.36 53.35 52.91 51.60 51.61
56.74 56.82 56.96 57.06 56.98 57.01 56.95 56.99 57.03 56.94 56.81 56.74 56.79 56.60 56.72 56.70 56.97 57.20 57.18 57.27 57.08 56.96 57.29 57.21 57.83 58.18 50.45 42.27 51.60 63.79 64.71 62.19 61.63 59.59 57.76 56.15 53.45 54.57 52.96 55.85 54.33 55.09 53.67 51.69 50.54 51.55 52.79
57.27 57.29 57.20 57.13 57.10 57.20 56.89 56.68 56.85 56.90 56.64 56.67 56.60 56.57 56.53 56.51 56.86 56.75 56.85 56.76 56.70 56.88 57.42 57.96 58.20 56.54 50.06 45.57 52.27 65.64 61.71 57.54 60.66 58.98 55.99 58.42 56.97 54.78 55.04 53.16 54.00 52.22 46.40 48.51 49.73 50.72 49.48
57.78 57.67 57.49 57.43 57.51 57.44 56.98 56.82 56.82 56.90 56.89 56.58 56.31 56.27 56.20 56.04 56.04 56.19 55.98 55.52 56.52 57.78 59.10 60.61 58.85 54.41 43.18 50.36 53.28 54.61 56.29 57.32 61.13 60.60 58.17 58.92 58.50 54.15 54.03 53.54 48.33 45.33 43.41 42.41 48.02 49.07 50.00
58.50 58.39 58.35 58.42 58.35 57.94 57.51 57.22 57.03 57.20 56.89 56.65 56.41 56.12 55.98 55.60 55.65 55.38 54.77 54.97 56.77 58.62 60.20 60.03 52.99 46.71 43.57 56.41 51.89 53.26 56.39 53.67 55.41 59.55 59.54 63.25 56.67 51.94 50.93 45.61 42.80 41.61 40.05 40.11 44.50 48.98 48.68
59.09 59.00 58.79 58.65 58.58 58.27 57.80 57.58 57.35 57.13 56.95 56.58 56.34 55.89 55.55 55.35 55.10 54.55 54.04 55.36 56.20 57.33 58.87 59.92 57.44 45.94 49.22 48.15 51.39 53.61 52.69 53.44 51.69 54.17 56.31 56.28 52.21 47.39 43.82 43.16 40.00 39.27 38.91 40.28 41.51 46.62 46.77
59.37 59.37 59.16 59.15 58.87 58.37 57.99 57.83 57.44 57.12 56.88 56.60 56.21 55.89 55.44 54.95 54.43 53.80 51.41 46.25 44.13 43.69 45.44 42.38 44.22 46.43 48.14 50.91 53.26 50.94 51.68 50.80 50.75 54.08 48.68 52.03 46.60 43.48 47.87 46.36 46.38 44.24 41.93 42.02 43.68 47.30 45.45
59.97 59.86 59.72 59.50 59.08 58.50 58.11 57.91 57.55 57.23 57.05 56.71 56.27 55.64 55.27 54.46 53.52 53.25 46.01 44.02 43.47 42.90 39.07 46.14 46.38 46.67 48.96 49.55 46.97 49.10 51.69 47.01 49.70 46.31 49.53 46.77 43.63 50.08 52.22 48.63 46.57 44.50 42.56 41.51 44.46 47.44 44.92
60.29 59.97 59.67 59.33 58.98 58.80 58.40 57.81 57.67 57.46 57.07 56.48 55.96 55.39 54.70 53.73 52.61 47.83 43.63 44.58 46.02 43.75 37.81 43.43 45.59 45.32 46.77 46.74 45.70 46.96 48.95 47.45 46.07 44.93 47.33 44.47 47.20 52.93 51.12 48.54 46.45 43.54 41.03 42.61 42.67 45.67 45.13
59.95 59.51 58.97 59.24 59.04 58.48 58.21 58.24 57.96 57.46 56.92 56.34 55.72 55.03 54.09 52.03 49.15 44.22 46.52 45.15 46.33 44.37 35.51 40.95 44.64 46.77 48.30 46.31 45.14 50.52 50.40 48.69 45.28 43.32 44.38 44.31 50.38 49.92 48.42 47.39 47.69 41.77 47.20 46.76 44.64 41.61 38.03
59.52 59.05 58.41 58.54 58.07 57.88 57.74 57.71 57.74 57.06 56.52 55.92 55.33 54.70 53.64 52.10 43.82 44.27 48.75 45.39 45.48 42.21 29.97 44.21 45.95 50.48 48.06 44.09 47.77 49.55 51.06 46.59 44.14 44.27 43.50 42.39 44.73 44.92 45.77 47.25 47.54 45.40 48.19 46.37 45.26 40.34 36.85
58.68 58.47 57.73 57.06 57.69 57.58 57.49 57.38 57.28 57.00 56.30 55.58 54.72 53.85 52.82 47.24 43.27 45.91 46.49 44.33 42.30 36.35 30.03 41.15 45.54 44.10 43.38 44.37 46.19 48.73 48.28 47.61 47.62 43.61 43.15 43.40 46.74 45.98 45.96 47.91 47.79 48.28 44.97 41.83 38.10 36.10 33.48
57.98 57.89 57.63 57.46 57.62 57.33 56.89 56.88 57.02 56.60 55.74 54.97 53.52 52.03 50.58 48.90 43.98 45.61 44.90 41.96 35.28 30.86 41.41 40.27 40.35 42.45 39.24 41.48 43.71 45.51 44.87 43.00 38.99 35.31 35.26 40.56 42.57 44.59 47.23 43.54 45.28 44.15 38.38 33.06 32.75 32.76 33.89
57.73 57.65 57.43 57.15 56.92 56.50 56.12 56.04 56.66 56.02 55.01 53.67 51.77 50.83 48.37 48.20 46.00 45.39 41.84 39.33 29.42 37.70 37.92 42.72 41.82 41.24 38.75 41.99 42.03 43.20 42.52 40.90 43.03 39.59 36.14 35.32 35.75 43.00 46.16 44.33 42.17 41.58 39.18 34.36 29.62 30.67 34.42
57.09 57.13 57.28 57.08 56.64 56.20 55.96 56.06 56.24 55.11 53.73 52.29 49.93 41.54 41.25 44.07 46.62 43.31 40.67 33.00 33.35 36.64 41.87 41.12 40.74 37.27 37.77 40.95 41.22 41.12 40.22 40.95 42.88 43.09 37.23 34.68 37.40 45.02 46.34 46.22 45.57 41.15 38.76 42.00 37.69 32.98 33.53
56.15 56.07 56.07 56.49 56.16 56.18 55.90 56.28 55.88 54.24 52.66 51.11 40.42 39.46 42.57 47.56 46.74 41.70 36.43 34.00 34.84 40.48 42.52 41.27 36.22 38.23 35.51 39.05 38.62 38.18 39.14 43.35 44.14 46.35 43.84 41.36 37.89 43.16 47.50 46.10 46.76 43.80 45.54 39.13 38.83 33.97 30.71
55.71 55.17 55.64 55.15 55.48 56.04 55.96 56.28 54.71 52.91 51.47 48.83 39.06 41.03 45.58 46.14 45.16 41.50 33.54 32.78 38.71 44.26 44.36 41.26 38.80 38.13 38.99 38.42 37.35 36.77 38.86 44.26 45.39 46.72 44.98 42.53 39.75 42.19 44.82 42.83 42.45 44.05 40.01 41.91 42.40 38.99 33.30
55.08 55.62 55.48 55.39 54.33 55.72 55.11 55.58 53.47 51.50 49.55 43.68 36.29 38.68 45.72 45.21 40.30 33.29 35.66 38.61 44.30 44.22 46.18 44.20 42.65 41.10 39.27 39.29 37.65 37.77 38.87 42.21 48.26 49.53 43.39 43.54 37.70 37.06 42.89 47.73 47.68 45.89 43.77 41.87 38.48 36.64 37.97
55.06 54.89 55.13 55.19 54.89 54.77 55.47 55.64 53.18 51.03 48.23 39.03 34.51 34.85 43.49 44.56 35.27 33.79 37.26 41.10 42.64 44.43 45.09 44.66 43.09 45.50 43.84 39.88 38.23 40.66 43.54 49.01 50.37 49.69 43.68 45.25 37.42 35.21 39.16 44.28 47.47 45.24 46.69 43.55 41.82 38.67 38.08
55.34 54.82 54.10 54.77 54.87 54.28 55.84 55.90 53.36 51.71 50.20 40.04 36.65 36.62 39.04 38.60 35.76 35.19 33.71 36.85 40.55 46.80 45.95 46.65 44.20 44.94 42.29 40.05 40.26 39.50 44.15 48.90 51.87 50.71 57.80 49.43 40.03 39.87 35.90 40.57 45.21 44.85 46.13 47.74 39.32 35.36 36.84
55.37 54.71 54.60 54.07 54.60 54.30 55.52 56.12 53.73 52.22 50.07 39.58 36.76 36.12 35.71 33.48 35.39 33.65 33.46 36.82 38.99 39.20 43.58 45.37 43.00 43.34 41.13 37.71 40.74 40.46 44.00 45.81 49.42 53.83 48.39 43.93 37.63 40.39 43.23 44.91 47.05 47.86 50.01 51.27 44.70 40.58 40.00
55.20 54.46 54.60 54.03 54.20 54.43 55.60 56.38 54.01 51.83 48.27 40.76 37.71 36.32 36.55 34.83 34.69 33.07 34.94 34.02 37.66 39.57 38.60 42.55 41.31 44.69 42.58 39.68 42.33 41.04 42.45 41.66 43.51 46.23 43.49 42.01 40.53 41.00 42.22 46.35 46.84 48.19 47.79 48.20 51.11 51.46 52.15
54.97 54.28 54.11 54.05 53.21 54.13 55.50 56.50 54.01 51.02 45.85 38.99 38.59 37.84 38.23 37.53 33.34 33.34 33.20 36.06 38.73 38.87 41.86 44.26 44.90 43.06 42.35 44.56 46.71 47.44 46.75 46.70 46.53 41.97 41.13 39.27 38.42 36.77 35.95 42.95 44.94 43.89 48.81 49.47 51.13 51.55 51.00
54.58 54.07 53.83 53.83 53.31 53.70 55.09 56.40 54.26 51.16 46.19 40.51 39.11 37.91 36.07 34.60 34.12 35.26 38.16 39.25 38.78 39.11 37.64 42.39 42.86 41.05 46.38 48.19 47.64 45.78 43.20 43.72 44.38 44.49 42.95 39.27 37.98 37.40 35.84 39.15 32.66 45.67 52.22 53.01 51.55 52.76 53.83
54.30 53.62 53.19 53.60 53.70 53.36 54.66 56.60 55.07 52.07 48.69 41.59 40.17 37.97 35.94 32.49 35.51 37.40 37.96 36.84 37.63 38.30 38.48 41.71 45.07 46.69 45.05 44.99 42.33 40.47 40.57 41.14 43.49 46.28 43.22 41.91 38.15 36.64 34.70 34.98 41.26 49.25 48.88 47.57 47.64 49.69 54.67
54.10 53.36 53.07 53.54 53.62 53.28 53.97 56.28 55.90 52.87 49.92 44.03 41.61 39.94 38.07 34.88 35.66 40.22 36.74 37.08 33.93 31.91 36.73 40.17 44.89 43.75 48.10 44.82 42.71 36.09 35.64 39.64 40.50 43.75 45.45 45.52 41.70 38.27 36.99 35.17 36.29 45.60 51.47 53.44 53.27 45.20 55.26
53.74 53.16 52.99 53.69 53.66 53.38 53.83 55.20 56.58 53.81 50.32 44.42 41.36 40.43 38.60 35.41 37.19 37.73 36.24 35.89 36.58 34.25 33.16 35.74 39.62 39.00 46.26 40.32 39.07 37.13 38.76 43.01 38.94 38.64 39.22 39.87 40.85 37.62 39.11 37.69 44.17 51.97 53.23 54.84 42.19 42.88 54.73
53.50 52.82 52.81 53.49 53.44 53.81 53.97 55.78 56.98 55.13 51.95 46.28 42.34 42.64 40.67 35.55 37.09 41.11 42.05 38.60 37.07 36.13 33.39 35.70 36.28 38.59 40.42 39.96 39.08 37.95 38.91 40.45 38.40 40.18 39.25 37.78 38.08 37.68 37.93 38.25 36.82 52.21 53.19 47.84 50.05 53.25 54.36
53.19 52.65 52.90 52.97 53.16 52.80 53.42 54.40 56.76 55.60 53.17 49.08 42.59 42.85 42.51 38.26 38.29 42.39 44.52 45.80 44.22 42.43 38.34 35.22 34.67 35.74 36.37 41.17 39.82 41.08 40.68 41.43 37.91 36.06 43.22 38.82 42.53 41.16 40.99 42.10 49.95 51.69 51.65 54.12 54.83 55.25 55.77

GFSGBSN_sfc_wetblb_087.txt.gz
Wetbulb
57.80 57.75 57.91 58.03 58.09 58.01 57.99 58.11 58.02 57.98 57.74 57.92 57.96 57.74 57.77 57.90 58.16 58.22 58.27 58.45 58.09 57.94 57.91 57.92 57.87 58.39 58.00 49.84 50.50 69.34 74.18 73.69 71.59 67.87 61.59 58.60 56.12 55.61 53.58 56.73 59.58 58.66 59.74 60.76 60.91 55.96 54.93
58.12 58.21 58.22 58.15 58.36 58.27 58.27 58.17 58.26 58.12 57.87 57.75 57.66 57.50 57.44 57.51 57.55 57.69 57.68 57.65 57.30 57.30 57.85 58.12 58.17 57.96 55.92 49.22 54.61 67.71 68.52 67.47 65.73 63.72 60.87 59.34 57.38 57.77 55.33 55.27 56.94 59.14 58.30 58.32 56.02 55.07 55.26
58.46 58.45 58.52 58.74 58.77 58.60 58.30 58.35 58.45 58.27 57.96 57.73 57.51 57.45 57.21 57.16 57.41 57.32 57.30 56.92 56.67 57.24 58.39 59.49 58.53 57.12 52.64 52.52 61.22 61.89 64.75 62.33 63.89 62.29 58.71 60.91 59.92 58.15 59.33 57.13 58.83 56.91 53.95 55.84 55.81 56.29 55.19
58.86 58.97 58.92 59.02 59.01 58.84 58.71 58.34 58.14 58.26 57.83 57.70 57.46 57.32 57.07 56.91 56.83 56.82 56.55 56.03 56.44 57.82 59.84 60.48 59.17 57.93 51.37 54.16 55.41 56.38 57.68 57.88 61.21 61.03 58.98 61.42 61.61 59.06 57.02 57.97 54.39 51.98 50.74 50.43 54.26 53.15 54.35
59.28 59.43 59.38 59.60 59.42 59.10 58.83 58.61 58.46 58.20 58.02 57.69 57.51 57.23 56.94 56.54 56.34 55.87 55.08 55.20 56.75 58.30 60.18 60.01 57.72 52.60 49.84 58.68 54.47 57.09 60.33 54.86 56.59 62.07 63.37 63.18 61.09 57.81 56.60 52.94 52.31 50.96 49.16 49.08 50.84 52.88 52.25
59.84 59.74 59.82 59.75 59.98 59.50 58.95 58.63 58.43 58.35 58.04 57.73 57.20 57.00 56.58 56.14 55.72 54.95 54.48 55.23 56.12 58.27 59.34 60.37 58.54 51.90 53.67 51.41 53.42 54.94 56.88 56.36 54.47 55.56 59.15 58.18 57.90 54.79 53.55 52.96 46.32 49.13 47.66 47.70 48.42 52.49 52.96
60.37 60.39 60.35 60.24 60.30 59.55 59.13 58.83 58.05 57.82 58.04 57.72 57.24 56.94 56.36 55.83 55.05 54.26 53.24 51.68 49.99 50.10 49.97 48.10 48.58 48.34 50.40 53.05 54.17 53.07 54.94 53.76 53.22 54.79 49.89 55.86 50.97 49.37 52.60 54.19 53.61 51.39 49.99 49.03 50.99 52.47 50.61
60.55 60.36 60.23 59.80 59.34 59.35 58.94 58.64 57.81 58.08 57.98 57.64 57.26 56.69 56.01 55.31 54.27 53.49 51.47 48.21 46.83 47.96 45.64 48.75 48.44 48.75 50.70 51.43 48.73 52.32 53.93 50.31 51.99 49.24 53.86 51.65 48.93 53.48 55.32 55.22 52.82 51.87 50.55 50.34 52.03 51.47 51.75
60.03 59.68 59.30 58.67 58.48 58.10 58.07 57.87 57.77 57.98 57.77 57.35 56.75 56.21 55.55 54.43 53.10 52.26 49.03 48.43 51.25 49.48 45.61 47.57 49.05 48.63 50.54 50.69 49.16 50.24 52.25 51.16 50.14 49.21 49.95 47.58 49.47 53.87 53.70 53.17 51.62 52.45 51.18 51.47 50.45 52.89 51.65
59.29 59.05 58.69 58.03 57.69 57.54 57.56 57.54 57.59 57.86 57.65 56.90 56.39 55.93 54.64 52.46 52.16 49.58 51.25 50.67 51.18 49.47 44.39 45.53 48.99 50.54 51.93 50.94 48.89 52.85 52.88 51.84 49.16 48.07 49.32 49.36 52.15 51.06 51.63 50.52 52.89 49.36 53.38 52.76 51.12 49.99 47.23
58.78 58.53 58.25 57.85 57.58 57.40 57.24 57.37 57.40 57.57 57.19 56.42 56.13 55.57 54.03 52.50 50.10 49.97 50.79 50.89 50.84 48.08 37.82 46.98 49.07 54.03 51.90 49.58 50.51 52.13 53.62 50.82 48.34 48.27 48.16 47.48 48.40 49.89 49.14 50.19 52.37 48.91 52.19 50.44 50.06 49.22 47.11
58.37 58.11 57.80 57.60 57.56 57.52 56.81 56.56 56.25 56.73 56.56 55.73 55.43 54.31 53.06 49.54 49.33 50.99 50.97 50.57 48.14 43.13 36.19 44.44 48.14 47.33 47.92 48.80 49.10 51.14 51.32 52.15 50.58 47.64 48.25 47.90 49.92 49.47 50.72 52.41 52.40 52.04 50.26 48.58 47.01 46.98 42.54
57.84 57.76 57.54 57.38 57.18 56.99 56.61 56.15 55.97 56.37 56.03 55.22 54.15 52.30 50.90 50.98 50.55 51.06 50.96 49.39 43.23 38.60 45.06 43.38 44.51 47.21 45.48 46.02 47.31 48.17 48.04 48.91 46.42 44.03 44.88 47.19 47.14 49.23 49.90 48.12 50.00 50.14 47.61 42.11 41.06 41.36 41.65
57.50 57.03 56.99 56.86 56.95 56.57 56.19 56.13 55.95 56.01 55.22 53.90 52.05 50.70 50.40 50.83 51.91 50.44 49.27 47.72 38.24 40.93 42.22 46.17 45.93 45.97 43.82 46.17 46.71 46.67 47.14 46.40 48.33 48.32 45.36 42.84 42.62 46.72 49.80 48.26 48.14 48.28 47.85 42.84 37.82 39.38 42.59
56.26 56.17 56.15 55.65 56.02 56.09 56.03 56.01 56.07 55.47 53.89 52.31 49.85 48.77 49.66 51.63 50.47 50.19 49.55 42.59 41.48 42.24 44.53 44.92 46.10 43.83 44.28 45.49 45.16 45.68 45.80 45.56 47.77 50.13 45.15 44.19 44.30 51.25 48.56 50.31 50.40 47.32 45.37 49.47 44.93 44.19 41.53
56.43 56.35 56.16 55.83 55.47 55.34 55.91 55.38 55.59 54.58 52.94 51.29 46.90 46.89 50.28 51.17 51.96 48.72 46.25 39.90 42.20 44.27 45.44 45.83 42.23 43.86 42.20 45.10 44.17 45.02 44.81 47.54 47.71 51.00 52.22 47.96 44.13 50.40 51.03 50.47 50.03 49.53 50.68 44.19 45.59 38.94 38.02
56.44 55.80 55.72 55.51 55.07 54.52 55.32 54.92 55.23 53.50 51.80 49.09 47.08 48.87 52.21 50.72 51.15 50.20 43.14 42.67 43.94 48.14 47.04 45.52 44.27 43.63 44.45 43.96 44.41 43.88 44.16 48.71 50.56 51.61 52.90 49.76 46.60 48.19 51.04 49.37 48.40 47.59 46.52 47.17 47.31 45.95 41.01
56.30 55.56 55.29 55.08 55.08 54.11 54.48 55.30 54.54 51.95 49.72 46.76 45.28 46.98 51.47 51.16 48.47 43.27 44.75 44.22 44.67 47.67 50.12 48.22 47.33 45.80 45.33 45.36 45.66 44.03 44.18 49.15 53.13 52.90 49.36 50.36 47.93 44.91 46.99 51.43 51.91 50.60 49.65 49.55 44.35 43.38 45.89
56.20 55.44 54.95 54.17 54.70 54.82 54.58 55.16 54.16 51.68 48.70 45.69 44.19 44.38 51.06 50.73 44.55 44.51 44.60 44.47 46.08 47.40 47.96 48.85 47.96 49.39 49.04 46.78 45.06 46.55 47.76 52.45 53.16 51.96 50.79 52.26 47.19 42.66 44.87 48.97 51.45 49.68 51.16 53.88 51.03 47.99 45.93
56.49 55.71 55.01 54.19 54.49 54.51 54.64 55.40 54.11 52.36 50.49 46.67 45.76 45.06 47.96 46.85 44.18 43.79 42.46 42.92 44.10 48.51 47.64 49.33 49.13 50.06 48.57 47.31 48.26 47.09 47.84 50.99 52.67 52.29 57.23 53.44 48.17 46.55 41.89 45.46 48.51 47.01 49.28 53.26 51.27 46.09 46.12
56.37 56.08 54.82 54.63 54.08 54.41 54.65 55.32 54.88 52.54 49.72 46.52 45.07 43.11 42.44 43.04 43.48 42.79 42.11 42.14 42.89 43.75 47.06 48.96 48.67 48.08 46.73 45.44 46.77 46.61 48.85 49.79 51.37 54.37 53.06 51.14 46.94 47.06 47.98 48.85 48.93 48.36 49.59 51.49 50.28 52.02 47.66
56.65 55.89 54.88 54.68 54.13 53.88 54.35 55.67 54.92 52.07 48.74 48.23 45.53 44.95 43.90 43.40 41.31 41.70 40.97 42.18 41.71 43.14 43.52 46.50 46.34 47.10 47.98 46.47 47.95 46.26 48.66 49.18 48.29 51.13 50.65 51.77 46.82 48.45 46.46 48.43 48.62 47.82 50.07 50.43 50.30 50.81 52.20
56.61 55.79 54.92 54.39 54.25 53.16 54.06 55.28 55.00 51.20 47.83 47.12 45.02 44.98 45.28 41.54 41.18 42.18 42.97 42.01 42.18 42.74 45.45 46.32 46.53 44.83 46.55 48.73 49.42 49.79 50.60 51.00 50.96 49.45 48.60 47.91 47.47 46.16 43.19 47.47 47.22 44.92 50.37 51.18 48.38 50.59 52.16
56.03 55.32 54.68 54.10 53.96 52.91 53.53 55.06 55.27 50.93 48.64 47.98 46.11 45.89 45.01 43.56 42.03 42.63 41.52 42.08 42.16 43.37 41.66 44.35 45.75 44.56 50.26 50.97 53.27 53.93 51.65 50.00 49.19 49.40 50.29 48.04 46.70 46.82 43.54 46.15 38.51 50.16 53.98 51.54 50.49 52.25 54.00
55.81 55.18 54.39 53.63 53.59 53.67 53.27 54.78 55.89 51.83 48.05 48.90 46.53 45.83 44.62 43.01 42.87 42.85 42.96 42.85 43.35 44.32 42.45 43.72 46.97 50.28 50.15 52.70 49.98 47.92 48.21 48.79 49.78 50.16 50.47 49.35 46.96 45.03 42.75 42.77 45.52 50.73 50.63 48.70 48.81 49.29 52.99
55.53 54.82 54.13 53.37 53.65 53.72 52.77 54.27 56.43 52.74 49.40 49.94 48.33 46.92 46.02 43.42 43.81 44.43 42.68 42.54 42.30 42.14 42.25 44.46 48.29 49.60 53.16 51.30 49.09 43.32 41.94 44.84 45.11 47.93 51.49 50.07 49.88 45.53 45.33 40.94 38.63 49.55 51.88 55.06 53.78 45.13 52.88
55.35 54.52 53.78 53.28 53.82 53.84 53.08 53.82 56.03 53.87 50.04 48.87 47.98 46.88 46.27 43.00 45.66 44.58 43.19 43.55 43.48 41.84 41.11 42.72 44.77 44.92 51.05 49.40 46.00 44.42 44.67 46.45 43.09 43.24 45.17 46.42 47.56 43.94 45.07 43.59 48.08 53.56 54.75 55.77 44.80 46.95 55.44
54.83 54.25 53.53 53.05 53.64 53.63 53.47 53.64 55.25 55.61 51.68 50.08 47.87 47.72 46.48 43.44 44.52 45.13 46.03 44.49 44.11 44.09 42.09 44.34 43.93 45.02 45.87 47.22 46.68 46.47 45.74 47.22 45.59 46.42 46.59 45.09 44.51 45.08 45.33 43.61 41.65 54.46 53.90 49.62 53.96 57.62 57.34
54.71 53.96 53.18 53.21 53.46 53.33 53.69 53.49 55.00 55.95 52.90 50.38 46.46 47.01 47.93 44.69 45.58 47.07 48.71 49.64 48.94 48.65 46.24 45.19 42.83 42.74 45.36 48.93 48.27 48.34 47.29 48.48 45.15 42.37 49.49 45.90 48.58 46.69 47.91 48.61 53.83 54.96 54.82 57.36 58.61 57.60 59.09

GFSGBSN_sfc_wetblb_093.txt.gz
Wetbulb
60.01 60.13 60.19 60.43 60.19 60.08 60.05 60.08 60.02 59.79 59.49 59.57 59.61 59.55 59.58 59.34 59.46 59.39 59.41 59.18 58.70 58.37 58.61 58.62 59.16 60.11 62.11 59.14 58.26 69.68 73.44 73.01 69.54 72.41 64.63 64.06 62.17 61.77 58.68 58.44 57.88 56.56 57.31 58.24 59.22 59.51 60.40
60.30 60.47 60.57 60.62 60.47 60.45 60.21 60.03 59.79 59.26 58.58 59.10 59.35 59.12 59.08 58.87 58.95 58.96 58.63 58.52 57.96 57.94 58.22 58.86 59.70 59.35 59.94 53.54 60.96 66.02 68.96 68.65 67.99 67.99 64.39 63.71 61.88 61.90 59.28 58.29 57.53 58.23 57.77 57.87 58.42 58.05 58.78
60.72 60.82 60.89 60.73 60.51 60.65 60.24 60.15 59.73 59.03 58.31 58.26 58.73 58.70 58.66 58.65 58.67 58.44 58.23 57.60 57.39 57.64 58.41 59.81 61.19 61.26 59.01 56.57 62.67 65.25 67.50 66.88 67.34 66.23 62.41 62.91 62.81 60.41 60.22 57.75 60.21 59.29 56.90 58.05 58.24 58.61 57.51
61.00 61.03 61.09 60.99 60.71 60.49 60.40 60.26 60.18 59.29 58.34 57.84 58.27 58.46 58.32 58.10 58.00 57.95 57.37 56.70 57.01 57.77 59.39 61.47 60.89 62.47 57.00 60.89 61.49 59.69 61.97 63.49 63.37 61.35 60.53 61.98 60.95 59.36 59.34 60.26 58.22 56.30 56.27 53.01 57.22 58.33 57.88
61.32 61.29 61.04 61.06 60.89 59.90 59.03 59.39 59.15 58.82 58.03 57.64 57.74 58.11 57.69 57.45 57.51 57.07 56.01 55.74 57.27 59.16 60.86 60.61 63.23 62.38 55.90 58.64 58.06 60.58 61.11 58.32 59.45 60.56 62.02 61.82 60.40 56.46 57.02 55.05 53.62 54.49 50.34 52.06 54.38 58.70 57.10
61.22 61.13 61.18 60.82 60.05 59.06 58.13 57.64 58.08 58.20 57.95 57.73 57.54 57.13 57.04 57.03 56.76 56.06 55.27 55.86 60.17 57.95 61.01 63.28 62.55 57.94 58.42 55.34 58.43 59.25 60.91 60.10 57.51 58.06 59.18 59.21 58.50 55.05 54.98 53.33 48.44 51.15 51.64 52.86 53.19 56.74 57.46
61.24 61.00 60.54 59.92 59.57 58.57 58.11 57.94 58.04 57.97 58.00 57.77 57.56 56.89 56.70 56.58 56.01 55.31 56.18 61.08 57.62 57.76 58.64 54.51 55.05 55.03 55.77 58.25 59.44 58.15 58.97 58.15 57.69 56.48 53.10 56.66 54.05 52.19 53.98 55.25 55.23 54.46 53.01 52.23 54.11 56.23 56.13
60.54 60.13 59.86 59.32 58.85 58.29 58.14 57.92 57.66 57.60 57.53 57.49 57.36 56.73 56.45 56.18 55.28 54.69 56.76 56.32 54.88 55.85 53.68 55.83 55.42 55.90 57.20 57.40 55.13 57.04 59.16 55.08 54.77 51.88 54.19 52.97 51.12 54.82 55.82 54.94 53.24 52.61 51.91 52.23 54.76 55.94 55.37
60.15 59.59 59.26 58.82 58.44 58.19 57.92 57.76 57.56 57.32 57.20 56.94 56.98 56.50 56.01 55.10 54.24 59.74 57.49 55.96 59.20 58.45 53.51 54.63 55.60 55.15 55.74 56.86 54.34 55.32 57.51 56.34 54.43 53.37 53.59 51.73 52.92 54.89 53.29 52.52 51.66 52.32 51.72 51.66 51.65 54.58 55.72
59.54 59.05 58.65 58.43 58.39 57.98 57.84 57.53 57.53 57.25 56.96 56.58 56.54 56.13 55.28 53.06 55.10 60.59 58.29 59.51 59.83 58.27 52.03 51.99 53.55 55.30 56.23 56.68 53.80 57.60 58.06 55.94 54.15 52.07 53.02 52.47 54.53 52.82 52.15 51.25 52.09 49.60 53.47 52.67 51.80 51.35 48.54
58.77 58.63 58.39 58.24 57.80 57.48 57.18 56.95 56.63 56.55 56.53 56.26 56.19 55.64 54.20 52.19 58.08 59.34 60.15 60.84 59.26 57.51 46.33 51.61 53.20 57.87 56.60 53.66 54.53 55.47 58.15 56.33 52.64 52.65 52.85 51.45 51.85 51.66 51.02 51.54 53.10 50.86 53.38 52.37 52.34 51.15 51.44
58.18 58.20 57.97 57.38 56.91 56.57 56.17 55.87 55.43 55.43 55.32 55.50 55.40 54.63 53.30 58.64 60.30 60.35 60.44 59.69 57.68 49.65 45.15 49.86 52.10 52.08 52.39 54.00 53.43 54.76 55.33 58.12 56.48 53.78 54.83 53.40 56.41 54.38 52.97 53.26 53.17 53.55 52.08 52.30 52.37 50.86 46.15
57.57 57.47 57.18 56.90 56.53 56.33 55.81 55.47 55.29 55.22 55.10 55.24 54.49 53.18 53.27 58.84 58.09 59.79 59.66 57.28 50.33 47.08 51.27 49.37 50.04 51.68 50.95 50.59 51.32 52.08 52.10 53.05 51.37 49.93 51.07 52.73 53.30 54.69 54.32 51.66 53.96 52.43 50.17 45.40 44.74 44.90 44.18
57.35 57.11 56.90 56.65 56.28 55.99 55.77 55.48 55.22 55.22 55.28 54.69 53.16 51.85 57.72 59.03 60.92 60.08 58.72 53.46 47.23 49.48 48.69 51.94 51.27 51.36 49.32 50.63 51.04 50.85 51.02 50.98 53.55 52.57 50.86 49.02 47.58 53.24 55.15 53.48 52.13 51.74 50.56 45.82 41.47 42.75 44.69
57.24 56.97 57.06 56.62 56.05 55.62 55.42 55.28 54.77 54.97 55.10 53.61 51.76 61.55 59.35 61.44 61.55 60.58 54.68 49.39 50.59 49.96 50.70 49.96 51.34 49.74 49.79 50.68 49.76 50.25 50.58 50.12 51.72 53.54 49.73 48.81 48.78 54.25 54.62 55.38 54.65 51.73 48.75 51.82 47.45 48.44 44.60
57.70 57.18 57.16 56.56 55.67 55.24 55.20 54.88 54.49 55.10 54.53 52.88 55.93 58.88 59.08 60.30 61.55 58.73 52.20 48.63 50.25 51.69 51.85 51.69 48.89 49.74 47.89 49.53 49.53 49.78 49.25 51.88 50.58 54.06 55.27 52.28 47.86 53.27 54.05 55.20 54.88 54.01 54.57 47.60 47.76 42.14 40.54
57.51 57.41 57.17 56.20 55.57 55.14 55.08 55.01 54.65 55.08 53.13 52.49 57.05 55.56 59.50 60.68 60.05 55.54 50.06 51.66 50.91 53.44 53.35 51.30 50.21 49.47 49.93 49.49 49.88 49.69 49.27 51.14 53.39 53.25 54.66 52.71 51.35 51.22 53.63 51.67 50.92 51.72 51.32 49.81 51.27 49.95 43.52
57.47 57.15 56.90 56.16 55.43 55.00 54.83 54.49 54.14 54.12 51.72 54.09 56.95 52.78 60.56 60.72 53.15 55.49 51.51 51.55 46.37 52.19 54.57 52.97 52.58 51.67 50.49 50.92 50.48 50.13 49.25 51.49 54.48 54.15 50.90 53.62 51.28 47.62 49.48 54.11 55.56 53.64 50.26 48.73 48.29 43.06 46.05
57.56 57.12 56.88 56.44 55.88 55.26 54.79 54.39 54.18 54.10 51.79 55.33 54.84 54.88 60.29 58.41 50.25 52.47 53.26 50.71 51.35 51.45 52.52 52.79 52.20 52.81 53.85 51.63 49.08 51.13 51.74 54.04 54.45 53.62 52.47 53.42 49.31 44.98 47.32 51.34 53.50 52.04 51.21 49.86 53.68 52.02 48.91
57.41 57.30 57.06 56.74 56.24 55.47 54.87 54.77 54.45 54.98 53.12 54.51 54.89 52.01 56.12 56.41 55.50 52.07 51.18 50.95 49.77 53.07 52.01 52.90 53.34 54.35 52.97 51.91 54.13 51.41 51.82 53.85 54.61 54.84 57.52 56.55 50.91 48.91 45.03 48.26 51.12 48.55 50.05 52.66 52.06 48.56 48.13
57.24 57.15 56.87 56.88 56.68 55.45 54.88 54.75 54.85 55.64 54.02 54.41 57.16 54.83 53.92 50.66 53.26 52.65 51.98 51.19 49.18 49.09 52.97 53.39 52.26 52.62 52.15 50.30 51.27 50.80 52.91 53.70 54.55 58.48 55.21 54.02 49.47 51.29 51.54 51.65 51.01 50.64 49.94 50.04 49.95 49.89 45.44
56.67 57.09 56.73 56.83 56.49 55.49 54.68 54.51 54.55 55.42 53.10 56.07 53.87 53.76 57.23 52.58 53.25 51.50 48.17 50.00 49.11 49.88 50.06 50.09 51.19 52.34 52.85 50.84 51.47 50.20 52.60 52.54 51.24 53.33 52.63 54.61 49.68 51.51 49.40 51.03 50.62 49.16 50.33 50.54 50.86 50.80 52.47
55.24 56.83 56.81 56.65 56.17 55.50 54.64 53.89 54.57 55.20 52.51 57.29 59.53 57.33 53.79 50.89 52.34 50.73 50.45 50.74 50.06 50.76 51.36 51.76 51.24 51.58 51.06 51.76 54.59 55.46 54.73 54.15 53.50 52.39 52.98 54.10 52.18 50.04 46.54 50.60 50.03 47.19 49.99 51.45 51.48 54.67 53.89
54.49 55.62 56.76 56.65 56.12 55.36 54.62 53.93 54.47 54.75 52.23 58.31 58.33 56.55 52.92 49.91 52.12 51.35 51.07 50.50 49.47 50.53 49.66 51.60 52.20 50.96 53.75 56.86 56.13 55.26 54.73 54.83 55.04 56.15 56.96 53.58 52.77 51.48 47.55 50.04 42.06 51.15 57.08 55.11 52.83 53.96 56.28
52.39 53.92 55.74 56.58 55.94 55.20 54.64 54.21 54.39 55.22 53.02 56.70 59.64 56.15 53.99 50.10 52.15 51.74 51.34 51.10 51.70 52.58 51.13 51.19 52.05 54.18 56.01 53.95 50.45 49.88 50.60 52.60 54.34 54.66 56.11 56.07 53.19 48.57 45.23 45.89 49.71 52.15 52.54 55.46 53.72 53.18 58.24
51.17 52.14 54.38 56.26 55.96 55.20 54.43 54.44 54.42 55.14 52.94 55.47 58.98 59.59 55.44 51.30 51.81 53.43 51.55 51.74 49.81 50.51 51.11 52.54 54.82 55.63 54.60 50.99 49.68 45.96 45.14 48.35 48.33 50.92 55.91 56.58 56.52 51.41 48.90 44.48 42.42 52.27 57.71 59.90 58.46 50.52 58.38
50.64 51.79 53.49 54.99 55.96 55.24 54.35 54.62 54.08 55.24 52.69 54.57 59.65 60.31 55.75 51.61 54.40 54.39 51.35 51.00 53.61 51.71 50.13 51.87 52.70 52.52 54.34 49.16 47.17 46.45 46.70 51.90 47.30 45.69 46.94 49.10 50.70 48.73 48.46 46.00 49.60 55.78 58.10 60.23 48.55 50.44 58.06
49.69 51.01 52.95 54.08 55.64 54.87 54.47 54.78 54.18 55.47 54.41 53.99 57.99 60.95 55.39 52.22 54.11 55.19 55.09 52.48 52.61 52.21 48.82 53.48 51.60 52.18 50.42 48.15 47.47 48.14 48.39 50.44 48.36 50.83 50.46 48.09 48.15 48.53 49.81 46.38 43.71 57.94 57.90 52.21 57.54 59.25 58.73
49.66 50.53 52.40 53.09 55.00 54.32 54.71 54.69 54.21 55.20 55.32 53.26 54.53 59.00 58.98 53.26 53.82 57.33 57.29 57.36 56.46 55.70 53.52 53.47 52.56 52.51 52.63 50.16 52.43 52.23 49.33 49.92 50.33 45.83 52.67 49.38 52.24 49.92 51.07 50.76 58.31 59.70 59.47 61.07 60.98 58.26 59.01

GFSGBSN_sfc_wetblb_096.txt.gz
Wetbulb
61.27 61.35 61.45 61.25 60.96 60.67 60.62 60.41 59.96 59.29 58.59 58.39 58.60 59.18 59.43 59.41 59.25 59.45 59.57 59.48 59.09 58.71 58.72 59.01 59.06 60.02 61.49 57.63 56.48 68.38 73.64 71.91 67.14 68.73 68.45 64.91 61.64 60.34 58.10 59.48 59.17 56.61 56.84 57.77 58.40 58.21 58.03
61.42 61.60 61.62 61.48 61.18 60.94 60.61 60.49 60.33 59.80 59.18 58.15 57.96 58.53 58.85 58.86 58.90 58.86 58.82 58.83 58.40 58.08 58.36 58.69 59.81 59.85 58.56 52.87 62.53 69.59 68.68 65.34 63.90 67.00 66.64 63.56 62.02 62.39 59.70 58.31 57.22 58.22 57.70 57.29 58.05 57.95 58.60
61.73 61.77 61.67 61.47 61.32 60.62 59.99 59.84 59.78 59.38 59.14 58.49 58.04 57.95 58.36 58.50 58.46 58.50 58.50 58.32 58.02 57.99 58.27 59.18 61.08 61.61 58.97 57.87 62.13 64.16 65.80 66.37 64.63 65.15 63.13 63.82 63.47 60.21 59.64 56.96 59.04 58.06 55.61 57.38 57.84 57.94 57.30
61.77 61.55 61.37 61.25 61.09 60.09 59.41 59.06 58.61 58.68 58.68 58.50 58.14 58.20 57.81 57.71 57.86 57.94 57.78 57.18 57.47 57.90 59.43 60.54 62.05 61.55 58.14 61.64 62.10 60.53 63.04 64.21 65.71 66.23 64.03 62.69 61.90 59.06 56.81 58.12 56.98 54.83 54.82 51.30 55.83 56.85 57.86
61.43 61.46 61.21 61.12 60.68 59.91 58.91 58.83 58.75 58.43 58.36 58.17 57.90 58.01 57.81 57.34 57.20 57.14 56.49 56.19 57.78 59.78 60.46 62.05 61.53 60.88 58.17 62.67 57.77 60.22 60.56 57.68 59.76 61.70 61.41 60.32 59.24 56.28 56.27 52.50 50.55 52.80 49.67 51.48 53.30 56.96 57.04
61.40 61.20 61.00 60.72 60.26 59.57 58.67 58.58 58.58 58.27 57.99 57.84 57.42 57.42 57.10 56.94 56.78 56.05 55.53 56.87 62.78 60.00 60.12 63.02 62.78 58.57 60.09 56.15 58.77 59.65 61.13 59.81 58.05 57.77 56.77 56.82 57.55 54.45 53.83 51.56 45.94 49.13 50.00 51.76 51.93 55.38 56.10
61.18 60.89 60.29 59.90 59.24 58.98 58.73 58.44 58.28 58.10 57.88 57.54 57.22 57.07 56.94 56.67 56.19 55.49 55.26 60.70 58.30 57.86 59.36 56.35 56.05 56.51 56.74 58.77 60.11 58.87 59.55 58.14 57.50 56.03 52.00 55.62 53.17 51.82 53.31 54.43 54.20 53.07 51.96 51.34 53.44 55.68 54.50
60.56 60.06 59.68 59.22 58.81 58.56 58.31 58.15 57.79 57.63 57.65 57.26 57.11 56.78 56.48 56.12 55.41 54.45 57.45 56.81 55.91 56.72 52.10 57.46 56.47 56.38 57.96 58.41 55.28 57.77 59.75 55.30 54.63 51.36 54.02 52.47 49.84 53.54 54.86 54.69 53.59 52.93 51.09 50.54 52.69 54.51 54.10
59.64 59.45 59.11 58.87 58.68 58.15 57.67 57.43 57.11 56.57 56.30 56.30 56.51 56.43 55.93 55.18 54.33 57.88 59.61 56.80 60.21 59.30 53.10 56.43 56.49 56.03 56.41 57.14 54.91 55.84 57.68 56.84 54.21 52.82 53.18 51.70 53.09 55.58 53.77 52.60 51.05 51.43 50.03 50.06 50.32 53.32 54.23
59.13 58.85 58.70 58.31 57.99 57.50 56.94 56.86 56.51 55.85 55.72 55.39 55.35 55.83 55.33 53.99 55.43 60.56 59.30 60.55 60.58 59.06 50.42 52.68 53.33 55.64 56.41 57.14 54.07 58.49 58.58 55.82 53.71 51.59 52.97 52.40 54.46 52.75 52.10 51.17 51.94 48.71 52.57 51.80 50.61 49.65 46.17
58.52 58.44 58.27 57.79 57.37 57.03 56.72 56.40 56.02 55.84 55.42 55.71 55.61 55.55 54.66 53.53 57.22 59.62 59.94 61.05 59.95 57.66 45.51 52.97 54.02 58.84 56.52 53.90 55.13 55.48 58.95 56.15 52.16 52.71 52.88 50.68 51.93 51.69 51.07 51.40 52.90 50.03 52.61 51.33 51.02 49.60 48.86
58.03 57.96 57.72 57.56 57.17 56.74 56.45 55.94 55.67 55.47 55.31 55.33 55.47 55.02 54.13 59.32 60.22 61.41 60.38 60.16 58.50 49.55 45.07 50.61 53.35 52.90 53.06 54.51 54.40 55.41 55.42 57.57 57.32 53.82 55.01 54.27 56.86 55.10 54.19 54.56 53.60 53.49 51.59 51.13 50.78 49.25 45.17
58.27 57.72 57.60 57.37 57.04 56.61 56.10 55.67 55.53 55.11 55.11 55.16 54.78 53.82 53.70 58.05 58.42 60.32 60.35 57.94 50.14 46.71 53.26 50.81 51.24 52.75 52.24 51.54 52.34 52.39 52.36 52.51 51.62 49.37 50.47 52.96 53.79 55.65 55.30 52.09 54.42 53.59 50.99 45.28 44.18 43.74 43.80
58.67 57.75 57.44 57.18 56.89 56.26 55.76 55.65 55.25 54.74 54.76 54.78 53.74 53.11 57.57 59.78 61.26 60.92 58.88 53.69 46.77 51.80 50.84 53.27 52.43 52.05 50.10 52.16 51.95 51.45 51.29 50.48 53.98 51.95 50.07 48.74 47.03 52.89 55.32 53.21 51.06 51.74 50.69 45.24 40.00 40.54 43.13
58.57 58.09 57.62 57.24 56.77 55.96 55.61 55.31 54.96 54.60 54.35 54.28 52.41 60.69 60.88 62.18 62.11 60.62 55.42 48.90 50.63 51.60 52.34 51.05 51.10 49.82 50.99 52.00 51.00 50.81 51.53 50.74 52.32 53.25 49.07 47.87 47.78 53.63 54.32 55.13 54.11 51.28 48.54 52.94 47.99 47.70 44.83
58.38 58.03 57.97 57.50 56.75 55.98 55.55 55.19 54.82 54.56 54.49 53.50 55.53 58.87 59.46 61.72 60.75 58.75 52.71 47.80 51.87 53.41 52.79 52.26 48.78 51.32 49.06 50.75 49.99 50.75 50.52 52.38 50.71 53.84 55.01 51.40 46.14 51.66 53.56 55.50 54.79 52.61 54.41 48.45 49.38 42.27 40.18
58.48 58.06 57.74 57.36 56.73 56.06 55.51 55.02 54.56 54.13 53.99 53.06 57.37 56.80 60.75 61.93 59.52 54.83 49.55 52.18 52.72 54.21 54.02 51.65 51.06 50.65 51.01 50.24 51.11 50.21 50.36 52.36 53.86 53.19 54.27 52.29 50.51 49.70 52.25 50.92 50.13 51.55 51.22 51.89 51.03 47.44 42.91
58.50 58.07 57.57 57.25 56.83 56.16 55.71 54.90 54.03 53.44 52.92 55.19 57.46 53.42 61.18 61.46 52.13 54.70 52.69 53.39 48.54 52.38 54.58 53.17 53.32 51.91 50.77 51.33 50.60 50.99 50.56 52.09 54.67 53.96 50.63 53.43 50.05 46.25 48.10 52.34 54.45 53.83 52.39 50.78 45.82 44.97 47.61
57.66 58.02 57.58 57.21 57.11 56.67 55.82 54.92 53.98 53.34 53.29 55.48 55.12 56.24 61.39 59.09 49.23 52.21 55.25 53.00 53.03 51.53 52.38 52.67 52.75 53.94 54.00 51.88 49.76 52.15 52.65 55.33 54.83 53.55 52.24 53.13 48.50 43.43 45.88 50.53 53.56 51.17 52.18 52.95 51.63 50.28 46.27
56.20 57.32 57.66 57.38 57.27 57.11 56.30 55.29 54.13 54.19 54.96 55.22 55.44 52.78 57.24 57.57 56.21 52.81 51.55 51.60 51.57 54.06 52.46 52.97 52.41 54.10 52.88 51.80 53.69 51.79 52.46 54.48 55.33 54.42 58.81 57.17 50.74 48.26 44.52 47.66 50.92 48.90 50.32 51.25 50.73 45.97 45.80
54.62 56.10 57.41 57.14 57.04 57.27 56.46 55.74 54.68 54.31 55.14 55.31 56.96 55.12 56.05 51.23 52.70 53.79 54.11 52.44 50.24 50.10 53.46 53.66 52.18 52.27 51.62 50.02 51.20 51.14 52.91 53.84 55.44 58.83 55.37 53.24 47.73 49.64 50.20 50.96 50.85 50.17 49.50 49.79 48.72 49.26 47.36
53.25 54.74 56.12 57.25 57.00 57.20 56.57 55.78 54.84 54.02 54.22 55.49 54.88 54.12 55.69 53.32 54.28 52.73 50.90 50.48 49.63 50.88 51.59 50.51 50.27 51.49 53.03 51.28 52.17 49.54 51.85 53.09 52.07 53.59 52.25 52.92 48.13 50.75 49.04 51.30 51.29 49.29 50.90 51.03 50.62 50.62 49.64
52.09 53.53 55.63 56.63 56.73 56.94 56.40 55.82 54.97 53.92 54.15 56.48 60.19 59.59 55.44 51.91 52.38 51.72 51.93 52.07 51.19 52.80 52.53 52.73 51.28 50.32 50.20 52.53 53.74 54.34 54.57 54.13 53.00 51.16 51.04 51.66 50.73 49.66 45.67 50.47 49.96 46.60 51.38 52.33 52.60 51.87 52.22
51.29 52.62 53.70 55.27 56.83 56.94 56.34 55.56 55.07 53.80 53.83 56.57 57.30 57.70 52.75 49.47 52.00 52.09 53.13 53.11 51.22 51.93 50.13 51.99 52.93 51.37 53.41 55.75 55.15 54.21 53.39 53.20 53.54 53.76 54.59 54.48 53.47 51.46 46.53 49.04 41.28 51.25 55.82 54.15 53.46 55.63 57.03
50.93 51.22 52.46 53.51 55.55 57.03 56.07 55.41 55.13 54.45 54.50 55.84 57.49 57.06 53.56 49.67 52.56 52.28 52.47 52.39 53.28 53.54 51.77 51.82 52.76 54.21 55.31 53.09 49.20 47.70 48.83 51.03 52.65 55.89 56.17 57.05 53.98 48.71 45.58 45.21 49.15 48.02 49.56 49.72 51.64 52.87 57.11
50.43 50.70 51.41 52.42 53.92 56.69 56.05 55.35 54.87 54.50 54.11 55.38 56.72 59.42 55.98 50.94 50.52 53.86 52.20 53.10 50.75 50.63 51.12 52.44 55.82 57.05 54.71 50.37 47.69 43.57 43.37 47.95 47.53 51.97 56.52 56.46 55.37 49.09 47.92 41.21 41.24 48.16 50.98 54.25 56.34 49.44 56.89
51.21 50.00 50.93 51.58 53.18 55.29 56.23 55.23 54.73 54.73 53.97 54.74 56.53 61.13 56.51 51.19 54.05 54.57 51.53 51.61 54.00 52.90 51.06 52.57 53.63 53.10 54.72 48.88 45.27 44.57 45.02 49.96 46.32 47.25 47.59 50.83 50.57 48.01 47.21 44.21 48.40 54.27 56.83 59.06 47.35 49.76 57.37
51.48 50.43 50.19 51.24 52.98 54.27 56.05 55.11 54.84 54.73 55.55 54.52 54.51 60.38 55.93 52.38 53.75 55.23 55.49 53.32 53.03 52.63 49.00 52.46 51.36 52.87 51.18 47.41 46.90 47.19 46.65 50.24 49.78 51.59 49.82 49.19 47.32 47.70 48.27 45.25 42.30 58.04 56.60 51.79 55.61 58.95 58.02
50.93 51.12 49.64 51.00 51.98 53.55 55.61 54.72 54.89 54.81 55.80 54.70 51.76 59.08 59.32 53.88 53.12 56.60 56.48 57.92 56.91 56.24 53.49 53.99 52.64 52.96 53.92 49.88 50.71 51.99 49.86 51.22 50.43 45.48 54.77 48.34 49.01 46.04 50.31 49.98 58.10 59.29 58.53 60.26 60.31 59.59 59.59

GFSGBSN_sfc_wetblb_102.txt.gz
Wetbulb
61.95 61.68 61.57 61.15 60.83 60.35 59.89 59.36 59.42 59.25 59.11 59.09 59.15 58.93 58.81 58.79 58.87 59.01 59.21 59.29 59.02 58.92 58.98 58.92 59.07 59.40 57.58 51.78 51.36 64.74 71.62 71.13 64.95 62.27 60.13 59.92 61.36 59.51 54.55 54.56 54.93 52.32 53.32 53.91 54.16 53.71 54.49
61.69 61.60 61.35 60.97 60.74 60.36 59.81 59.44 59.47 59.15 59.10 58.83 58.77 58.64 58.60 58.59 58.66 58.76 58.60 58.51 58.39 58.39 58.41 58.77 59.00 59.40 53.14 47.01 57.68 67.60 63.89 62.87 62.02 60.94 62.15 61.88 62.30 61.12 55.26 53.94 51.56 53.45 51.80 51.26 52.50 53.35 54.16
61.56 61.22 61.01 60.66 60.65 60.10 59.57 59.51 59.41 59.03 58.79 58.50 58.16 57.74 57.85 58.33 58.50 58.37 58.31 58.06 58.03 57.85 58.13 58.84 59.47 59.52 55.31 52.62 59.48 64.78 62.15 59.29 59.88 60.37 59.89 61.51 61.34 53.64 51.68 50.62 53.15 50.72 47.68 49.45 51.12 51.39 51.50
61.11 60.90 60.85 60.53 60.31 59.68 59.34 59.16 58.84 58.53 57.94 56.92 56.61 56.57 56.53 56.78 57.45 57.58 57.52 56.99 57.18 57.86 58.76 59.52 60.64 58.39 48.92 59.90 58.25 63.45 61.97 62.02 61.46 59.18 60.07 61.20 60.08 52.07 49.02 51.64 50.13 47.49 44.54 41.31 48.82 50.65 51.42
60.98 60.75 60.53 60.41 59.99 59.37 58.83 58.55 58.29 57.92 56.97 56.56 56.41 56.41 56.45 56.64 56.91 57.03 56.40 56.30 57.80 59.56 60.24 61.34 55.22 53.09 52.64 63.82 54.49 54.47 58.58 56.93 55.09 59.96 58.95 61.72 56.37 49.30 50.34 46.45 43.31 42.94 40.36 42.53 46.34 51.59 50.73
60.92 60.43 60.16 60.07 59.68 58.97 58.29 58.01 57.73 57.38 57.24 56.95 56.51 56.53 56.63 56.75 56.73 56.20 55.65 56.41 58.87 59.14 59.31 60.79 60.13 51.68 56.07 56.71 54.66 55.26 54.36 54.48 52.90 52.88 52.99 52.47 49.20 45.41 44.89 43.52 38.44 41.29 41.00 42.59 44.51 50.18 50.14
60.25 59.99 59.54 59.21 58.96 58.19 57.73 57.52 57.36 57.16 57.05 56.91 56.39 56.30 56.40 56.32 56.08 55.62 53.31 52.00 48.26 48.42 50.41 52.11 52.10 54.72 56.30 56.20 56.44 54.29 55.80 54.57 53.33 50.67 45.52 48.53 44.00 41.51 44.67 46.52 48.98 47.03 44.97 44.52 48.03 50.84 47.27
59.65 59.02 58.72 58.65 58.36 57.86 57.46 57.20 57.01 56.79 56.83 56.43 56.10 56.00 56.00 55.85 55.31 54.88 51.87 49.61 49.38 51.08 45.92 52.05 52.76 52.82 55.05 55.02 51.59 53.82 55.42 50.51 49.84 45.68 48.01 45.19 42.07 47.62 49.42 49.73 49.21 48.14 45.74 44.33 46.49 49.19 46.01
59.29 58.60 58.35 58.10 57.90 57.52 57.21 56.91 56.65 56.57 56.22 55.84 55.60 55.39 55.39 55.12 54.39 53.49 51.42 51.01 53.61 50.00 43.12 49.33 53.00 51.79 51.56 52.43 50.85 52.12 53.23 51.69 49.19 46.47 46.16 43.29 46.92 51.58 50.20 48.22 46.62 44.04 42.12 43.07 43.56 46.19 45.54
59.03 58.49 57.95 57.91 57.78 57.35 57.07 56.89 56.47 56.18 55.84 55.40 55.25 55.25 54.98 53.82 51.37 51.73 53.48 54.03 52.80 51.52 41.29 48.44 49.29 51.82 51.93 50.99 49.18 55.52 54.72 52.55 49.83 46.27 47.33 45.65 49.82 50.14 48.64 48.13 46.84 40.53 48.07 47.54 46.08 42.76 38.51
58.87 58.53 58.16 57.86 57.62 57.13 56.89 56.57 56.36 56.02 55.35 54.81 54.76 54.98 54.56 54.08 48.86 50.00 56.51 55.94 54.03 50.23 38.05 52.15 49.25 54.17 49.65 49.41 50.78 52.48 55.65 51.26 48.03 48.20 46.97 46.13 48.46 48.53 48.25 48.69 49.58 45.65 48.89 46.86 46.51 42.10 37.73
58.92 58.54 58.34 57.86 57.56 57.21 56.62 56.14 55.87 55.73 55.19 54.42 54.42 54.31 54.21 52.08 49.05 52.18 54.66 53.18 50.45 43.32 40.29 48.18 49.81 47.74 46.44 47.83 50.34 52.79 52.41 52.23 52.22 49.51 48.68 48.10 52.12 50.25 49.05 51.05 50.61 51.53 47.20 45.14 43.57 39.07 35.24
59.15 58.81 58.15 57.85 57.43 57.01 56.48 55.98 55.87 55.51 55.00 54.03 53.70 53.33 53.27 54.26 47.66 52.11 52.12 49.68 42.49 39.41 50.23 46.24 45.31 46.06 45.34 46.43 48.05 49.69 48.40 46.29 43.92 40.21 40.74 47.08 49.00 50.41 51.59 47.20 48.87 47.74 41.77 36.10 33.88 34.47 34.72
59.32 58.86 58.20 57.86 57.28 56.78 56.18 56.08 55.75 55.25 54.39 53.61 52.96 52.78 53.21 54.00 51.90 52.61 50.22 46.09 38.48 48.23 45.82 48.48 47.84 47.21 44.62 46.43 47.67 48.57 46.94 44.37 48.55 45.68 41.93 40.54 40.99 47.53 50.47 47.46 44.27 44.25 41.54 35.67 30.29 31.62 37.25
57.83 58.48 58.42 58.00 57.22 56.46 56.11 56.03 55.51 55.00 53.76 53.18 52.54 51.02 51.39 54.71 55.65 52.08 47.01 39.32 41.53 45.39 48.98 47.74 47.07 44.76 45.64 48.19 47.21 47.73 45.46 45.38 47.82 46.44 41.27 39.60 41.53 49.53 50.95 50.47 47.54 44.40 39.89 43.16 37.95 37.06 36.14
56.00 57.09 57.43 58.13 57.53 56.77 56.31 55.93 55.67 54.90 53.29 53.16 48.82 49.31 51.10 57.08 55.23 49.56 43.09 40.26 43.92 49.29 49.36 48.25 42.89 45.78 43.03 45.47 45.13 44.95 45.04 48.17 48.30 49.38 46.38 42.52 38.36 45.10 50.51 49.93 48.81 44.59 46.23 40.46 38.42 32.01 31.21
54.31 55.21 55.27 57.02 57.63 56.79 56.35 55.89 55.31 53.92 52.80 52.67 49.89 47.64 53.46 53.97 52.11 45.33 38.66 40.58 47.73 51.94 50.82 47.28 45.07 44.05 45.21 44.93 44.40 44.18 44.85 48.90 49.91 48.76 48.76 43.90 40.46 42.46 46.34 42.54 42.45 43.54 40.68 42.17 39.97 37.64 33.32
52.50 52.61 54.33 55.83 57.12 56.95 56.41 55.69 54.78 52.73 52.29 51.43 47.82 44.09 54.93 53.20 45.58 40.97 40.86 46.43 50.44 50.19 49.61 47.74 48.78 47.57 45.96 47.07 44.79 45.12 46.00 48.57 51.74 49.39 45.91 45.50 39.92 36.18 41.56 47.40 49.67 45.50 43.94 41.51 36.53 36.52 36.85
51.65 51.87 52.65 53.68 55.41 56.99 56.51 55.67 54.44 52.36 52.12 48.86 43.95 45.46 54.45 52.26 39.94 39.32 44.14 48.94 50.11 49.36 48.41 46.85 47.03 48.27 47.62 44.86 42.65 46.97 48.57 52.39 52.84 49.40 45.39 45.02 38.63 33.98 37.41 41.18 45.74 43.01 45.35 42.83 40.78 38.26 36.90
51.29 51.48 51.73 52.71 54.45 55.49 56.84 56.07 54.98 53.28 52.45 49.18 45.39 43.45 48.50 48.50 45.56 43.90 43.06 45.01 46.77 52.20 49.15 49.02 47.39 47.44 45.20 43.94 44.42 43.99 46.87 52.18 52.75 51.38 58.90 50.20 38.98 38.18 34.00 38.47 42.59 41.72 45.23 47.60 43.70 34.77 37.57
51.14 51.10 51.22 51.62 53.41 55.04 55.27 56.59 55.63 53.97 52.79 49.46 46.85 45.72 46.25 41.58 44.62 44.32 42.55 44.90 45.90 45.94 48.29 47.09 45.68 46.65 44.13 39.23 42.83 43.19 46.11 47.84 50.48 55.41 48.34 44.12 38.26 39.00 41.81 44.46 45.28 45.24 45.92 48.36 43.55 43.66 40.73
50.76 50.97 50.99 51.07 51.54 53.33 54.90 56.67 55.91 54.01 51.95 48.36 43.02 46.29 47.14 44.66 44.76 44.82 43.68 42.00 46.12 48.16 46.16 47.27 43.99 46.64 44.26 40.27 40.94 39.57 41.93 40.72 43.45 46.18 41.84 42.27 37.83 38.46 38.49 44.89 45.88 45.39 49.68 49.93 49.56 49.03 49.29
50.27 50.44 50.64 50.78 50.95 52.12 53.64 56.11 56.25 53.76 50.83 47.38 49.95 49.21 47.08 44.71 43.10 41.98 42.23 45.84 47.67 47.89 48.58 48.19 46.90 44.30 44.11 45.63 45.99 44.57 43.85 43.74 44.28 41.54 41.13 39.46 37.56 35.87 34.13 42.06 43.53 40.91 46.84 48.50 49.74 49.71 49.94
49.79 50.24 50.37 50.51 50.63 51.33 52.91 54.68 56.71 54.54 51.48 47.75 47.78 46.83 44.62 42.46 43.11 43.78 47.45 48.34 47.30 47.95 45.31 49.15 47.52 43.80 48.13 49.16 47.26 45.68 44.35 43.39 44.61 44.45 42.88 39.48 37.45 38.04 36.96 39.57 34.84 43.78 51.02 51.74 50.38 50.90 52.40
49.66 49.63 49.96 50.07 50.26 50.59 52.13 53.90 56.19 55.41 53.76 47.99 49.33 46.36 44.90 41.18 44.81 46.45 47.34 46.11 47.23 46.58 46.29 47.54 49.69 49.54 48.11 45.96 40.95 38.46 38.86 39.53 43.35 45.55 44.57 43.77 39.61 38.47 38.80 37.73 42.16 47.56 49.20 49.46 46.86 47.01 53.82
49.49 49.30 49.91 49.94 50.29 50.23 51.52 52.91 54.47 55.85 53.87 51.19 49.51 51.29 45.30 42.35 42.99 49.29 46.19 46.12 41.99 41.32 44.16 47.31 51.34 50.36 47.81 42.00 39.53 32.77 32.55 36.67 38.19 42.00 48.88 48.68 46.88 44.65 42.66 37.67 35.72 44.65 52.31 54.76 53.50 43.09 53.62
50.76 49.86 49.59 49.72 50.02 50.05 50.68 52.00 54.21 56.23 53.91 49.95 50.19 52.00 48.50 45.15 47.66 46.99 43.75 43.03 45.68 42.94 41.41 43.57 47.02 46.93 45.57 38.90 36.66 35.00 34.90 40.24 36.33 37.08 38.88 42.19 42.99 41.42 43.10 39.20 42.89 50.79 54.38 55.15 41.98 43.52 53.38
50.59 50.55 50.50 49.84 49.77 49.93 49.96 51.20 53.12 55.75 55.33 51.67 48.47 51.14 47.37 44.64 46.26 49.58 50.56 45.84 44.95 43.74 41.03 43.73 43.70 44.74 43.03 39.11 38.07 37.34 35.88 39.45 41.02 43.58 42.95 41.37 39.58 39.25 39.87 36.99 36.78 54.21 54.78 48.09 48.33 51.89 54.60
50.38 50.29 50.29 50.35 50.36 49.93 50.05 50.99 52.81 54.94 55.49 54.15 49.09 53.18 53.48 46.68 47.09 50.99 52.83 53.14 51.46 50.15 44.68 43.62 43.14 42.60 44.38 41.06 41.62 41.10 39.85 40.95 40.49 37.74 45.90 41.88 45.52 42.38 42.06 41.24 48.41 52.21 54.09 55.45 55.34 54.11 54.60

GFSGBSN_sfc_wetblb_105.txt.gz
Wetbulb
61.77 61.50 61.41 60.87 60.49 60.33 59.71 59.41 59.42 59.15 58.62 57.98 57.70 57.38 57.38 57.39 57.67 58.58 58.68 58.74 58.80 58.57 58.44 58.59 58.90 59.21 56.36 48.75 50.04 64.00 72.85 72.36 63.21 59.10 57.11 57.04 58.53 57.24 54.46 54.35 54.13 51.21 51.79 51.58 52.67 51.53 51.69
61.52 61.34 61.09 60.80 60.55 60.07 59.53 59.47 59.18 58.78 57.79 57.13 56.63 56.75 57.10 57.08 57.55 57.87 58.13 58.35 58.24 58.08 58.10 58.39 58.73 58.91 51.11 43.92 54.03 65.45 61.72 59.37 58.72 60.44 59.64 59.42 61.22 61.34 54.97 51.35 49.48 51.49 50.70 49.50 50.03 51.22 51.25
61.39 61.18 60.68 60.51 60.35 59.78 59.36 59.01 58.89 58.48 58.13 58.03 57.68 57.38 57.25 57.61 58.06 58.11 58.21 58.09 57.87 57.53 58.02 58.52 58.93 58.62 53.68 48.65 58.29 64.21 58.29 56.30 59.18 59.04 58.99 61.41 60.94 55.32 51.43 47.76 51.37 49.08 47.12 47.94 49.55 48.86 49.03
61.03 60.61 60.31 60.11 59.95 59.36 58.90 58.34 58.20 58.13 57.91 57.76 57.54 57.38 57.19 57.32 57.61 57.67 57.53 57.24 57.23 58.03 58.59 59.00 59.89 56.97 46.86 56.85 57.41 61.42 59.26 59.85 60.41 58.30 58.09 58.62 58.79 53.76 47.62 49.97 49.50 46.05 43.21 40.79 47.60 49.09 49.76
60.58 60.07 59.70 59.64 59.44 58.74 58.28 58.02 57.89 57.85 57.58 57.24 57.02 56.82 56.70 56.82 56.92 56.92 56.43 56.51 59.19 59.47 60.23 60.77 54.40 52.24 51.69 62.47 55.87 56.57 60.64 58.59 57.88 58.37 58.01 61.32 55.57 49.94 48.62 44.77 42.35 42.55 38.60 41.47 45.45 50.45 49.49
60.13 59.77 59.22 58.80 58.88 58.52 57.99 57.85 57.68 57.50 57.22 57.03 56.57 56.24 56.20 56.26 56.44 56.21 55.76 56.20 60.48 58.89 59.69 60.59 59.49 50.48 54.55 54.94 55.39 53.48 55.52 58.80 51.71 50.87 51.48 52.20 47.88 45.25 42.77 42.01 37.43 39.95 39.79 41.17 43.00 47.99 49.46
59.68 59.39 58.79 58.44 58.50 58.17 57.87 57.76 57.52 57.32 56.97 56.65 56.35 55.93 55.77 55.89 55.82 55.52 53.52 49.92 47.95 46.74 49.26 47.90 50.96 53.21 54.25 56.87 56.01 52.95 54.19 52.91 51.36 49.19 44.20 46.89 42.77 40.90 43.33 44.30 45.71 45.23 43.26 43.04 46.94 50.14 46.05
59.26 59.00 58.66 58.40 58.15 57.70 57.56 57.44 57.16 56.99 56.91 56.59 55.95 55.44 55.42 55.34 55.33 54.95 50.81 49.27 47.81 49.44 45.26 50.16 50.91 51.58 53.46 53.43 50.72 52.12 54.03 49.50 48.92 44.59 46.04 43.85 41.10 46.36 47.39 46.85 45.55 44.92 43.16 43.72 46.06 48.21 45.25
58.97 58.75 58.39 58.13 57.91 57.56 57.24 57.05 56.81 56.75 56.57 56.31 55.54 55.01 55.05 54.70 54.24 52.59 50.81 49.64 51.71 50.09 41.94 47.76 50.65 50.25 50.59 51.91 50.09 50.25 52.48 50.09 47.65 45.04 44.36 42.24 46.14 49.66 48.42 46.69 44.98 41.87 40.83 41.56 42.74 44.93 44.58
58.86 58.44 58.24 58.14 57.88 57.48 57.28 56.93 56.81 56.53 56.33 56.20 55.34 54.79 54.42 53.57 50.18 49.54 52.57 53.87 52.93 49.36 41.30 48.15 48.47 51.85 50.35 50.06 48.04 53.75 53.57 51.43 47.84 45.38 45.49 43.95 47.95 48.91 47.45 46.76 45.17 38.82 46.13 46.26 45.36 42.40 38.29
59.13 58.83 58.39 58.27 57.95 57.47 57.07 56.81 56.51 56.41 55.96 55.92 55.00 54.35 54.13 53.66 47.53 47.76 53.05 51.48 51.35 49.46 37.01 50.79 48.22 52.51 47.99 47.84 49.19 50.88 53.66 50.03 46.55 46.98 45.94 45.17 47.23 46.89 46.38 46.89 47.93 44.63 48.12 46.06 45.90 40.77 37.28
59.30 59.13 58.59 58.37 57.96 57.59 56.88 56.40 56.12 56.00 55.70 55.43 54.18 53.75 53.80 51.25 47.90 50.74 51.80 50.09 49.41 42.79 38.13 46.73 48.36 46.63 45.26 46.35 48.54 50.94 50.73 51.05 50.65 47.78 46.68 46.40 50.49 48.28 47.38 49.64 49.13 49.51 46.17 43.26 40.12 37.78 34.35
57.69 58.37 58.24 58.28 57.98 57.48 56.80 56.26 56.06 55.76 55.51 54.68 53.22 52.77 52.75 53.46 48.00 50.72 50.27 49.01 41.93 38.80 48.21 45.27 43.78 45.34 43.05 44.88 46.67 48.03 47.51 44.96 42.95 41.64 39.47 45.56 46.82 48.75 49.91 46.51 47.71 45.68 39.39 33.83 33.89 33.77 33.65
55.60 56.25 57.24 57.33 57.62 57.28 56.64 56.46 56.02 55.57 55.15 53.46 52.32 52.41 52.58 53.78 50.57 51.57 48.75 45.67 37.03 46.10 44.33 47.05 45.89 45.09 43.93 45.59 45.99 47.34 45.06 42.49 46.79 43.74 40.29 39.26 39.50 46.27 49.60 46.08 43.00 42.01 39.03 34.72 29.89 31.11 35.27
53.56 54.38 55.68 55.84 56.20 56.80 56.64 56.32 55.81 55.31 54.44 52.50 51.95 49.98 49.86 52.42 54.26 49.76 46.12 38.82 40.11 44.05 47.23 46.69 45.14 43.28 43.82 46.54 45.73 46.16 43.81 44.26 46.00 44.59 39.66 38.08 40.15 48.17 49.71 48.52 46.05 42.35 37.66 40.16 36.53 34.24 33.31
52.53 52.98 53.97 53.97 55.51 56.34 56.72 56.28 55.79 55.13 53.31 52.01 48.49 47.86 49.69 54.14 53.28 47.49 42.05 39.15 42.03 47.82 48.67 46.49 41.55 43.85 41.31 44.18 43.96 43.49 43.64 46.79 46.79 47.85 45.13 42.07 37.32 43.38 49.03 47.83 47.21 42.75 45.03 39.19 36.79 30.62 30.15
51.96 52.01 52.07 52.67 53.97 54.99 56.42 56.08 55.39 54.50 52.33 51.81 48.01 47.13 52.08 51.75 49.48 44.10 38.06 38.88 45.39 50.63 49.67 45.65 43.53 42.92 43.20 43.33 42.80 41.93 43.67 47.97 48.60 47.44 46.26 42.73 39.80 41.28 44.76 41.83 40.85 41.99 40.95 40.53 37.86 35.70 31.66
51.44 51.42 51.56 51.88 52.46 54.30 54.95 55.87 55.01 53.24 51.44 49.73 44.34 43.53 51.95 51.36 44.15 37.55 39.30 43.78 48.31 48.91 48.38 46.25 46.91 45.81 43.81 44.60 42.88 43.67 44.48 47.02 51.00 48.22 43.62 43.45 38.04 35.45 39.81 45.40 47.49 43.88 41.26 39.09 34.82 34.27 34.88
51.22 51.07 51.16 51.39 51.54 54.03 54.64 54.74 54.86 52.91 51.36 48.22 41.60 42.90 52.09 50.66 40.39 38.58 42.71 46.81 48.41 48.23 47.44 45.77 45.32 47.32 46.02 42.56 40.12 45.00 46.91 50.81 50.87 48.27 43.27 44.30 37.17 33.32 36.86 40.36 43.35 41.31 42.61 40.23 38.84 35.71 34.98
50.59 50.80 50.89 50.83 51.19 51.71 53.89 54.00 55.06 53.87 52.27 47.66 43.66 42.26 46.82 46.21 42.36 42.00 40.78 42.87 45.18 50.64 47.64 47.26 45.43 46.06 43.56 42.05 43.22 42.08 44.93 50.01 51.70 51.23 55.69 49.13 37.15 36.96 33.59 37.60 40.73 40.33 42.53 43.74 39.73 33.51 34.78
50.42 50.42 50.45 50.57 50.66 50.97 52.21 53.76 55.13 54.61 52.92 47.44 44.65 43.84 44.63 40.63 43.38 42.64 41.58 43.10 43.92 44.16 48.06 46.70 45.11 43.78 41.69 37.47 39.12 39.49 42.92 44.62 47.34 52.41 46.26 42.74 37.81 38.41 39.52 42.08 42.80 42.51 43.12 45.06 43.80 41.48 39.98
50.04 50.12 50.15 50.32 50.38 50.59 51.56 53.50 54.09 54.63 51.61 46.80 40.69 44.93 45.29 43.60 42.76 42.25 41.55 40.74 43.84 45.47 44.04 44.98 42.09 44.77 42.51 39.04 40.46 37.71 39.76 39.14 40.68 43.59 40.31 40.05 37.10 37.28 36.47 42.47 42.61 42.37 44.60 47.49 48.16 48.00 46.82
49.49 49.50 49.90 50.11 50.19 50.40 50.85 52.00 53.65 54.26 50.17 45.53 47.42 46.10 45.76 43.70 41.51 40.46 40.64 43.56 45.58 45.68 46.62 46.64 45.53 42.65 42.23 43.99 45.49 45.13 44.21 43.01 43.20 41.40 38.82 38.99 36.59 34.01 31.54 38.80 41.29 37.94 43.46 47.03 47.48 48.86 47.60
49.85 49.62 49.41 49.75 49.88 50.15 50.27 51.18 52.72 53.99 51.06 48.42 45.63 45.02 43.36 41.36 41.71 42.70 45.81 46.95 45.99 46.09 43.39 47.52 46.32 42.04 46.97 47.42 45.76 42.75 41.30 41.39 42.34 42.06 40.68 36.89 35.47 35.26 32.12 36.43 31.33 41.84 49.80 50.36 48.61 51.00 51.02
49.55 49.54 49.63 49.60 49.84 49.99 50.20 50.45 52.36 53.69 53.52 49.77 50.08 47.96 46.30 40.83 43.33 45.04 45.82 44.87 45.11 44.56 44.23 45.95 48.46 48.55 46.06 42.95 40.17 36.81 37.50 38.36 40.58 42.86 43.34 40.12 35.78 33.79 33.69 35.13 40.51 46.06 48.25 48.22 45.78 46.00 52.51
50.22 49.73 49.55 49.45 49.58 49.79 50.03 50.17 51.12 52.72 53.59 51.34 49.89 51.09 47.38 42.66 41.68 48.01 45.33 44.87 40.80 39.61 42.22 45.35 49.62 48.28 45.16 39.59 38.29 32.29 32.07 34.48 36.08 39.57 45.53 45.01 40.28 38.18 38.93 35.52 35.08 43.78 52.05 53.44 51.90 41.58 51.89
50.72 50.61 50.72 49.43 49.48 49.41 49.66 49.86 50.92 51.90 52.90 51.22 49.62 51.96 48.32 45.81 48.42 46.27 43.45 42.43 44.17 41.32 39.81 41.32 45.65 45.25 43.28 37.22 35.30 33.89 33.70 38.56 34.94 34.22 36.64 39.62 40.96 39.21 38.97 38.34 42.98 50.43 53.39 54.57 40.61 40.74 51.63
51.08 50.72 50.64 50.47 50.04 49.39 49.36 49.64 50.54 51.78 53.66 51.41 47.46 51.40 47.31 44.07 46.07 48.03 48.94 45.11 44.20 42.45 39.75 42.69 42.27 42.03 40.84 37.51 36.30 36.03 34.41 37.27 38.25 40.94 39.73 39.77 38.04 37.26 38.27 37.53 36.31 53.38 52.74 45.70 46.71 50.72 53.37
51.13 50.88 50.70 50.44 50.32 50.43 49.28 49.38 50.09 51.50 53.60 54.40 48.40 52.44 51.85 44.97 43.63 48.66 50.65 52.05 49.86 48.57 44.03 42.19 41.37 41.15 42.43 39.11 39.34 39.25 38.51 38.85 39.09 36.48 43.27 38.43 42.13 40.25 42.01 42.64 48.91 50.33 51.57 53.25 53.62 53.34 55.05

GFSGBSN_sfc_wetblb_108.txt.gz
Wetbulb
61.52 61.40 61.05 60.71 60.34 59.92 59.65 59.33 58.97 58.97 58.53 58.41 58.40 58.30 58.01 57.99 58.03 58.25 58.49 58.55 57.94 57.85 57.69 57.49 57.70 58.91 55.42 46.04 48.46 65.58 73.54 72.63 64.10 57.77 54.52 54.45 53.69 54.00 53.34 53.67 52.52 50.02 50.48 50.89 51.16 50.49 49.71
61.35 61.11 60.54 60.33 60.04 59.67 59.27 59.03 59.03 58.89 58.70 58.52 58.38 57.96 57.81 57.87 58.20 58.23 58.43 58.36 58.30 57.60 57.39 57.78 58.35 58.71 49.91 41.96 52.11 65.64 63.23 58.05 57.64 55.75 55.99 58.66 59.72 60.29 54.02 50.11 47.57 50.06 49.15 48.66 48.95 50.13 50.05
61.06 60.36 60.01 59.87 59.76 59.27 58.99 58.76 58.94 58.76 58.50 58.20 58.00 57.55 57.40 57.52 57.63 57.90 58.13 58.00 57.70 57.66 58.09 58.18 58.82 58.07 51.00 46.32 57.38 62.98 58.37 54.86 57.48 58.65 57.93 59.55 61.14 54.84 51.02 47.57 49.49 48.38 46.46 47.42 48.33 47.51 47.47
60.48 59.87 59.64 59.53 59.29 59.03 58.83 58.50 58.64 58.48 58.28 57.83 57.58 57.20 56.98 56.88 57.16 57.53 57.45 57.12 57.81 58.83 58.30 58.84 59.57 55.54 45.29 53.55 56.81 60.55 57.46 56.84 58.08 56.89 56.83 57.55 58.09 53.40 48.48 48.85 47.94 45.19 42.39 40.64 46.44 47.95 49.17
59.91 59.77 59.32 59.35 59.02 58.77 58.45 58.34 58.20 58.09 57.83 57.61 57.39 56.86 56.34 56.37 56.42 56.63 56.39 56.83 60.23 60.02 60.18 60.69 54.10 50.48 50.26 61.11 56.11 55.74 57.23 55.73 57.82 56.92 56.82 60.55 54.19 48.84 47.91 43.53 40.78 41.67 38.17 39.81 44.57 48.73 48.96
59.75 59.44 59.28 59.17 59.01 58.53 58.14 58.00 57.85 57.85 57.59 57.48 57.18 56.63 55.89 55.77 56.13 55.95 55.70 56.57 60.72 58.63 59.50 60.30 59.06 49.06 53.62 53.19 55.21 52.19 55.90 56.92 52.66 49.54 50.11 50.09 46.18 45.06 42.16 41.10 36.48 38.74 38.88 40.95 42.01 46.29 47.67
59.55 59.29 59.13 58.73 58.77 58.34 58.02 57.83 57.67 57.51 57.33 57.24 57.04 56.50 55.56 55.46 55.47 55.18 53.15 48.65 47.32 46.23 47.82 46.23 49.24 52.17 53.80 54.94 54.80 51.52 52.60 53.72 49.96 48.48 43.06 45.56 42.38 40.31 43.09 42.81 43.31 43.24 41.55 41.26 44.43 47.70 45.27
59.55 59.11 59.06 58.87 58.51 58.11 57.85 57.63 57.38 57.29 57.31 57.16 56.88 56.46 55.36 54.87 54.85 54.69 50.35 48.57 47.34 48.09 43.68 48.74 49.47 50.52 52.41 51.94 49.58 50.92 52.97 48.33 47.15 43.43 44.65 42.97 40.16 45.25 46.02 44.97 43.89 42.53 40.58 40.97 44.45 46.52 44.59
59.58 59.20 58.82 58.62 58.56 58.14 57.82 57.32 57.16 57.02 56.76 56.64 56.51 55.99 54.78 54.29 54.10 51.10 50.00 50.40 52.08 47.64 41.99 47.19 49.12 48.60 48.63 50.51 48.95 49.81 51.39 48.73 46.29 43.80 43.00 41.27 44.36 48.52 47.22 45.35 44.13 39.99 39.72 40.66 42.18 43.91 43.43
59.38 59.08 58.69 58.71 58.52 58.07 57.83 57.41 57.09 56.85 56.49 56.29 56.23 55.23 54.12 52.99 49.79 48.07 49.89 50.97 50.40 48.33 40.90 46.23 47.54 49.60 48.54 48.52 46.97 52.70 52.42 50.43 46.95 43.98 44.16 42.84 46.74 48.13 46.19 45.63 43.79 40.28 45.25 44.40 43.40 41.00 38.40
57.98 58.18 58.02 57.68 58.02 57.79 57.23 57.27 57.11 56.67 56.21 56.11 55.91 54.35 53.58 53.44 47.45 47.62 50.55 49.24 49.28 48.65 36.16 48.95 46.98 51.32 46.90 46.65 47.80 49.60 52.10 48.85 45.59 45.49 44.72 43.55 45.57 45.11 44.90 45.69 46.68 44.05 46.46 44.46 44.75 39.47 37.20
56.06 56.40 56.73 57.17 57.24 56.78 56.57 56.75 56.73 56.45 56.00 55.70 55.08 53.43 53.44 50.66 47.43 50.27 50.36 48.89 48.54 42.52 36.53 45.74 47.02 45.72 44.41 45.22 47.19 49.28 49.35 50.11 49.28 46.04 44.96 44.59 48.69 47.03 46.15 48.66 47.85 48.23 44.94 42.39 39.03 36.86 33.52
53.45 53.86 54.76 56.33 56.01 56.36 55.95 56.35 56.56 56.06 55.72 55.16 53.59 52.28 52.23 52.85 48.25 49.82 49.38 48.19 41.64 38.21 46.64 44.15 42.93 44.71 41.96 43.93 45.69 46.57 46.31 43.72 41.99 40.56 38.61 44.34 45.41 47.59 48.84 44.90 45.91 44.46 37.52 32.78 33.22 32.52 33.13
52.68 52.78 53.30 54.34 54.49 55.36 55.68 56.01 56.08 55.74 55.24 54.42 51.89 52.14 52.32 52.86 51.21 51.14 47.95 45.17 37.36 43.95 42.99 45.63 44.89 43.33 43.67 45.23 44.98 46.14 43.35 42.15 46.01 42.41 39.01 38.00 38.41 45.07 48.97 44.50 41.46 40.47 36.91 33.43 28.82 30.12 34.62
52.08 52.22 52.24 52.61 53.26 54.14 54.69 55.12 55.34 55.42 54.69 53.24 51.34 49.04 49.29 51.29 53.60 48.78 45.31 38.08 39.08 42.36 45.87 45.59 43.47 42.26 42.51 45.04 44.46 44.54 42.99 43.16 44.39 43.36 39.15 37.42 38.90 47.04 48.49 46.79 44.90 41.76 37.51 38.28 35.13 32.65 32.46
51.53 51.72 51.66 51.68 51.64 52.22 54.41 54.99 54.96 55.44 54.11 52.06 47.31 46.33 48.66 51.72 51.36 46.07 41.36 38.24 40.68 46.08 47.30 44.77 40.47 42.33 39.79 42.79 43.24 42.67 42.15 45.39 45.51 46.59 43.29 41.39 37.09 42.18 47.54 47.24 47.00 43.56 44.29 38.00 35.56 29.63 29.58
51.31 51.28 51.24 51.23 51.43 51.72 54.02 54.45 54.45 54.86 53.15 51.16 45.59 45.83 50.89 50.48 47.74 43.62 37.75 37.67 43.41 48.71 47.75 44.16 42.08 41.52 41.73 42.35 41.43 40.51 42.07 46.22 48.49 46.28 45.89 41.07 39.45 40.29 43.36 41.07 40.21 41.60 39.16 38.38 36.54 34.44 30.79
50.91 50.91 51.03 50.88 51.05 51.17 52.28 53.38 53.58 53.70 51.46 48.87 42.15 43.10 50.88 49.51 44.06 35.71 38.50 41.50 46.52 47.07 47.72 44.91 45.43 44.11 42.21 43.19 41.52 41.91 42.79 45.51 49.30 46.68 42.19 40.92 37.49 35.33 39.43 44.19 45.65 42.81 40.85 37.74 33.77 33.57 34.17
50.78 50.55 50.61 50.66 50.71 50.90 51.07 51.97 52.90 53.41 51.51 47.04 40.77 41.21 50.33 48.85 39.91 38.17 41.75 44.99 46.55 47.24 46.44 44.96 44.08 45.66 44.50 40.99 38.32 43.34 45.07 49.52 50.58 47.03 42.32 42.31 36.68 33.14 36.88 40.25 42.79 40.54 42.12 39.17 36.48 34.67 33.95
50.15 50.50 50.39 50.37 50.41 50.60 50.79 51.49 53.00 53.46 53.11 46.25 42.33 40.84 46.07 44.86 41.13 40.35 39.51 41.21 43.81 49.05 46.47 46.34 43.63 44.33 42.26 40.20 41.46 40.37 42.59 47.53 48.86 49.66 53.89 47.93 35.88 37.12 34.20 37.79 40.09 39.24 41.39 42.01 38.20 33.10 35.07
49.92 49.89 49.97 50.05 50.09 50.39 50.45 51.13 53.02 53.22 53.70 45.77 42.52 41.45 42.59 40.77 42.39 41.47 39.72 41.23 42.02 42.85 46.27 45.66 42.77 42.39 40.69 36.80 37.73 37.97 41.12 42.72 45.60 50.01 44.38 42.19 37.50 37.19 38.57 40.94 41.68 41.12 41.36 42.21 39.54 40.26 39.38
49.95 49.81 49.61 49.71 50.07 50.11 50.28 50.54 51.77 52.51 52.36 45.51 40.33 43.45 43.95 42.66 41.83 40.51 39.61 39.56 42.17 43.73 42.35 43.24 40.29 43.32 40.77 38.43 40.18 38.42 39.56 37.41 39.50 41.19 39.77 38.36 36.27 36.34 36.56 41.57 40.89 39.75 42.28 43.17 42.89 46.18 44.14
50.01 49.95 49.84 49.57 49.50 49.94 50.18 50.09 50.88 51.43 50.99 44.45 45.44 44.31 44.50 42.65 40.74 39.10 39.70 42.14 44.18 43.94 45.20 45.59 44.78 41.48 40.75 42.26 44.11 42.72 42.83 41.46 41.05 39.63 37.36 37.17 35.85 32.73 32.30 37.49 38.97 34.83 40.32 43.65 46.51 48.09 46.94
51.00 49.76 49.75 49.76 49.49 49.71 49.86 50.05 50.16 51.10 52.16 48.94 46.81 43.28 41.42 39.06 40.75 41.82 44.65 45.75 45.02 44.90 42.01 46.06 45.11 40.62 44.87 46.39 44.26 42.52 40.38 40.03 39.94 39.85 38.60 35.46 33.01 32.42 30.53 33.90 28.49 38.28 49.64 50.00 48.45 49.38 50.69
51.21 50.32 49.45 49.57 49.53 49.47 49.63 49.91 50.01 51.37 51.62 50.33 49.96 47.97 45.78 40.72 42.77 43.94 44.78 44.08 44.34 43.64 42.60 44.52 46.82 47.28 45.38 41.41 38.50 36.15 36.64 38.13 38.57 40.96 41.60 36.90 34.43 31.94 30.80 31.05 37.24 44.56 47.96 47.50 45.49 45.27 50.35
50.96 50.96 50.92 50.06 49.49 49.46 49.26 49.69 49.80 50.86 50.96 51.77 50.52 50.69 46.95 40.41 40.62 46.41 44.42 44.52 41.05 38.54 41.39 44.00 47.00 46.74 42.74 38.29 37.50 32.38 32.09 33.97 34.87 38.25 42.43 41.35 37.43 35.52 37.23 34.08 33.55 42.20 50.68 53.01 51.40 42.05 51.04
51.47 51.21 50.39 50.59 49.32 49.28 49.31 49.21 49.58 50.62 50.86 51.37 49.90 51.23 48.32 44.11 44.60 43.61 43.13 42.07 42.80 40.00 39.10 40.53 44.10 44.15 42.02 36.23 34.36 33.06 33.09 37.28 34.18 33.09 33.99 38.84 39.29 36.64 38.22 37.47 40.90 48.22 52.29 53.88 41.68 41.82 51.40
51.10 51.05 50.82 50.81 50.86 49.20 49.20 49.23 49.25 50.06 51.28 52.02 49.85 50.90 47.26 44.51 44.76 46.68 47.72 44.21 43.22 41.59 39.58 41.56 41.25 40.06 39.65 36.60 34.92 34.37 33.88 36.08 36.73 38.46 38.86 39.03 36.83 36.23 36.99 35.29 34.41 52.35 53.24 47.26 47.32 49.98 52.39
51.15 51.13 51.21 51.25 50.75 50.72 49.13 49.28 49.15 49.59 50.50 52.08 48.70 51.79 51.25 45.63 41.72 47.60 48.87 50.30 49.34 48.43 44.09 41.50 40.89 40.40 41.23 38.05 38.07 37.89 37.42 37.32 37.15 35.82 42.03 37.36 40.38 38.64 40.44 39.88 46.55 49.88 50.66 52.86 52.97 51.86 52.95

GFSGBSN_sfc_wetblb_111.txt.gz
Wetbulb
61.05 60.70 60.20 60.12 59.85 59.51 59.38 59.31 59.17 59.22 59.06 59.00 59.07 58.88 58.64 58.50 58.40 58.41 58.33 58.60 58.07 57.78 57.63 57.43 57.16 58.15 58.36 52.42 51.00 68.50 72.54 71.69 68.36 61.19 57.67 56.13 56.40 57.63 57.62 58.65 57.29 55.44 55.82 54.30 55.61 54.48 54.11
60.46 59.97 59.63 59.88 59.58 59.30 59.10 59.17 59.19 59.13 58.88 58.88 58.80 58.50 58.32 58.03 57.96 57.95 58.34 58.53 58.32 57.43 57.18 57.11 57.40 58.72 55.63 48.71 56.92 67.84 65.65 62.94 61.73 59.38 57.77 59.52 58.68 62.41 59.10 56.53 53.09 54.12 53.73 53.35 53.79 54.29 53.82
59.98 59.74 59.69 59.68 59.46 59.16 59.00 59.02 59.08 58.85 58.76 58.50 58.48 58.24 58.16 57.70 57.66 57.73 57.97 57.75 57.82 58.06 58.03 58.23 58.86 59.03 53.95 50.36 61.59 64.64 61.98 59.18 61.16 61.23 58.51 61.19 65.26 60.64 56.81 54.66 53.20 52.63 51.02 52.80 52.42 53.18 53.42
59.96 59.76 59.58 59.50 59.22 59.04 58.86 58.82 58.86 58.65 58.38 58.11 58.13 58.09 57.90 57.48 57.05 57.30 57.17 57.16 59.28 59.12 58.46 59.18 59.67 59.27 51.78 56.57 63.54 60.87 60.03 60.88 60.82 61.16 60.86 62.04 63.06 58.69 55.63 53.91 52.83 50.82 50.50 49.23 52.52 53.05 53.31
59.67 59.62 59.47 59.52 59.28 59.01 58.67 58.63 58.41 58.32 58.09 57.81 57.77 57.71 57.53 56.93 56.57 56.55 56.35 57.06 60.47 60.33 60.10 60.66 58.99 57.07 55.45 62.36 59.08 60.07 60.81 59.28 61.63 60.98 61.40 61.01 58.47 54.88 54.40 51.57 50.03 50.38 46.94 47.75 49.48 52.90 52.70
59.82 59.76 59.63 59.72 59.65 59.09 58.71 58.49 58.23 57.99 57.77 57.61 57.44 57.38 57.03 56.40 55.92 55.75 55.78 56.97 60.13 60.19 60.87 61.30 60.23 55.29 57.89 55.73 58.22 56.33 60.96 59.43 55.83 54.98 54.67 55.01 54.52 54.56 52.18 51.62 45.57 46.38 46.61 47.94 47.87 51.18 51.88
59.76 59.59 59.47 59.34 59.27 58.87 58.52 58.13 58.02 57.86 57.72 57.30 57.14 57.06 56.66 55.69 55.38 55.24 55.62 55.39 54.48 53.53 53.25 50.81 52.89 54.78 56.00 56.81 56.99 55.42 59.42 59.18 54.65 53.80 50.57 51.03 50.08 48.97 49.60 49.82 49.39 47.99 47.22 47.09 49.98 51.19 50.26
59.63 59.43 58.65 58.29 58.27 58.08 57.56 57.40 57.42 57.64 57.48 57.18 56.94 56.70 56.18 54.98 54.74 54.83 55.84 54.68 53.49 53.66 49.94 52.03 51.75 52.01 54.13 55.32 52.37 53.93 56.73 53.35 51.93 49.60 50.02 50.23 48.80 50.43 49.39 48.85 47.94 47.72 47.32 48.23 50.38 50.12 50.85
58.57 58.50 58.20 56.97 57.12 57.40 56.84 56.76 56.91 57.08 57.21 56.87 56.61 56.29 55.12 54.17 53.94 55.44 55.10 54.99 55.58 53.13 49.60 51.62 51.99 52.00 53.03 54.18 52.39 53.03 55.04 52.99 51.04 49.12 48.97 48.52 49.73 51.30 50.50 49.51 48.59 48.57 48.42 48.41 47.79 49.84 50.08
56.57 56.60 56.90 57.12 57.13 56.72 56.08 56.24 56.44 56.31 56.73 56.41 56.21 55.95 54.12 52.90 55.44 53.40 55.22 55.35 55.01 53.51 49.77 50.44 52.32 53.53 52.95 53.31 51.43 55.15 55.74 54.13 51.22 49.17 48.99 49.13 50.40 50.54 50.46 49.55 49.36 48.17 50.02 49.24 48.48 48.10 46.33
53.84 53.83 54.31 54.93 55.95 56.13 56.23 55.64 55.70 55.75 55.97 56.07 55.84 55.40 53.59 53.40 54.78 54.27 53.60 55.41 54.65 53.33 43.16 51.46 51.55 55.57 52.57 51.67 51.94 52.55 55.05 53.79 50.62 49.79 50.29 48.41 49.87 49.48 49.32 49.64 50.57 48.67 50.61 49.69 49.13 48.40 47.12
52.87 52.89 53.11 53.32 54.14 54.51 55.20 55.26 55.04 55.12 55.50 55.80 55.50 54.38 53.32 53.85 53.22 55.75 55.60 55.16 54.56 49.11 42.18 48.52 50.74 50.22 50.28 50.61 51.05 52.42 53.27 54.71 53.15 50.44 50.34 49.52 52.44 52.00 50.82 51.33 51.04 51.21 50.02 48.59 48.21 47.63 43.64
52.39 52.52 52.47 52.64 52.62 52.85 53.77 54.71 55.00 54.74 55.32 55.42 54.53 52.48 53.38 55.07 55.60 56.06 55.94 55.59 48.72 45.59 50.40 47.66 48.59 49.60 49.04 49.68 50.17 50.32 50.28 50.30 48.96 46.73 47.29 49.65 49.76 51.64 52.27 49.91 50.73 50.84 48.17 43.53 42.89 42.75 41.99
51.81 51.83 51.93 51.87 51.80 51.62 52.89 54.65 54.71 54.63 54.85 54.73 52.90 52.08 54.18 55.48 57.13 56.11 55.20 52.72 44.53 47.17 47.09 49.86 48.75 49.19 48.62 49.55 49.82 49.53 48.39 48.95 50.75 49.08 48.29 46.47 44.61 49.60 52.12 50.09 48.13 47.74 47.28 43.40 37.14 40.00 41.95
51.43 51.47 51.41 51.34 51.28 51.24 51.81 53.57 53.83 54.16 54.61 53.96 51.45 55.28 56.49 56.91 57.13 54.85 53.25 46.31 47.02 47.30 49.29 48.48 48.55 47.52 48.12 49.14 49.33 49.66 48.89 48.83 49.86 50.47 47.58 46.33 45.52 50.35 51.17 51.66 50.43 48.09 47.42 47.51 44.17 43.47 42.57
50.98 50.93 51.20 51.00 50.98 50.94 51.18 52.14 53.32 54.00 54.31 52.88 51.63 52.04 55.40 56.18 56.49 53.70 50.38 43.76 47.71 49.75 50.49 49.12 46.08 47.63 46.13 48.02 48.66 49.18 48.41 50.35 49.55 50.64 51.46 48.96 46.01 49.00 50.17 51.12 51.84 50.83 50.93 45.61 47.38 39.21 37.40
50.79 50.65 50.67 50.65 50.67 50.79 50.94 51.26 52.47 53.55 53.40 51.23 52.01 52.58 56.43 55.47 54.41 52.83 47.61 46.80 47.77 51.47 50.88 48.95 47.51 47.33 47.74 47.54 48.47 48.08 47.81 50.44 51.75 50.92 52.29 50.32 48.56 47.86 49.69 48.83 47.99 48.78 47.71 46.80 46.60 45.27 40.17
50.62 50.45 50.57 50.52 50.39 50.50 50.65 50.77 51.53 52.47 51.99 50.37 50.46 48.11 55.94 55.72 52.34 45.82 48.32 47.55 46.82 50.73 51.71 49.41 50.15 49.46 48.20 48.16 48.05 48.34 48.14 49.92 52.67 51.92 49.48 49.15 48.98 46.07 46.76 49.35 49.56 49.54 48.53 47.48 43.40 41.60 44.70
50.53 50.48 50.36 50.25 50.35 50.24 50.33 50.39 51.19 52.05 52.09 50.32 48.50 48.50 56.17 54.82 48.13 48.71 49.18 48.86 49.75 50.24 50.36 50.09 48.39 49.42 49.62 48.35 46.75 48.58 49.28 51.64 52.92 51.94 50.60 50.89 47.82 43.81 45.08 48.06 49.41 47.94 48.80 48.21 46.88 45.81 42.91
50.14 50.07 50.16 50.22 50.43 50.16 50.26 50.39 51.59 51.69 52.15 50.53 48.77 47.52 53.68 52.52 49.41 48.45 47.78 47.27 47.92 51.44 49.89 50.37 49.00 49.60 49.08 47.95 48.91 48.05 48.31 50.16 50.81 52.55 53.60 54.71 47.49 46.76 42.72 45.40 48.25 46.11 47.06 48.12 46.58 42.11 42.92
49.94 50.19 50.29 49.84 49.71 50.09 50.18 50.22 51.34 51.52 52.00 50.45 48.38 47.65 48.11 48.46 49.52 48.66 47.96 47.29 46.98 47.48 50.39 50.08 49.10 47.82 47.52 46.59 46.70 46.58 47.43 48.29 49.54 53.12 51.06 51.21 46.23 47.19 47.12 47.61 47.30 46.95 46.43 46.59 45.00 45.58 42.99
50.55 50.40 50.15 50.09 49.78 49.99 50.10 50.22 50.16 50.87 51.51 50.83 48.29 48.61 50.18 49.32 47.97 47.40 45.52 46.92 46.39 47.70 48.23 47.63 47.13 48.39 47.77 47.17 47.91 46.60 47.56 47.79 47.96 49.26 49.27 48.00 45.27 45.82 44.17 46.62 46.56 44.41 46.17 46.15 46.13 46.55 47.27
51.41 50.76 50.40 50.58 50.40 49.78 50.13 50.09 49.84 49.97 50.97 49.95 50.02 49.93 49.16 46.75 47.47 47.05 47.77 47.36 47.03 48.56 49.68 49.89 48.98 47.81 47.16 48.02 50.18 50.23 51.16 49.65 50.30 48.44 46.80 46.27 45.82 43.20 40.44 44.02 43.90 40.85 45.08 45.93 47.61 51.40 51.30
51.49 51.56 50.84 49.89 49.63 49.75 49.68 49.84 49.82 50.34 50.80 50.53 49.92 49.17 46.93 45.16 46.80 47.83 47.39 48.50 48.20 48.75 47.32 49.77 50.79 48.24 50.13 52.67 50.46 50.07 49.81 49.35 48.44 48.51 48.02 46.25 44.25 43.81 41.46 42.29 35.97 45.65 53.06 52.72 51.56 52.75 54.28
51.82 51.68 50.57 50.84 50.27 49.62 49.45 49.61 50.13 50.61 50.81 51.06 51.15 49.43 47.76 43.85 46.87 47.22 48.42 48.38 49.64 49.66 48.32 48.71 50.60 52.06 52.36 49.63 48.11 45.67 46.59 46.74 46.15 48.75 49.40 46.95 45.63 43.45 40.85 40.64 43.57 46.61 51.59 51.12 49.45 49.69 54.13
51.09 51.49 51.09 50.44 50.45 50.14 49.33 49.38 49.36 49.60 50.36 51.15 52.16 52.52 47.85 44.80 44.46 48.17 47.76 48.99 47.44 47.89 48.49 49.55 51.99 53.58 50.88 49.05 46.43 42.31 40.47 43.06 42.47 44.81 48.89 45.94 46.27 44.44 43.51 39.22 37.58 48.71 53.00 55.93 54.69 47.36 54.74
51.07 50.97 51.11 50.42 50.40 50.43 49.41 49.17 49.38 49.45 49.87 50.67 51.25 52.93 48.72 44.03 47.97 48.44 47.14 47.38 49.59 47.27 47.19 47.69 49.39 50.07 49.81 47.43 44.13 42.71 42.22 45.04 41.18 41.48 43.14 47.19 47.84 43.88 44.14 42.99 46.94 52.29 54.35 56.16 44.98 47.27 54.64
51.40 50.93 50.80 50.92 50.60 50.17 50.11 49.00 48.97 49.17 49.96 50.85 50.70 52.72 49.27 45.06 46.65 49.23 50.52 49.21 49.17 48.60 46.29 49.02 48.47 47.05 48.32 45.30 44.40 44.32 43.14 44.85 43.54 45.46 46.84 45.86 44.91 45.37 45.67 43.55 40.60 54.46 55.11 49.60 53.70 56.98 56.31
51.60 51.36 51.27 50.99 50.45 50.43 50.25 50.29 48.91 48.84 48.94 50.33 48.20 53.80 52.00 46.71 46.48 50.04 51.15 51.91 51.47 51.85 49.70 49.78 47.95 46.82 49.77 47.45 47.28 47.29 44.99 45.48 45.19 41.68 49.44 44.75 48.07 46.17 48.11 47.75 52.77 55.75 55.80 58.30 58.20 57.14 57.91

GFSGBSN_sfc_wetblb_114.txt.gz
Wetbulb
60.41 60.14 60.09 60.12 59.85 59.61 59.49 59.38 59.48 59.34 59.39 59.34 59.50 59.52 59.56 59.64 59.35 58.98 58.69 58.68 58.72 58.07 57.89 57.83 57.62 57.88 61.28 57.41 55.36 68.08 72.49 72.11 68.95 62.54 60.87 59.37 58.53 58.67 57.38 58.86 59.44 57.58 57.52 57.46 57.75 57.85 57.73
60.16 60.09 60.02 60.04 59.80 59.65 59.49 59.51 59.42 59.28 59.19 59.19 59.01 58.99 58.99 59.08 58.97 58.32 58.27 58.56 58.29 58.30 57.68 57.34 57.58 58.93 60.68 52.26 60.60 66.14 65.63 66.56 65.87 61.63 59.99 59.58 58.28 61.37 60.47 58.75 56.69 56.95 56.59 56.42 56.70 56.29 56.58
59.94 59.99 60.03 60.12 59.88 59.76 59.58 59.54 59.54 59.41 59.11 58.96 58.74 58.70 58.61 58.69 58.49 58.08 58.02 57.81 58.61 59.10 58.62 58.77 59.04 61.82 57.35 55.27 64.20 65.81 63.77 62.54 63.24 61.78 58.72 60.96 65.15 63.83 60.37 56.91 57.14 56.43 54.00 55.44 55.57 55.98 55.57
60.16 60.13 60.00 60.01 59.89 59.77 59.44 59.50 59.31 59.20 58.83 58.57 58.48 58.38 58.30 58.25 57.96 57.51 57.43 57.42 59.87 59.16 59.01 59.46 60.08 63.06 55.56 59.71 66.18 63.58 62.49 62.05 63.31 63.48 62.52 64.64 65.43 62.18 58.79 58.29 56.64 54.00 54.48 52.34 54.98 55.54 55.66
60.02 59.65 59.72 59.61 59.45 58.98 58.78 58.56 58.41 58.19 58.19 58.37 58.23 58.11 57.96 57.72 57.22 56.61 56.36 57.17 60.62 60.22 60.20 60.70 64.02 62.09 56.22 61.25 60.95 63.70 62.49 60.93 63.23 63.79 63.32 62.50 62.68 58.92 57.71 55.09 52.96 53.66 51.82 50.74 52.02 55.35 54.87
59.83 59.66 59.39 59.13 58.96 58.71 58.07 57.78 57.63 57.79 57.60 57.69 57.73 57.63 57.37 56.99 56.32 55.82 55.69 57.16 60.74 60.61 62.93 63.98 63.28 59.55 59.55 57.60 59.68 60.97 63.72 62.15 58.03 59.51 59.52 59.27 58.70 56.53 55.31 53.72 50.12 50.02 50.48 51.33 51.23 53.84 54.40
59.25 59.30 59.01 58.14 57.77 57.43 56.78 56.83 56.95 57.47 57.15 57.09 57.44 57.28 57.01 56.57 55.57 55.25 58.34 61.23 59.58 58.43 57.46 55.00 56.58 57.24 58.32 59.20 59.47 58.96 61.66 60.73 57.71 56.32 53.81 55.20 53.21 52.85 52.62 53.76 52.95 52.09 51.37 50.47 52.81 54.09 53.65
57.40 56.90 57.00 57.18 57.42 57.11 56.86 56.67 56.47 56.56 56.59 56.54 57.00 56.98 56.56 55.82 54.45 55.09 60.16 57.82 56.49 57.15 54.72 56.02 55.36 55.29 57.02 57.69 55.06 56.70 61.29 56.34 55.04 53.05 53.93 53.22 52.22 53.93 53.69 53.32 52.65 52.42 51.35 51.86 53.55 53.62 54.00
54.91 54.52 54.60 55.09 55.55 56.04 56.04 56.09 56.01 55.73 55.74 55.91 56.56 56.43 55.95 54.58 54.55 61.37 59.64 57.14 59.52 58.49 55.50 55.43 56.14 55.39 55.99 57.02 55.07 55.76 58.10 56.28 54.18 52.49 52.44 52.15 53.52 54.57 53.59 52.96 52.38 52.77 51.81 51.66 51.39 53.51 54.83
53.75 53.56 53.52 53.81 54.08 54.46 55.10 55.26 55.57 55.60 55.26 55.43 55.93 56.15 55.16 52.90 59.21 60.43 59.07 59.40 61.32 59.12 54.28 52.51 54.40 55.60 56.39 56.73 54.07 57.82 58.73 56.48 54.25 52.09 52.18 52.65 54.25 53.04 53.04 51.72 53.20 51.50 52.88 52.11 51.72 51.52 49.63
53.26 53.08 53.06 53.08 53.16 52.81 53.16 54.61 55.34 55.39 55.06 55.06 55.73 55.65 54.41 52.89 61.06 58.69 58.64 61.85 60.38 57.69 46.93 53.38 54.18 58.84 56.62 54.49 55.29 54.97 58.28 56.49 52.86 52.41 53.36 52.00 52.11 51.90 51.54 51.58 53.29 51.70 53.71 52.77 52.33 51.49 51.38
52.74 52.71 52.71 52.58 52.66 52.54 52.37 53.30 54.55 54.65 54.63 54.94 55.39 54.94 53.84 59.82 61.57 60.01 61.39 61.48 58.72 52.22 45.92 50.72 53.75 52.93 53.09 53.90 53.79 55.35 55.35 57.24 56.48 53.20 53.41 52.55 54.96 54.13 53.27 53.54 53.52 54.28 53.17 53.78 53.02 51.31 46.95
52.22 52.20 52.28 52.10 51.96 51.91 51.96 52.10 53.47 54.00 54.35 54.68 54.39 53.32 55.16 59.99 60.63 62.73 62.58 59.53 52.22 48.38 53.12 50.29 51.47 53.15 52.87 52.48 53.11 53.11 53.17 53.02 51.81 50.10 50.50 52.35 52.65 54.35 54.78 52.88 54.57 54.00 51.78 47.63 46.46 46.56 46.04
51.76 51.70 51.88 51.66 51.51 51.52 51.64 51.71 52.81 53.27 54.11 54.04 53.07 52.30 58.52 60.90 62.18 62.29 60.39 54.94 48.00 50.85 50.79 52.98 52.26 52.98 51.56 52.77 52.87 52.02 52.13 51.72 53.39 52.40 51.27 49.39 47.90 52.42 53.97 52.91 51.58 51.25 51.14 47.05 41.57 43.70 46.64
51.55 51.50 51.35 51.29 51.11 51.09 51.22 51.41 52.15 52.93 53.43 53.25 52.02 61.66 62.54 62.31 63.00 60.61 56.90 49.63 50.99 51.47 52.20 51.28 52.05 51.11 51.34 52.39 52.55 52.48 52.17 51.64 52.95 54.09 50.40 50.24 49.05 53.18 53.51 54.59 54.06 51.84 52.54 52.30 48.75 49.90 46.47
51.32 51.36 51.23 51.01 50.91 50.90 51.09 51.22 51.69 52.85 52.92 52.70 57.72 58.48 61.83 62.50 63.16 59.01 54.13 47.76 51.92 53.33 53.12 52.63 50.10 51.50 50.39 51.27 51.71 52.31 52.13 53.18 52.42 54.09 56.00 53.21 49.01 52.75 52.88 54.28 54.42 53.56 54.15 49.05 51.17 43.30 41.86
51.16 50.88 50.96 50.63 50.67 50.67 50.78 50.78 51.14 52.37 51.91 52.44 58.03 54.43 60.68 62.43 60.33 56.77 49.96 51.50 52.22 54.38 53.87 52.33 51.29 50.78 51.41 50.94 51.81 51.51 51.66 53.34 54.44 54.11 56.05 54.66 51.92 51.46 52.82 52.58 51.61 51.76 50.94 51.07 50.26 48.66 44.12
50.88 50.75 50.56 50.62 50.42 50.61 50.61 50.72 50.61 51.32 50.92 54.83 57.41 50.54 61.30 62.17 54.11 56.32 51.71 52.72 48.38 53.58 54.67 52.90 53.24 52.47 52.18 51.79 51.56 51.54 51.20 53.40 55.04 55.34 52.48 54.86 52.56 49.58 50.60 53.65 53.79 53.13 51.75 51.72 47.12 46.09 48.52
51.04 50.97 51.08 50.93 50.55 50.33 50.37 50.29 50.33 50.67 50.75 52.52 53.47 54.32 62.96 60.66 49.23 50.70 53.78 52.64 53.29 53.17 53.24 52.61 51.80 53.06 53.35 51.95 50.13 51.75 52.72 54.57 55.28 54.59 53.91 55.11 51.43 47.31 48.99 51.66 53.28 50.84 52.38 52.68 51.83 50.62 46.52
50.50 50.55 50.82 50.88 50.90 51.07 50.61 50.31 50.10 50.30 50.72 53.42 54.49 50.84 57.68 59.61 57.97 53.43 51.68 51.51 51.39 54.13 53.07 53.67 52.90 53.32 52.52 51.84 53.35 51.65 52.05 52.95 54.54 54.86 54.99 57.20 51.96 49.66 45.68 48.78 51.64 49.32 50.32 51.74 50.86 46.55 46.81
51.84 51.47 50.90 51.02 51.14 50.93 51.09 51.05 50.31 50.71 51.22 54.17 56.42 52.71 53.86 53.64 53.80 54.62 53.49 51.99 50.50 50.60 53.89 54.06 52.71 51.85 51.95 50.49 51.20 50.84 52.02 52.17 52.84 53.63 54.15 53.73 49.26 50.52 50.76 50.27 49.66 49.04 49.13 49.28 48.63 49.30 46.23
52.17 51.85 51.49 51.09 51.02 50.95 50.95 50.38 50.39 50.56 50.40 55.71 51.93 52.71 56.76 53.47 53.70 53.10 48.80 51.59 50.36 51.34 52.34 51.65 51.68 51.43 51.97 51.44 51.92 50.42 51.69 51.87 51.56 53.80 53.17 53.19 48.40 49.77 47.67 49.03 48.86 47.20 48.82 48.93 48.63 49.07 48.81
52.10 51.87 51.78 51.21 50.54 50.58 50.15 50.32 50.31 50.16 51.02 54.37 56.00 56.92 53.40 49.05 50.21 50.52 51.61 51.80 51.24 52.54 53.30 53.47 52.65 52.40 51.44 52.24 53.54 54.39 54.54 54.01 54.36 52.66 51.88 50.86 49.07 47.32 44.22 47.40 47.02 44.23 47.90 48.73 49.24 51.05 51.35
51.45 51.83 51.75 50.94 51.27 50.07 50.10 50.05 50.67 50.15 50.27 51.30 54.40 54.36 50.35 46.13 50.06 49.27 50.45 51.25 51.34 52.24 51.87 53.22 54.03 52.65 54.48 56.87 55.56 54.76 54.06 53.97 53.93 53.69 53.76 50.54 50.11 48.76 44.86 46.93 39.58 49.48 54.22 54.42 52.29 53.83 55.57
51.31 51.31 51.64 51.10 50.91 50.11 49.60 49.82 50.40 49.61 50.57 52.65 52.10 51.57 50.86 45.93 49.16 49.09 50.14 50.67 52.63 53.77 52.71 52.96 54.34 55.75 57.43 54.82 51.51 49.68 49.77 50.43 51.32 51.79 53.23 53.20 51.76 47.12 44.35 44.50 47.36 48.86 52.55 52.65 52.06 51.99 55.99
51.62 51.43 51.31 51.46 50.92 50.75 49.35 49.25 49.52 50.10 49.76 52.22 53.90 55.39 49.61 47.39 47.43 49.46 49.18 50.42 49.14 50.01 51.16 52.90 56.45 57.77 56.03 52.70 49.99 45.22 43.79 46.67 45.93 48.22 52.78 52.88 53.86 48.68 47.08 42.29 40.28 51.41 55.99 57.70 56.79 48.80 56.65
51.79 51.61 51.37 51.28 50.70 50.61 50.18 48.95 49.00 49.64 49.51 49.97 52.98 54.96 51.03 46.96 49.87 50.93 49.33 50.03 52.76 50.75 49.28 51.75 52.91 53.41 55.41 50.40 46.89 45.54 45.09 49.62 44.72 44.86 47.67 48.00 49.11 46.01 45.78 44.17 47.04 55.16 56.88 57.86 47.05 50.19 57.48
51.80 51.65 51.59 51.20 50.90 50.82 50.45 50.05 48.62 48.65 49.06 50.48 51.06 54.67 50.14 46.28 49.44 51.20 52.34 50.70 52.09 52.55 49.49 53.01 51.36 52.08 51.25 47.47 46.93 47.37 46.84 48.56 47.49 49.13 48.01 46.92 46.48 46.59 47.74 45.36 42.96 57.54 56.33 51.50 56.31 59.20 59.05
52.06 52.10 51.87 51.53 50.97 50.65 50.49 50.38 49.83 48.88 48.49 49.40 48.96 54.93 55.06 48.84 48.79 52.98 53.32 54.11 54.08 54.29 52.10 53.32 51.94 52.30 53.11 49.98 49.96 50.12 47.68 49.17 48.52 44.09 52.54 46.26 50.37 48.23 49.11 50.17 56.62 57.30 56.10 58.66 59.43 58.82 59.90

GFSGBSN_sfc_wetblb_117.txt.gz
Wetbulb
60.43 60.51 60.43 60.68 60.31 60.17 60.17 60.06 59.92 59.87 59.89 59.90 59.78 59.71 59.85 59.81 59.73 59.65 59.07 58.94 58.88 59.02 58.76 58.63 58.72 58.71 61.05 60.79 58.26 69.71 73.26 71.10 66.96 67.32 62.24 60.55 58.98 58.80 57.38 58.87 59.49 58.30 58.38 58.05 58.34 58.06 57.79
60.59 60.55 60.21 60.12 59.92 59.62 59.46 59.33 59.26 59.25 59.26 59.48 59.51 59.30 59.40 59.32 59.35 59.08 58.81 58.64 58.91 59.12 58.83 58.52 58.61 58.84 63.06 55.93 64.54 68.34 65.57 64.56 64.79 63.06 62.21 60.79 59.09 60.21 60.12 59.74 58.17 58.51 56.94 56.78 57.51 57.32 57.68
59.83 59.75 59.81 60.05 59.28 59.15 58.91 58.80 58.88 58.76 58.81 58.66 58.80 58.91 58.73 58.80 58.99 58.62 58.22 58.15 59.21 60.06 59.26 58.65 58.97 62.90 61.42 57.46 65.96 66.54 66.45 65.81 65.15 62.89 60.41 61.43 62.20 61.71 62.06 58.58 59.54 57.49 55.21 56.77 56.95 57.14 57.03
60.27 59.79 59.25 59.73 58.68 58.77 58.51 58.17 58.24 58.16 58.17 58.04 57.95 58.34 58.43 58.49 58.40 58.05 57.38 57.53 60.12 59.15 59.58 60.08 60.39 64.09 57.76 63.01 67.06 64.15 64.67 63.50 64.67 64.55 63.59 63.26 66.60 64.29 60.75 59.84 58.11 56.19 56.38 53.48 56.55 56.50 56.87
59.91 59.82 59.45 58.91 58.44 58.00 57.79 57.61 57.49 57.58 57.63 57.34 57.35 57.60 57.98 57.96 57.67 57.11 56.64 57.21 60.94 60.27 60.35 60.89 64.41 65.33 56.49 63.35 62.41 64.08 63.62 62.30 63.19 63.59 63.60 63.01 62.79 60.20 58.96 55.96 55.16 55.27 52.54 52.64 53.96 56.57 55.93
58.10 57.62 57.88 57.81 57.78 57.45 57.43 57.37 57.22 56.67 56.48 56.87 56.90 56.78 57.21 57.38 57.14 56.30 56.17 56.49 60.44 59.69 62.55 65.43 65.20 61.38 60.68 58.93 60.59 63.00 64.11 63.40 61.68 61.57 60.48 60.12 59.39 56.90 56.92 55.63 50.78 52.38 52.01 52.94 52.37 55.67 55.62
55.84 55.74 55.67 56.03 55.64 55.85 55.86 56.52 56.47 56.53 56.42 56.05 56.26 56.51 56.71 56.87 56.53 55.48 57.56 62.97 61.47 60.95 60.50 58.33 59.18 59.54 59.62 61.63 61.78 60.31 63.29 61.64 59.65 58.64 55.90 57.93 54.83 53.72 54.90 55.72 55.04 53.65 52.82 52.27 53.99 55.63 54.54
54.64 54.73 54.65 54.90 54.84 54.78 54.88 55.20 55.89 56.09 56.29 56.17 55.95 56.03 56.41 56.41 55.60 55.24 59.10 59.65 58.47 59.58 57.36 58.78 58.18 58.70 60.11 60.08 56.57 58.90 62.10 58.18 56.68 54.49 55.72 54.44 53.19 56.39 55.50 54.88 53.92 53.75 52.91 53.42 54.88 55.51 55.15
54.18 54.14 54.09 54.11 54.23 54.12 53.89 54.08 55.13 55.42 55.62 55.60 55.78 55.90 55.86 55.64 54.71 61.16 61.22 59.04 62.80 62.03 57.57 56.90 57.97 58.25 58.53 59.25 56.86 56.87 59.92 58.62 55.83 54.51 54.32 54.07 55.62 55.98 54.85 54.34 53.58 54.32 53.35 53.67 53.12 55.06 56.06
53.65 53.48 53.43 53.41 53.44 53.25 53.42 53.73 54.15 54.77 55.07 55.01 55.24 55.46 55.21 53.87 58.07 62.24 61.25 62.19 63.73 62.43 55.35 54.11 55.22 57.14 57.97 58.79 55.37 60.35 60.55 57.88 55.62 54.38 54.02 54.59 56.17 54.37 54.29 53.25 54.42 53.12 54.88 53.61 53.18 52.83 50.30
53.18 53.00 52.96 52.93 52.95 52.74 52.76 52.98 53.64 53.89 54.03 54.46 54.85 54.93 54.66 53.27 62.55 61.42 61.05 63.63 63.33 61.18 49.12 55.50 55.65 60.71 59.21 56.58 57.51 56.86 60.61 58.06 55.16 54.36 54.81 53.48 53.78 53.57 52.98 53.86 54.63 53.61 55.36 54.09 54.03 53.04 52.59
52.74 52.64 52.63 52.69 52.49 52.39 52.28 52.38 53.01 53.38 53.62 53.97 54.18 54.18 54.18 62.08 64.50 63.05 64.42 63.96 61.66 53.08 47.55 52.88 55.56 54.45 54.82 56.04 56.05 57.33 56.78 58.88 58.43 54.86 55.26 54.58 56.43 55.12 55.16 55.16 54.96 55.58 54.81 55.15 55.18 53.65 48.87
52.21 52.22 52.25 52.19 51.84 51.88 51.88 51.94 52.63 52.98 53.40 53.64 53.20 52.80 54.62 62.41 62.73 64.55 64.56 61.41 53.87 49.60 56.25 52.84 52.99 54.85 54.47 53.85 54.45 55.08 54.38 54.07 53.03 51.19 52.04 53.82 53.82 55.68 55.97 53.99 56.10 55.67 53.69 48.83 48.38 48.45 48.97
52.06 52.15 51.99 51.83 51.72 51.55 51.51 51.69 52.38 52.36 52.84 53.04 52.22 52.23 59.85 63.22 65.10 64.50 63.02 56.90 49.75 53.58 53.50 55.37 54.25 54.59 53.10 54.81 54.73 54.77 54.26 53.03 55.62 54.51 52.45 51.06 49.68 54.39 55.92 54.35 53.57 53.74 53.03 48.49 44.60 45.58 47.92
51.71 51.73 51.76 51.58 51.53 51.38 51.21 51.48 52.09 51.87 52.48 52.08 51.34 61.04 61.63 64.65 65.02 64.29 58.49 51.81 52.00 54.02 54.97 53.28 54.14 52.55 52.93 53.92 54.16 54.45 53.84 53.63 55.24 55.65 52.05 52.00 51.40 55.63 55.08 55.66 55.24 54.24 51.49 54.79 49.58 50.71 47.95
51.42 51.43 51.36 51.23 50.86 51.11 51.17 51.27 51.86 51.97 52.06 51.36 57.65 59.03 58.64 64.44 64.73 61.95 54.95 49.62 53.73 55.94 55.18 54.71 51.76 53.68 52.09 53.65 52.87 53.65 54.01 55.13 53.99 55.83 57.01 54.77 50.88 55.11 55.11 55.87 56.28 55.11 56.08 49.52 51.73 45.19 44.26
51.48 51.48 51.44 51.87 51.09 51.00 51.21 51.11 51.46 51.54 50.96 50.92 58.96 55.18 62.60 64.53 63.19 57.29 51.35 52.34 53.65 55.99 56.01 54.00 53.08 53.17 53.61 53.42 53.67 53.89 53.79 55.46 55.52 55.63 57.23 55.92 54.22 53.29 55.01 53.83 53.01 53.99 52.72 53.19 52.59 50.26 46.09
51.53 51.69 52.03 52.41 51.08 50.76 50.77 50.79 51.02 50.57 50.15 54.45 58.89 52.14 62.78 62.74 55.00 55.39 52.78 53.28 49.58 54.74 56.39 54.91 55.28 54.77 53.92 54.02 53.46 53.57 52.73 54.99 56.98 57.22 54.29 56.52 54.23 51.50 53.17 56.37 56.20 55.42 52.89 53.14 49.02 48.26 50.79
51.60 51.48 51.73 52.14 52.03 51.92 51.50 51.46 50.90 50.26 50.26 51.29 55.48 54.60 60.66 59.18 50.28 52.05 54.43 53.62 54.11 53.69 54.65 54.34 53.31 54.77 55.56 53.84 52.27 53.91 54.16 57.01 56.40 55.91 55.51 56.80 53.06 48.75 50.46 53.95 55.84 52.74 54.31 53.95 53.77 52.89 48.68
52.47 52.09 51.93 51.94 51.80 51.80 51.65 51.50 50.98 50.65 50.50 53.60 56.03 52.12 57.70 57.52 56.18 55.23 54.06 53.32 52.64 55.12 55.09 55.36 55.00 54.95 54.36 53.36 55.05 53.66 53.35 55.44 55.94 55.93 58.33 57.94 52.73 50.72 47.46 50.71 52.95 51.51 52.88 53.46 52.41 48.61 49.19
52.67 53.00 52.70 51.95 51.54 51.58 51.74 51.69 51.06 50.81 50.63 54.41 57.29 54.94 56.54 54.85 55.05 54.99 54.28 54.07 52.18 52.23 54.94 55.72 54.50 53.95 53.41 52.01 52.92 52.75 54.56 55.05 54.80 54.91 54.52 54.82 50.80 52.44 52.20 51.99 51.89 50.90 50.28 50.22 49.88 51.07 48.38
51.77 52.02 53.00 52.48 51.69 51.50 51.47 51.63 51.23 50.60 49.68 56.68 52.65 54.78 57.75 53.25 55.68 55.59 50.40 52.67 52.00 52.25 53.79 53.30 53.01 54.60 54.15 53.10 54.27 53.08 54.18 54.66 54.02 55.73 54.55 56.01 51.14 51.90 49.29 50.58 50.53 48.83 49.75 50.12 50.23 50.39 50.16
51.97 51.86 52.18 51.60 51.46 51.30 51.40 51.43 51.13 49.96 50.00 55.08 56.85 57.16 53.20 51.04 52.98 51.73 52.10 53.84 52.74 54.41 54.73 55.57 54.96 54.51 53.48 54.29 56.39 57.32 57.08 56.99 56.24 54.96 54.51 54.25 52.42 50.21 46.10 49.49 49.13 46.26 49.36 49.85 50.54 51.45 50.76
51.78 51.78 51.80 52.02 51.32 51.08 50.55 50.73 51.11 50.28 49.61 54.50 55.99 54.65 51.70 48.48 49.85 50.85 51.39 52.58 53.33 54.10 53.61 55.05 55.14 54.47 56.86 59.18 58.05 57.16 56.04 55.71 55.68 55.58 55.84 53.02 52.27 50.67 46.38 48.30 41.42 50.56 54.49 53.46 51.79 53.06 54.92
51.67 51.78 51.80 51.72 51.92 51.06 50.40 50.05 50.81 50.70 50.21 52.94 56.82 54.03 52.79 48.55 50.24 50.40 51.07 52.39 53.61 54.62 53.92 54.62 56.14 57.75 59.73 57.38 53.06 50.97 50.97 51.97 52.68 54.00 54.55 54.89 52.30 47.76 45.64 46.48 48.90 50.25 53.61 52.91 52.22 52.99 56.33
51.86 51.92 51.88 51.76 51.74 51.14 50.80 50.01 49.78 50.55 49.82 51.75 55.44 57.45 52.88 49.15 50.16 51.85 50.17 52.07 50.65 51.34 52.51 54.02 57.43 59.26 58.02 54.38 51.07 46.75 45.20 49.06 48.71 51.09 55.11 54.16 54.67 49.46 48.20 44.29 42.82 52.11 57.06 58.38 56.99 48.13 58.47
51.84 51.92 52.01 51.94 51.59 51.16 51.18 50.51 49.60 49.82 50.00 50.04 53.77 56.84 53.17 48.84 51.66 51.62 50.26 51.29 54.36 52.27 50.18 52.91 54.38 55.09 57.04 51.13 47.98 46.72 46.73 50.96 46.61 47.63 49.28 49.68 50.03 47.28 47.05 45.22 48.15 53.40 58.78 58.41 46.91 51.09 58.78
51.80 51.78 52.11 52.16 51.78 51.32 50.74 50.61 50.30 49.31 49.31 49.89 53.49 56.55 53.00 49.91 51.52 52.86 53.28 52.02 52.21 52.53 49.91 54.51 53.29 53.26 52.38 49.25 47.56 47.75 47.87 49.55 49.45 51.24 50.54 49.46 48.35 47.59 48.99 46.52 43.98 58.95 57.15 52.44 57.00 59.65 59.52
52.12 52.13 52.23 52.10 51.93 51.44 51.05 50.77 50.41 49.52 49.23 48.58 49.90 56.46 55.38 50.06 50.87 54.80 54.97 55.75 54.44 54.31 53.68 55.24 54.03 54.12 55.11 50.83 50.31 50.47 48.17 50.08 50.68 46.52 54.13 47.71 51.12 49.21 50.97 51.30 57.74 59.17 57.96 58.75 59.50 59.13 59.57